Date StartTime U_cm/s V_cm/s W_cm/s Ustd_cm/s Vstd_cm/s Wstd_cm/s Uvar_(cm/s)^2 Vvar_(cm/s)^2 Wvar_(cm/s)^2 KE_(m/s)^2 TurbulentKE_(m/s)^2 HorizWindSpeed_cm/s FrictionSpeec_cm/s DragCoef SpeedOfSound_m/s SonicTemperature_C Pressure_mb 
10/05/2013  00:00:00      -16.086      -27.398       -7.874       12.720       15.413       11.582      161.809      237.567      134.151        0.080        0.027       31.772        7.520        0.056      335.964        6.949      871.322
10/05/2013  00:01:00        0.797      -17.208       -0.052       10.108       10.391        8.176      102.163      107.979       66.853        0.029        0.014       17.226        4.548        0.070      336.431        7.729      871.321
10/05/2013  00:02:00      -27.661      -35.719       -8.074       13.258       11.019        8.364      175.783      121.418       69.955        0.124        0.018       45.177        3.992        0.008      336.063        7.114      871.333
10/05/2013  00:03:00      -53.406      -36.742      -13.273       12.222       11.397        8.582      149.372      129.893       73.645        0.237        0.018       64.824        3.014        0.002      335.646        6.419      871.343
10/05/2013  00:04:00      -54.229      -37.934      -10.713        8.722        7.864        6.154       76.075       61.841       37.869        0.234        0.009       66.180        3.747        0.003      335.497        6.170      871.350
10/05/2013  00:05:00      -46.802      -31.322      -10.739       14.604       12.588        8.507      213.285      158.468       72.362        0.187        0.022       56.316        3.679        0.004      335.825        6.716      871.349
10/05/2013  00:06:00      -61.459      -34.481      -17.136       14.213       15.218        9.192      201.996      231.575       84.489        0.289        0.026       70.471        6.407        0.008      335.364        5.948      871.348
10/05/2013  00:07:00      -85.466      -10.765      -17.241       12.579        7.672        8.756      158.225       58.864       76.664        0.401        0.015       86.141        6.121        0.005      335.245        5.750      871.348
10/05/2013  00:08:00      -87.566       -7.879      -17.836       10.191       11.895       10.650      103.859      141.502      113.416        0.420        0.018       87.919        4.441        0.003      335.189        5.658      871.349
10/05/2013  00:09:00      -86.111       -9.624      -18.871       12.280       15.548        9.448      150.804      241.730       89.260        0.417        0.024       86.647        6.649        0.006      335.161        5.611      871.351
10/05/2013  00:10:00      -80.986       -5.790      -17.101       11.820       13.084       11.614      139.710      171.196      134.879        0.367        0.022       81.193        7.847        0.009      335.174        5.632      871.356
10/05/2013  00:11:00      -85.517      -20.824      -14.890       10.850       15.344        9.172      117.720      235.423       84.125        0.420        0.022       88.016        4.597        0.003      335.157        5.603      871.358
10/05/2013  00:12:00      -78.835      -26.509      -20.997       16.029       17.157       10.991      256.927      294.368      120.792        0.402        0.034       83.172        8.739        0.011      335.129        5.556      871.357
10/05/2013  00:13:00      -81.833      -27.284      -21.185       11.040       16.782       10.387      121.883      281.636      107.895        0.420        0.026       86.262        6.681        0.006      335.104        5.518      871.361
10/05/2013  00:14:00      -92.259      -23.642      -16.019       15.803       13.806       12.770      249.744      190.616      163.063        0.497        0.030       95.240        5.989        0.004      335.057        5.439      871.362
10/05/2013  00:15:00      -98.327      -23.306      -16.702       19.580       18.236       14.321      383.363      332.543      205.085        0.571        0.046      101.052        3.206        0.001      335.074        5.466      871.349
10/05/2013  00:16:00     -108.386      -38.599      -16.715       15.706       22.893       13.874      246.666      524.078      192.474        0.724        0.048      115.054        5.668        0.002      335.057        5.439      871.342
10/05/2013  00:17:00     -117.393      -39.435      -17.096       22.201       23.424       16.578      492.873      548.690      274.845        0.847        0.066      123.839       10.572        0.007      335.028        5.390      871.343
10/05/2013  00:18:00     -111.044      -31.591      -18.071       16.659       21.491       19.675      277.509      461.884      387.091        0.739        0.056      115.450       14.692        0.016      334.963        5.281      871.351
10/05/2013  00:19:00     -108.318      -32.215      -15.290       28.854       26.469       17.776      832.554      700.612      315.999        0.743        0.092      113.007       12.345        0.012      334.919        5.209      871.361
10/05/2013  00:20:00     -111.776      -34.331      -17.993       38.961       28.421       17.904     1517.969      807.757      320.560        0.832        0.132      116.929       16.923        0.021      334.951        5.261      871.364
10/05/2013  00:21:00      -82.385      -42.068       -8.289       46.846       28.144       27.156     2194.546      792.060      737.434        0.617        0.186       92.504       28.597        0.096      334.996        5.336      871.388
10/05/2013  00:22:00     -100.232      -31.951      -26.577       33.557       32.380       19.813     1126.090     1048.437      392.556        0.717        0.128      105.201       11.545        0.012      334.994        5.336      871.409
10/05/2013  00:23:00     -116.123      -29.789      -15.785       44.712       27.476       22.310     1999.182      754.925      497.741        0.894        0.163      119.883       19.474        0.026      334.942        5.247      871.411
10/05/2013  00:24:00      -65.028      -28.227       -7.175       53.155       26.919       25.060     2825.442      724.652      628.012        0.463        0.209       70.890       26.379        0.138      334.958        5.275      871.420
10/05/2013  00:25:00      -37.888      -37.043        4.360       36.573       26.544       24.215     1337.564      704.569      586.346        0.273        0.131       52.987       23.423        0.195      334.896        5.172      871.434
10/05/2013  00:26:00      -94.428      -32.144      -19.950       26.561       22.562       18.468      705.472      509.021      341.057        0.595        0.078       99.749       14.829        0.022      334.958        5.275      871.447
10/05/2013  00:27:00     -105.826      -24.214      -24.886       17.397       26.839       17.731      302.650      720.344      314.392        0.687        0.067      108.561       14.937        0.019      334.972        5.297      871.447
10/05/2013  00:28:00      -87.158       -6.693      -14.028       25.734       24.826       16.317      662.234      616.313      266.249        0.469        0.077       87.415       14.442        0.027      334.953        5.266      871.457
10/05/2013  00:29:00     -100.562      -31.711      -27.152       22.929       19.508       12.998      525.753      380.566      168.947        0.647        0.054      105.444       10.458        0.010      334.940        5.244      871.462
10/05/2013  00:30:00     -141.637      -21.533      -27.303       22.916       23.482       17.569      525.154      551.418      308.670        1.133        0.069      143.264       12.995        0.008      334.940        5.244      871.455
10/05/2013  00:31:00     -166.627      -17.808      -23.720       22.262       19.237       15.767      495.576      370.044      248.593        1.488        0.056      167.576        7.373        0.002      334.873        5.131      871.463
10/05/2013  00:32:00     -152.890      -37.972      -22.322       19.787       22.294       14.843      391.539      497.024      220.319        1.321        0.055      157.535        8.365        0.003      334.890        5.161      871.486
10/05/2013  00:33:00     -155.143      -45.532      -21.400       18.108       24.896       12.814      327.905      619.823      164.204        1.386        0.056      161.687        7.402        0.002      334.901        5.180      871.498
10/05/2013  00:34:00     -165.601      -30.634      -20.350       22.279       18.299       16.769      496.352      334.868      281.200        1.494        0.056      168.411        4.467        0.001      334.901        5.180      871.512
10/05/2013  00:35:00     -100.043      -45.511      -15.847       39.490       19.327       17.703     1559.492      373.531      313.413        0.729        0.112      109.908       17.261        0.025      334.876        5.137      871.525
10/05/2013  00:36:00        4.422      -23.037       19.850       32.797       27.542       21.191     1075.675      758.539      449.063        0.161        0.114       23.458       20.474        0.762      334.835        5.068      871.538
10/05/2013  00:37:00      -68.994      -47.737      -11.240       42.802       39.690       24.117     1832.027     1575.328      581.651        0.558        0.199       83.899       32.206        0.147      334.872        5.131      871.557
10/05/2013  00:38:00     -114.680      -66.692       -3.590       25.049       30.990       20.285      627.476      960.382      411.482        0.981        0.100      132.663       15.208        0.013      334.911        5.195      871.580
10/05/2013  00:39:00      -67.099      -33.866       -5.461       52.027       30.038       22.475     2706.830      902.252      505.142        0.490        0.206       75.161       20.028        0.071      334.882        5.147      871.584
10/05/2013  00:40:00     -132.796      -68.077      -14.277       28.232       33.664       20.746      797.030     1133.261      430.415        1.242        0.118      149.229       12.850        0.007      334.854        5.101      871.597
10/05/2013  00:41:00      -85.437      -60.088       -9.947       38.121       37.298       24.622     1453.226     1391.113      606.225        0.723        0.173      104.451       20.475        0.038      334.887        5.156      871.612
10/05/2013  00:42:00      -65.432      -52.815        2.822       50.213       37.880       28.741     2521.357     1434.899      826.037        0.593        0.239       84.087       22.787        0.073      334.878        5.141      871.604
10/05/2013  00:43:00     -102.621      -63.220      -12.070       43.130       28.503       19.731     1860.159      812.411      389.307        0.887        0.153      120.532        9.823        0.007      334.848        5.091      871.609
10/05/2013  00:44:00       -3.519      -17.946       11.850       39.958       45.554       26.213     1596.607     2075.130      687.114        0.242        0.218       18.288       26.989        2.178      334.742        4.914      871.620
10/05/2013  00:45:00      -73.426      -53.688       -2.527       53.925       35.154       25.742     2907.955     1235.816      662.640        0.654        0.240       90.961       28.685        0.099      334.841        5.079      871.630
10/05/2013  00:46:00     -109.971        4.584      -14.416       35.086       44.937       22.036     1231.058     2019.376      485.572        0.803        0.187      110.067       17.585        0.026      334.906        5.187      871.644
10/05/2013  00:47:00     -134.883       29.201      -15.021       49.059       43.736       24.839     2406.749     1912.871      616.989        1.210        0.247      138.008       14.709        0.011      334.909        5.192      871.669
10/05/2013  00:48:00     -104.382      -11.925       -8.567       48.348       44.234       22.612     2337.483     1956.648      511.292        0.796        0.240      105.061       22.482        0.046      334.917        5.205      871.675
10/05/2013  00:49:00      -18.347      -18.622        5.146       32.539       31.793       19.983     1058.761     1010.805      399.332        0.159        0.123       26.142       11.932        0.208      334.873        5.133      871.676
10/05/2013  00:50:00      -77.431      -45.407       -7.358       25.570       23.255       16.066      653.850      540.785      258.111        0.478        0.073       89.762        8.767        0.010      334.885        5.153      871.694
10/05/2013  00:51:00      -73.825      -39.800      -13.956       31.643       27.683       15.317     1001.277      766.375      234.621        0.462        0.100       83.870       11.418        0.019      334.939        5.243      871.688
10/05/2013  00:52:00      -74.672      -46.696      -14.637       38.906       28.780       19.501     1513.689      828.301      380.290        0.535        0.136       88.071       14.018        0.025      334.948        5.258      871.680
10/05/2013  00:53:00      -75.244      -36.676      -22.652       29.536       33.945       25.552      872.363     1152.281      652.904        0.510        0.134       83.706       12.814        0.023      334.885        5.154      871.674
10/05/2013  00:54:00      -91.964      -25.108      -17.618       16.519       23.668       15.971      272.869      560.155      255.069        0.524        0.054       95.330        7.254        0.006      334.897        5.174      871.654
10/05/2013  00:55:00      -85.112      -16.534      -17.472       18.969       13.700       11.374      359.839      187.703      129.363        0.425        0.034       86.703        6.730        0.006      334.919        5.210      871.647
10/05/2013  00:56:00      -74.686      -11.338       -9.482       19.383       17.360       18.308      375.682      301.370      335.191        0.340        0.051       75.542       13.050        0.030      334.895        5.169      871.640
10/05/2013  00:57:00      -63.355       -0.916      -10.924       14.401       16.198       11.979      207.380      262.368      143.507        0.237        0.031       63.362        9.023        0.020      335.159        5.609      871.632
10/05/2013  00:58:00      -54.688      -35.352       -7.495       14.845       26.471       15.083      220.366      700.737      227.498        0.272        0.057       65.119       11.935        0.034      335.242        5.746      871.631
10/05/2013  00:59:00      -54.596      -35.095       -7.781       21.247       16.857       21.417      451.445      284.167      458.668        0.273        0.060       64.903       16.463        0.064      335.277        5.804      871.641
10/05/2013  01:00:00      -27.150      -39.675       -4.148       17.460       18.276       16.379      304.867      334.000      268.271        0.162        0.045       48.076        6.894        0.021      335.163        5.614      871.651
10/05/2013  01:01:00      -50.578      -31.405       -9.359       22.710       16.475       14.122      515.736      271.432      199.440        0.231        0.049       59.535        7.588        0.016      335.213        5.696      871.660
10/05/2013  01:02:00      -74.818      -33.618      -12.183       11.414       11.582       10.903      130.270      134.146      118.886        0.363        0.019       82.023        5.954        0.005      334.954        5.267      871.679
10/05/2013  01:03:00      -62.921      -27.828      -14.414       14.188       17.623       10.595      201.307      310.576      112.263        0.278        0.031       68.800        5.969        0.008      334.962        5.281      871.691
10/05/2013  01:04:00      -67.944      -29.057       -8.750       12.626       16.656       14.785      159.419      277.415      218.608        0.310        0.033       73.897        9.278        0.016      334.862        5.114      871.700
10/05/2013  01:05:00      -51.733      -42.830      -15.695       21.858       18.088       15.089      477.778      327.158      227.687        0.289        0.052       67.162        9.640        0.021      334.849        5.093      871.711
10/05/2013  01:06:00      -62.624      -27.920      -18.612       20.173       18.954       13.274      406.968      359.261      176.196        0.299        0.047       68.566        7.675        0.013      335.069        5.460      871.727
10/05/2013  01:07:00      -67.145      -22.244      -12.396       15.495       13.359       10.039      240.099      178.473      100.791        0.284        0.026       70.733        3.758        0.003      334.955        5.270      871.729
10/05/2013  01:08:00      -67.197      -33.074      -14.181       13.817       12.733       13.440      190.921      162.139      180.622        0.317        0.027       74.896        8.079        0.012      335.332        5.895      871.716
10/05/2013  01:09:00      -76.146      -19.217      -14.661       13.914       12.648       10.580      193.601      159.971      111.926        0.342        0.023       78.533        4.256        0.003      334.954        5.268      871.707
10/05/2013  01:10:00      -72.789      -32.083      -11.198       17.898       16.960       10.699      320.345      287.633      114.466        0.359        0.036       79.546        7.503        0.009      335.050        5.427      871.694
10/05/2013  01:11:00      -46.989      -41.727       -5.753       18.919       14.992       15.583      357.930      224.767      242.839        0.240        0.041       62.842       11.145        0.031      335.060        5.443      871.696
10/05/2013  01:12:00      -35.222      -11.924       -7.891       17.243        9.645        9.970      297.330       93.025       99.397        0.097        0.024       37.186        5.272        0.020      335.166        5.619      871.707
10/05/2013  01:13:00      -18.244       -1.232       -2.984       16.284       12.771       10.986      265.160      163.094      120.693        0.045        0.027       18.285        8.764        0.230      335.477        6.137      871.708
10/05/2013  01:14:00        8.207       19.977        7.469       14.063       21.693        9.948      197.755      470.580       98.964        0.064        0.038       21.597       10.123        0.220      335.375        5.968      871.724
10/05/2013  01:15:00       17.474        5.762        1.305       14.617       12.423        6.710      213.652      154.341       45.028        0.038        0.021       18.399        6.412        0.121      335.235        5.735      871.742
10/05/2013  01:16:00       -0.914       26.110       -4.058        8.539        9.560        4.444       72.915       91.386       19.748        0.044        0.009       26.126        3.860        0.022      335.465        6.117      871.754
10/05/2013  01:17:00      -24.275      -11.517       -2.575       16.047        9.592       11.614      257.501       92.005      134.875        0.061        0.024       26.869        8.604        0.103      335.144        5.583      871.761
10/05/2013  01:18:00      -31.532      -32.011       -4.301       16.655       13.156        9.824      277.402      173.077       96.514        0.129        0.027       44.933        7.802        0.030      335.163        5.614      871.773
10/05/2013  01:19:00      -39.715      -26.049       -3.602       13.039       12.668       11.018      170.006      160.486      121.387        0.136        0.023       47.496        6.732        0.020      335.143        5.581      871.773
10/05/2013  01:20:00      -24.328      -33.177       -1.656       13.442       14.389       14.383      180.699      207.057      206.858        0.114        0.030       41.141        8.095        0.039      334.909        5.194      871.772
10/05/2013  01:21:00      -20.859      -28.677       -4.905       13.295        9.353        7.344      176.763       87.479       53.929        0.080        0.016       35.461        4.972        0.020      335.116        5.538      871.764
10/05/2013  01:22:00      -34.153      -20.393       -2.438       12.164       10.807        6.371      147.958      116.797       40.586        0.095        0.015       39.778        5.514        0.019      335.054        5.433      871.753
10/05/2013  01:23:00       -5.120      -36.450        3.051       14.740       24.422       16.934      217.277      596.455      286.750        0.123        0.055       36.808       12.047        0.107      335.073        5.464      871.754
10/05/2013  01:24:00       24.136       -9.272       10.996       18.572       20.097       18.012      344.935      403.894      324.415        0.093        0.054       25.856       16.694        0.417      334.915        5.204      871.759
10/05/2013  01:25:00       13.722        7.913       27.582       20.214       17.642       16.108      408.621      311.242      259.457        0.100        0.049       15.840       12.865        0.660      334.885        5.154      871.772
10/05/2013  01:26:00       40.139      -13.430       20.871       26.972       23.410       16.412      727.512      548.040      269.337        0.189        0.077       42.327       16.172        0.146      335.165        5.617      871.763
10/05/2013  01:27:00       18.832      -11.426       21.586       23.996       32.695       18.764      575.808     1068.960      352.079        0.147        0.100       22.027       21.084        0.916      335.051        5.429      871.770
10/05/2013  01:28:00       58.167      -48.818        5.026       30.683       24.155       18.384      941.426      583.483      337.982        0.383        0.093       75.938       18.780        0.061      335.251        5.760      871.774
10/05/2013  01:29:00       49.387      -58.944        6.077       21.721       21.858       15.077      471.814      477.779      227.324        0.356        0.059       76.899       11.644        0.023      335.276        5.800      871.795
10/05/2013  01:30:00       32.020      -31.887        7.831       16.823       13.711       12.765      283.002      187.998      162.955        0.137        0.032       45.189       11.936        0.070      335.217        5.703      871.812
10/05/2013  01:31:00        1.992        8.532       -0.182       19.984        9.575        6.979      399.369       91.686       48.706        0.031        0.027        8.761        2.170        0.061      335.063        5.448      871.831
10/05/2013  01:32:00        9.901        8.015       -8.255        8.804       13.277        7.333       77.513      176.271       53.769        0.027        0.015       12.739        4.935        0.150      335.392        5.992      871.842
10/05/2013  01:33:00      -26.162       18.312        1.301       16.140        9.712       10.786      260.506       94.325      116.346        0.075        0.024       31.933        7.253        0.052      335.370        5.957      871.837
10/05/2013  01:34:00      -51.747        6.671       -7.348       12.631        9.283        5.002      159.552       86.176       25.023        0.152        0.014       52.175        5.245        0.010      335.063        5.449      871.823
10/05/2013  01:35:00      -52.668      -17.011       -9.684       10.573        9.266        6.297      111.785       85.860       39.657        0.170        0.012       55.347        4.836        0.008      335.043        5.416      871.815
10/05/2013  01:36:00      -13.915      -27.704       -2.534       10.497        8.461        7.026      110.194       71.592       49.363        0.060        0.012       31.002        2.966        0.009      335.113        5.530      871.806
10/05/2013  01:37:00       21.487       10.711       -1.365       12.839       11.939        7.403      164.851      142.532       54.803        0.047        0.018       24.008        5.779        0.058      335.372        5.959      871.797
10/05/2013  01:38:00       10.316        3.800        0.586       14.157       12.760        6.606      200.421      162.815       43.633        0.026        0.020       10.994        7.604        0.478      335.322        5.877      871.792
10/05/2013  01:39:00       23.396       27.158       -0.925       11.724       13.206        7.561      137.445      174.390       57.164        0.083        0.018       35.846        5.616        0.025      335.444        6.082      871.790
10/05/2013  01:40:00       28.623       24.912        2.283       11.091       14.635       11.033      122.999      214.184      121.733        0.095        0.023       37.946       10.387        0.075      335.350        5.924      871.789
10/05/2013  01:41:00       10.166        8.689        0.125       14.740       17.777       11.021      217.253      316.022      121.461        0.042        0.033       13.373       10.110        0.572      335.184        5.649      871.798
10/05/2013  01:42:00       16.925       12.191        2.855       17.423       12.258        8.883      303.557      150.249       78.900        0.049        0.027       20.859        5.783        0.077      335.115        5.536      871.819
10/05/2013  01:43:00        9.767       22.916        0.377       10.861       16.174       10.037      117.965      261.599      100.744        0.055        0.024       24.911        9.898        0.158      335.099        5.509      871.828
10/05/2013  01:44:00        8.249       83.246       -9.172        9.838       16.283        6.232       96.784      265.123       38.832        0.374        0.020       83.654        4.465        0.003      335.251        5.759      871.834
10/05/2013  01:45:00       -1.072      139.667      -18.557        9.998       21.719        7.642       99.966      471.718       58.395        1.024        0.032      139.671        7.897        0.003      335.230        5.723      871.841
10/05/2013  01:46:00      -17.111      174.871      -21.519       11.639       16.032       11.696      135.464      257.012      136.786        1.593        0.026      175.706        3.261        0.000      335.241        5.742      871.843
10/05/2013  01:47:00      -34.247      159.698      -30.231       16.672       19.431       10.171      277.967      377.569      103.459        1.417        0.038      163.329        6.175        0.001      335.267        5.788      871.842
10/05/2013  01:48:00      -24.582      129.591      -22.863       16.512       20.142       13.456      272.655      405.704      181.062        0.939        0.043      131.902        9.101        0.005      335.333        5.898      871.831
10/05/2013  01:49:00      -12.717      118.017      -14.843       13.443       17.249        9.396      180.711      297.512       88.292        0.744        0.028      118.700        5.452        0.002      335.433        6.063      871.808
10/05/2013  01:50:00       -5.792      122.035      -16.665       11.627       15.521        8.925      135.180      240.890       79.651        0.783        0.023      122.172        6.926        0.003      335.391        5.992      871.781
10/05/2013  01:51:00       -6.459      135.003      -16.624       13.248       16.084       10.278      175.502      258.688      105.645        0.954        0.027      135.157        8.371        0.004      335.523        6.214      871.763
10/05/2013  01:52:00       -2.763      105.061      -15.311       13.851       16.949        8.131      191.858      287.274       66.120        0.591        0.027      105.098        6.807        0.004      335.616        6.368      871.763
10/05/2013  01:53:00       -4.589       77.636       -8.091       10.338       13.584        9.274      106.868      184.512       86.012        0.325        0.019       77.771        3.943        0.003      335.704        6.515      871.783
10/05/2013  01:54:00      -42.798       -9.447        0.377       19.729       32.357       16.605      389.229     1046.987      275.727        0.182        0.086       43.828       12.342        0.079      334.823        5.050      871.809
10/05/2013  01:55:00      -78.240      -17.133      -15.797        9.178       12.852        8.478       84.243      165.178       71.883        0.349        0.016       80.093        4.940        0.004      334.609        4.692      871.834
10/05/2013  01:56:00      -95.945      -34.617      -16.250       15.628        8.996        7.992      244.224       80.930       63.871        0.553        0.019      101.999        5.284        0.003      334.562        4.617      871.861
10/05/2013  01:57:00     -122.536      -23.551      -17.296       13.920       12.937       10.670      193.763      167.366      113.853        0.817        0.024      124.778        4.732        0.001      334.555        4.603      871.874
10/05/2013  01:58:00      -85.364      -18.012      -14.704       15.276       12.764       10.632      233.364      162.915      113.036        0.417        0.025       87.244        6.510        0.006      334.547        4.590      871.876
10/05/2013  01:59:00      -69.411      -25.803      -11.439        9.856        7.462        8.353       97.146       55.683       69.767        0.292        0.011       74.052        2.344        0.001      334.614        4.700      871.872
10/05/2013  02:00:00      -61.487      -23.590       -8.202       20.814       14.183       12.413      433.234      201.150      154.079        0.260        0.039       65.857       13.977        0.045      334.619        4.712      871.847
10/05/2013  02:01:00      -53.374      -17.415       -8.339       10.298       15.837        7.229      106.058      250.810       52.259        0.182        0.020       56.143        6.168        0.012      334.757        4.940      871.814
10/05/2013  02:02:00      -20.288      -17.089       -6.464       12.989        4.941        4.708      168.718       24.411       22.166        0.048        0.011       26.526        5.701        0.046      334.925        5.219      871.786
10/05/2013  02:03:00        3.491       -9.371       -4.670        9.304       13.811        7.624       86.572      190.749       58.131        0.023        0.017       10.000        7.116        0.506      335.066        5.452      871.777
10/05/2013  02:04:00       10.589       -6.041        3.928        5.418        9.488        7.741       29.356       90.025       59.919        0.017        0.009       12.192        2.648        0.047      334.961        5.280      871.770
10/05/2013  02:05:00       -0.915        0.542        3.884        6.886       10.786        5.448       47.422      116.340       29.676        0.010        0.010        1.063        4.511       18.006      334.885        5.154      871.773
10/05/2013  02:06:00        9.590       26.585        5.149       21.073       20.423        6.856      444.069      417.117       47.001        0.087        0.045       28.262        9.150        0.105      334.939        5.244      871.786
10/05/2013  02:07:00       32.904       24.340        4.749       15.358       12.015       11.005      235.881      144.358      121.112        0.110        0.025       40.929        8.146        0.040      335.120        5.544      871.794
10/05/2013  02:08:00       16.287       22.372        1.059       13.047       11.131        8.152      170.227      123.910       66.449        0.056        0.018       27.673        6.099        0.049      335.350        5.925      871.806
10/05/2013  02:09:00      -29.445       16.143       -7.234       15.297       10.550       10.553      233.994      111.305      111.367        0.082        0.023       33.580       11.033        0.108      335.054        5.434      871.819
10/05/2013  02:10:00      -57.846       26.809       -7.943       15.587       14.632        9.513      242.940      214.084       90.505        0.234        0.027       63.756        8.279        0.017      334.734        4.902      871.815
10/05/2013  02:11:00      -60.233       12.338       -3.561        9.950       25.739       13.985       99.004      662.502      195.585        0.237        0.048       61.483       10.170        0.027      334.665        4.787      871.807
10/05/2013  02:12:00      -56.990      -18.273       -9.284        9.374        9.483        9.411       87.871       89.926       88.573        0.197        0.013       59.848        4.773        0.006      334.305        4.191      871.801
10/05/2013  02:13:00      -46.203      -13.204       -7.691       18.102       15.889       10.200      327.678      252.467      104.048        0.153        0.034       48.053        3.766        0.006      334.358        4.278      871.790
10/05/2013  02:14:00      -40.947       -1.037       -6.887       17.913       12.689       10.063      320.865      161.001      101.267        0.115        0.029       40.960       10.679        0.068      334.407        4.359      871.781
10/05/2013  02:15:00      -19.079       -6.038       -6.317       16.400       18.325        9.861      268.962      335.809       97.234        0.057        0.035       20.012        7.723        0.149      334.475        4.473      871.781
10/05/2013  02:16:00      -42.159      -17.932       -7.280       21.836       16.620        9.461      476.792      276.230       89.513        0.150        0.042       45.814        9.311        0.041      334.424        4.388      871.794
10/05/2013  02:17:00      -81.671      -15.996      -13.077       16.817       15.865        9.719      282.825      251.700       94.466        0.386        0.031       83.223        5.539        0.004      334.136        3.909      871.803
10/05/2013  02:18:00      -71.743      -14.146       -4.398       23.666       29.076       15.808      560.058      845.395      249.885        0.351        0.083       73.124       11.159        0.023      334.075        3.810      871.819
10/05/2013  02:19:00      -70.001       -3.920      -11.460       24.739       23.091       18.117      612.005      533.174      328.213        0.326        0.074       70.111       12.167        0.030      334.041        3.752      871.844
10/05/2013  02:20:00     -102.065       10.897      -14.384       26.176       20.445       16.839      685.178      418.001      283.540        0.606        0.069      102.645       13.527        0.017      334.087        3.828      871.880
10/05/2013  02:21:00      -74.797       11.851      -15.297       18.801       18.751       14.722      353.462      351.611      216.737        0.345        0.046       75.730       11.812        0.024      334.175        3.975      871.902
10/05/2013  02:22:00      -63.105       40.198      -18.728       16.128       21.542       12.379      260.119      464.058      153.239        0.341        0.044       74.821        9.664        0.017      334.583        4.651      871.905
10/05/2013  02:23:00      -37.154        0.830       -4.296       17.582       16.759       10.465      309.125      280.848      109.522        0.105        0.035       37.163       11.341        0.093      334.486        4.492      871.908
10/05/2013  02:24:00      -43.393      -14.247       -8.477       16.060       12.008       10.413      257.909      144.193      108.432        0.133        0.026       45.672        6.809        0.022      334.420        4.381      871.892
10/05/2013  02:25:00      -46.521        4.745       -8.730       23.753       15.905       12.776      564.185      252.980      163.214        0.162        0.049       46.763       13.866        0.088      334.651        4.765      871.864
10/05/2013  02:26:00      -37.831       26.110       -0.869       19.757       26.508       11.652      390.320      702.679      135.758        0.167        0.061       45.967       13.874        0.091      334.642        4.749      871.848
10/05/2013  02:27:00      -25.451       50.297       -4.924       18.562       27.554       11.797      344.544      759.225      139.170        0.222        0.062       56.370        9.902        0.031      334.912        5.198      871.837
10/05/2013  02:28:00       -3.407       65.020        1.951       18.802       27.069       13.467      353.507      732.735      181.353        0.276        0.063       65.109       11.372        0.031      335.059        5.442      871.817
10/05/2013  02:29:00       -8.795      126.881       -6.737       19.203       20.652       14.111      368.772      426.513      199.131        0.861        0.050      127.185        9.749        0.006      335.180        5.643      871.797
10/05/2013  02:30:00      -36.308       82.621       -9.002       27.548       52.756       20.922      758.872     2783.228      437.738        0.610        0.199       90.247       12.918        0.020      335.102        5.512      871.795
10/05/2013  02:31:00      -37.860       42.478       -7.934       21.243       36.476       12.589      451.276     1330.465      158.477        0.262        0.097       56.901        9.179        0.026      334.956        5.271      871.812
10/05/2013  02:32:00      -38.048       26.784       -9.418       23.125       31.027       13.828      534.752      962.705      191.203        0.197        0.084       46.530       11.173        0.058      334.825        5.054      871.830
10/05/2013  02:33:00      -38.356       58.511      -11.717       21.599       22.090       12.690      466.525      487.956      161.033        0.307        0.056       69.962       10.099        0.021      335.014        5.367      871.840
10/05/2013  02:34:00      -50.854       12.756       -8.033       16.296       22.859       12.508      265.556      522.518      156.449        0.188        0.047       52.430        6.765        0.017      334.711        4.863      871.852
10/05/2013  02:35:00      -57.429       37.518       -9.693       17.396       33.133       16.941      302.605     1097.793      287.006        0.324        0.084       68.598       16.191        0.056      334.886        5.155      871.852
10/05/2013  02:36:00      -41.610       49.718      -13.864       21.693       35.071       13.573      470.605     1229.981      184.236        0.314        0.094       64.833        9.583        0.022      334.819        5.043      871.851
10/05/2013  02:37:00      -43.925       73.381      -10.510       21.015       29.700       13.931      441.651      882.108      194.065        0.447        0.076       85.523       13.757        0.026      335.218        5.707      871.849
10/05/2013  02:38:00      -11.963       91.431      -10.289       25.798       31.473       14.043      665.515      990.525      197.198        0.523        0.093       92.210       14.599        0.025      335.348        5.922      871.845
10/05/2013  02:39:00      -25.571      117.617      -13.702       25.836       30.796       13.008      667.507      948.419      169.210        0.823        0.089      120.364       10.064        0.007      335.413        6.031      871.829
10/05/2013  02:40:00      -22.491       31.144       -7.677       25.544       51.669       13.606      652.475     2669.697      185.137        0.252        0.175       38.416       16.671        0.188      335.167        5.621      871.831
10/05/2013  02:41:00      -26.487        3.532       -7.180       14.922       13.227       12.168      222.677      174.963      148.068        0.066        0.027       26.721        6.517        0.059      334.712        4.866      871.840
10/05/2013  02:42:00      -49.941       23.986       -9.379       31.192       31.773       11.958      972.930     1009.512      142.984        0.264        0.106       55.403        9.225        0.028      334.962        5.282      871.841
10/05/2013  02:43:00      -49.918       -3.765      -10.284       12.500       12.507        9.676      156.242      156.427       93.629        0.151        0.020       50.060        5.835        0.014      334.369        4.296      871.841
10/05/2013  02:44:00      -68.176      -12.775      -15.485        8.163       11.109        9.255       66.640      123.413       85.658        0.266        0.014       69.363        5.857        0.007      334.202        4.019      871.851
10/05/2013  02:45:00      -85.175      -13.980      -19.265        9.900       16.176        8.667       98.009      261.652       75.125        0.413        0.022       86.315        5.138        0.004      334.145        3.925      871.868
10/05/2013  02:46:00      -74.610      -39.753      -19.434       24.426       21.249       12.101      596.624      451.538      146.433        0.436        0.060       84.540        7.020        0.007      334.147        3.928      871.871
10/05/2013  02:47:00     -108.885      -23.612      -20.670       24.978       26.125       20.204      623.925      682.508      408.193        0.728        0.086      111.416       15.369        0.019      334.085        3.825      871.866
10/05/2013  02:48:00      -84.095      -15.787      -12.944       18.437       21.297       16.155      339.929      453.569      260.974        0.427        0.053       85.564        6.765        0.006      334.098        3.847      871.860
10/05/2013  02:49:00     -102.338       -4.848      -12.736       39.826       24.610       19.801     1586.101      605.631      392.083        0.662        0.129      102.453       21.014        0.042      334.073        3.805      871.856
10/05/2013  02:50:00      -68.125      -26.750      -14.326       27.319       24.947       16.709      746.326      622.347      279.190        0.360        0.082       73.189       13.757        0.035      334.050        3.767      871.871
10/05/2013  02:51:00      -73.663      -17.484      -16.918       13.514       13.153       10.260      182.635      173.006      105.275        0.324        0.023       75.709        6.762        0.008      334.238        4.079      871.894
10/05/2013  02:52:00      -98.662      -25.860      -18.195       21.388       15.337       12.203      457.439      235.211      148.923        0.579        0.042      101.995        8.481        0.007      334.393        4.336      871.904
10/05/2013  02:53:00     -105.584      -34.714      -18.061       21.002       29.751       15.160      441.068      885.119      229.828        0.712        0.078      111.144       13.254        0.014      334.237        4.078      871.904
10/05/2013  02:54:00      -88.979      -36.403      -15.295       22.193       21.164       15.352      492.516      447.911      235.698        0.533        0.059       96.137        6.447        0.004      334.147        3.927      871.910
10/05/2013  02:55:00      -95.883       -5.758      -18.193       23.907       22.266       15.801      571.561      495.795      249.662        0.544        0.066       96.056       11.776        0.015      334.165        3.958      871.933
10/05/2013  02:56:00      -82.367      -35.493      -14.299       13.707       15.483       14.983      187.873      239.734      224.502        0.445        0.033       89.688        3.771        0.002      334.304        4.189      871.938
10/05/2013  02:57:00      -95.840      -25.340      -19.487       18.806       19.882       12.049      353.655      395.276      145.173        0.555        0.045       99.134        7.661        0.006      334.323        4.220      871.936
10/05/2013  02:58:00      -86.874      -19.756      -11.170       15.481       17.383       10.916      239.671      302.153      119.152        0.436        0.033       89.092        5.215        0.003      334.291        4.167      871.952
10/05/2013  02:59:00      -61.873       -4.804       -8.089       21.926       11.354       10.759      480.764      128.917      115.750        0.232        0.036       62.059        9.971        0.026      334.764        4.951      871.961
10/05/2013  03:00:00      -35.987       29.754      -10.976       42.510       46.845       12.539     1807.074     2194.471      157.235        0.323        0.208       46.695        3.398        0.005      335.219        5.709      871.952
10/05/2013  03:01:00      -52.199      -29.109        2.891       25.419       19.906       21.066      646.120      396.244      443.775        0.253        0.074       59.767       14.463        0.059      334.671        4.798      871.948
10/05/2013  03:02:00      -67.790      -36.270      -16.701       10.581       17.706        8.149      111.964      313.491       66.410        0.334        0.025       76.883        6.390        0.007      334.328        4.229      871.967
10/05/2013  03:03:00      -83.429        2.159      -13.000        9.436       12.272        9.123       89.031      150.590       83.237        0.373        0.016       83.457        3.645        0.002      334.702        4.848      871.964
10/05/2013  03:04:00      -54.240        8.388        2.786       24.305       23.598       17.693      590.737      556.888      313.038        0.224        0.073       54.885       11.027        0.040      334.820        5.045      871.965
10/05/2013  03:05:00      -46.664       -8.042       -9.697       22.618       18.736        8.980      511.583      351.023       80.647        0.164        0.047       47.352        9.373        0.039      334.553        4.602      871.971
10/05/2013  03:06:00      -27.845       -8.202       -5.414       14.038       21.439        8.738      197.067      459.651       76.354        0.080        0.037       29.028        7.613        0.069      334.979        5.308      871.980
10/05/2013  03:07:00      -34.259      -11.191       -2.682       12.582       10.292        8.237      158.305      105.928       67.847        0.082        0.017       36.041        6.342        0.031      334.984        5.317      871.988
10/05/2013  03:08:00      -29.542       -1.407       -3.204       25.552       11.655       11.508      652.881      135.844      132.440        0.090        0.046       29.575       13.110        0.196      335.048        5.424      871.987
10/05/2013  03:09:00      -48.333      -36.544       -5.599       21.121       13.906       13.159      446.110      193.372      173.169        0.226        0.041       60.593        6.182        0.010      334.630        4.729      871.986
10/05/2013  03:10:00      -67.951      -32.621      -19.420       10.579       13.037        9.495      111.920      169.965       90.157        0.322        0.019       75.375        5.431        0.005      334.439        4.411      871.982
10/05/2013  03:11:00      -33.883       -3.027       -9.742       41.042       22.484       16.970     1684.466      505.508      287.967        0.186        0.124       34.018        6.774        0.040      334.773        4.967      871.981
10/05/2013  03:12:00      -44.945        7.489       -2.087       34.645       33.020       19.480     1200.285     1090.338      379.489        0.237        0.134       45.565       13.273        0.085      335.040        5.411      871.973
10/05/2013  03:13:00      -78.310      -20.942       -4.953       22.623       36.514       16.646      511.819     1333.282      277.101        0.436        0.106       81.062       15.573        0.037      334.756        4.940      871.957
10/05/2013  03:14:00      -64.632      -41.087      -19.133       14.190       15.408        9.300      201.366      237.395       86.484        0.338        0.026       76.586        4.752        0.004      334.371        4.300      871.956
10/05/2013  03:15:00      -66.991      -32.200      -16.021       16.830       13.459        8.846      283.255      181.155       78.250        0.316        0.027       74.328        2.683        0.001      334.429        4.396      871.959
10/05/2013  03:16:00      -91.067       -8.824      -20.108       16.850       15.325       10.813      283.921      234.865      116.911        0.471        0.032       91.493        9.878        0.012      334.596        4.673      871.961
10/05/2013  03:17:00      -98.946       -4.511      -25.290       13.773       16.309       12.576      189.705      265.993      158.166        0.553        0.031       99.049        8.679        0.008      334.537        4.576      871.967
10/05/2013  03:18:00      -91.483       -2.328      -22.950       10.782       14.977       12.061      116.247      224.304      145.471        0.469        0.024       91.512        6.608        0.005      334.509        4.529      871.967
10/05/2013  03:19:00     -115.626        6.035      -22.130       13.127       12.187       10.827      172.320      148.518      117.213        0.717        0.022      115.783        5.657        0.002      334.451        4.433      871.956
10/05/2013  03:20:00     -101.185       -7.954      -16.887       19.534       16.665       13.901      381.567      277.714      193.229        0.572        0.043      101.497       12.970        0.016      334.428        4.393      871.944
10/05/2013  03:21:00      -84.176      -30.625      -15.038       19.362       21.076       18.085      374.875      444.190      327.084        0.470        0.057       89.574       11.479        0.016      334.480        4.481      871.929
10/05/2013  03:22:00      -82.602      -33.643      -23.006       16.296       20.188       12.582      265.558      407.543      158.315        0.466        0.042       89.190        5.528        0.004      334.388        4.329      871.914
10/05/2013  03:23:00      -95.220      -25.094      -22.063       12.428       14.271        9.962      154.460      203.652       99.247        0.532        0.023       98.471        6.883        0.005      334.362        4.284      871.903
10/05/2013  03:24:00      -97.347      -31.535      -16.473       12.332       16.850       12.697      152.082      283.929      161.219        0.567        0.030      102.327        7.003        0.005      334.336        4.242      871.898
10/05/2013  03:25:00     -101.838      -34.622      -16.561       15.458       26.244       18.842      238.938      688.767      355.029        0.656        0.064      107.562       14.260        0.018      334.351        4.266      871.893
10/05/2013  03:26:00     -112.226      -34.862      -22.511       20.247       26.679       17.294      409.927      711.793      299.082        0.787        0.071      117.517       11.076        0.009      334.365        4.289      871.903
10/05/2013  03:27:00     -112.748      -38.095      -28.014       18.038       22.330       15.729      325.374      498.612      247.414        0.801        0.054      119.010        7.404        0.004      334.344        4.255      871.903
10/05/2013  03:28:00      -92.856      -55.197      -12.919       34.688       30.262       21.171     1203.281      915.784      448.211        0.720        0.128      108.023       13.338        0.015      334.390        4.331      871.902
10/05/2013  03:29:00      -96.125      -28.041      -13.471       23.273       19.613       21.742      541.625      384.652      472.732        0.580        0.070      100.132       12.638        0.016      334.366        4.292      871.908
10/05/2013  03:30:00      -92.791      -30.126      -21.212       31.557       24.965       19.297      995.842      623.272      372.369        0.598        0.100       97.559       17.669        0.033      334.306        4.193      871.920
10/05/2013  03:31:00      -98.200      -22.746      -21.788       28.083       24.287       24.627      788.663      589.870      606.490        0.631        0.099      100.800       17.768        0.031      334.375        4.307      871.931
10/05/2013  03:32:00     -117.412      -21.105      -30.632       21.209       28.544       16.202      449.833      814.786      262.490        0.835        0.076      119.294       13.491        0.013      334.422        4.386      871.937
10/05/2013  03:33:00     -109.412      -10.861      -28.392       27.748       25.090       16.269      769.956      629.508      264.687        0.728        0.083      109.950       12.718        0.013      334.576        4.639      871.933
10/05/2013  03:34:00     -112.415       -9.185      -29.046       18.487       25.695       18.449      341.751      660.250      340.369        0.745        0.067      112.789       14.022        0.015      334.497        4.510      871.924
10/05/2013  03:35:00     -125.483      -20.181      -20.178       22.214       29.305       18.108      493.478      858.760      327.916        0.912        0.084      127.096       12.494        0.010      334.389        4.328      871.920
10/05/2013  03:36:00     -138.539      -15.489      -22.728       21.161       27.122       17.793      447.783      735.610      316.602        1.072        0.075      139.402       11.651        0.007      334.379        4.313      871.926
10/05/2013  03:37:00     -141.116      -35.958      -21.379       31.997       31.668       26.303     1023.832     1002.858      691.830        1.219        0.136      145.625       21.389        0.022      334.271        4.132      871.926
10/05/2013  03:38:00     -149.688      -21.630      -31.083       30.702       29.427       19.803      942.608      865.968      392.173        1.302        0.110      151.243        8.954        0.004      334.261        4.116      871.924
10/05/2013  03:39:00      -97.066      -56.958      -20.675       38.651       41.099       31.281     1493.890     1689.155      978.514        0.863        0.208      112.544       21.524        0.037      334.231        4.067      871.932
10/05/2013  03:40:00      -76.024      -43.012       -6.310       35.765       41.500       25.044     1279.103     1722.213      627.195        0.565        0.181       87.348       18.024        0.043      334.213        4.037      871.933
10/05/2013  03:41:00     -121.321      -14.710      -21.187       36.313       24.632       22.042     1318.655      606.757      485.871        0.890        0.121      122.210       15.144        0.015      334.234        4.072      871.918
10/05/2013  03:42:00      -97.501      -22.375      -18.569       44.826       35.480       27.619     2009.348     1258.832      762.784        0.719        0.202      100.035       21.140        0.045      334.245        4.092      871.907
10/05/2013  03:43:00     -142.690      -23.690      -15.223       61.614       35.053       27.702     3796.342     1228.723      767.381        1.347        0.290      144.643       19.922        0.019      334.201        4.016      871.902
10/05/2013  03:44:00     -117.760      -51.080       -4.871       56.907       46.632       27.835     3238.365     2174.523      774.808        1.134        0.309      128.361       26.351        0.042      334.160        3.948      871.902
10/05/2013  03:45:00     -142.557      -44.055       -7.380       50.466       48.305       28.551     2546.784     2333.369      815.188        1.401        0.285      149.209       24.101        0.026      334.205        4.023      871.913
10/05/2013  03:46:00     -115.600      -46.333        3.443       55.837       45.931       24.165     3117.767     2109.654      583.957        1.067        0.291      124.539       24.307        0.038      334.244        4.087      871.927
10/05/2013  03:47:00     -120.764      -31.469      -11.104       59.707       39.962       27.894     3564.952     1596.996      778.080        1.082        0.297      124.797       28.238        0.051      334.288        4.164      871.960
10/05/2013  03:48:00     -103.301      -41.827       -5.688       40.699       37.596       22.638     1656.439     1413.467      512.472        0.802        0.179      111.448       12.988        0.014      334.267        4.127      871.983
10/05/2013  03:49:00      -42.392      -31.558      -10.453       37.527       30.028       27.404     1408.288      901.661      750.973        0.298        0.153       52.849       23.447        0.197      334.196        4.010      871.984
10/05/2013  03:50:00      -99.562      -52.393      -25.195       29.523       27.176       18.051      871.619      738.523      325.826        0.761        0.097      112.506       13.106        0.014      334.204        4.023      871.988
10/05/2013  03:51:00      -95.662      -52.242       -9.872       34.775       46.877       27.083     1209.269     2197.421      733.471        0.806        0.207      108.998       16.725        0.024      334.209        4.031      871.996
10/05/2013  03:52:00     -101.582      -37.285      -14.057       35.512       43.137       29.657     1261.122     1860.759      879.543        0.795        0.200      108.208       19.108        0.031      334.207        4.028      871.993
10/05/2013  03:53:00     -139.663      -43.276      -27.133       21.327       30.715       20.564      454.845      943.416      422.893        1.197        0.091      146.214       14.828        0.010      334.206        4.026      871.984
10/05/2013  03:54:00     -111.695      -56.851      -23.419       31.788       27.502       21.692     1010.474      756.370      470.541        0.925        0.112      125.331       15.341        0.015      334.300        4.181      871.995
10/05/2013  03:55:00     -115.575      -42.810       -7.257       25.630       38.521       22.484      656.879     1483.896      505.539        0.894        0.132      123.249       15.773        0.016      334.246        4.091      872.005
10/05/2013  03:56:00     -117.932      -48.401      -25.082       33.436       33.957       21.943     1117.989     1153.092      481.502        0.982        0.138      127.478       19.123        0.023      334.246        4.092      872.016
10/05/2013  03:57:00     -116.597      -47.826      -18.671       22.859       28.889       17.732      522.511      834.595      314.441        0.895        0.084      126.025        9.709        0.006      334.172        3.969      872.033
10/05/2013  03:58:00     -137.566      -23.676      -21.759       28.029       31.057       17.074      785.635      964.508      291.525        1.100        0.102      139.588       15.640        0.013      334.164        3.955      872.053
10/05/2013  03:59:00     -133.403      -32.596      -10.290       38.582       22.649       25.630     1488.587      512.972      656.882        1.081        0.133      137.327       25.296        0.034      334.102        3.853      872.070
10/05/2013  04:00:00     -138.548      -12.486      -19.528       27.048       25.341       14.219      731.577      642.173      202.175        1.065        0.079      139.109       11.752        0.007      334.132        3.903      872.075
10/05/2013  04:01:00     -109.176      -26.360      -14.919       22.926       20.804       18.996      525.582      432.789      360.861        0.708        0.066      112.314       15.235        0.018      334.126        3.892      872.075
10/05/2013  04:02:00     -108.317      -20.442      -19.632       28.283       24.575       14.019      799.921      603.922      196.519        0.707        0.080      110.229       12.444        0.013      334.113        3.871      872.084
10/05/2013  04:03:00      -85.603      -19.505      -12.829       18.735       19.127       14.903      351.012      365.854      222.105        0.441        0.047       87.797       14.446        0.027      334.145        3.922      872.107
10/05/2013  04:04:00      -88.120      -24.494      -13.962       16.571       19.545       12.337      274.597      382.009      152.199        0.468        0.040       91.461        8.447        0.009      334.189        3.998      872.123
10/05/2013  04:05:00      -75.138      -17.153       -8.612       17.117       18.549       11.822      292.988      344.067      139.752        0.340        0.039       77.071       10.001        0.017      334.189        3.998      872.140
10/05/2013  04:06:00      -70.650      -23.402      -14.720       16.410       18.029       10.340      269.284      325.054      106.922        0.323        0.035       74.425        7.490        0.010      334.198        4.010      872.147
10/05/2013  04:07:00      -69.851      -21.078      -13.573       13.920       19.745        8.441      193.767      389.872       71.258        0.308        0.033       72.962        6.373        0.008      334.249        4.097      872.148
10/05/2013  04:08:00      -70.843      -31.399      -10.931       11.146       16.643       11.490      124.235      276.983      132.010        0.333        0.027       77.490        5.776        0.006      334.347        4.260      872.154
10/05/2013  04:09:00      -53.014      -44.558      -11.745       18.100       17.493       16.930      327.599      306.019      286.625        0.293        0.046       69.252        8.877        0.016      334.525        4.556      872.157
10/05/2013  04:10:00      -52.649      -32.047      -16.370       15.294       19.843       13.409      233.899      393.731      179.814        0.244        0.040       61.636        9.301        0.023      334.791        4.998      872.160
10/05/2013  04:11:00      -52.378      -23.178      -12.816       12.878       17.282       12.905      165.845      298.678      166.531        0.204        0.032       57.277       12.325        0.046      334.448        4.428      872.159
10/05/2013  04:12:00      -37.944       -3.449      -10.398       13.817       13.422       17.790      190.900      180.155      316.493        0.112        0.034       38.100       11.284        0.088      334.743        4.917      872.154
10/05/2013  04:13:00      -35.981       38.561      -11.787       23.194       23.409       11.625      537.947      547.970      135.149        0.207        0.061       52.741        9.975        0.036      334.961        5.279      872.150
10/05/2013  04:14:00      -39.479       74.114      -10.487       27.541       38.011       14.861      758.530     1444.858      220.850        0.479        0.121       83.974       16.188        0.037      335.235        5.735      872.141
10/05/2013  04:15:00      -48.614       92.894      -14.658       22.472       34.966       14.905      505.000     1222.637      222.172        0.658        0.097      104.846       14.082        0.018      335.228        5.725      872.130
10/05/2013  04:16:00      -46.366       61.237      -11.272       21.361       38.006       15.458      456.284     1444.439      238.935        0.408        0.107       76.810       14.123        0.034      335.062        5.447      872.108
10/05/2013  04:17:00      -48.965       34.141       -5.524       20.346       41.624       15.937      413.949     1732.550      253.981        0.300        0.120       59.692       17.928        0.090      334.813        5.034      872.104
10/05/2013  04:18:00      -46.249       33.358       -9.380       26.210       35.032       16.888      686.981     1227.251      285.195        0.277        0.110       57.024        9.056        0.025      334.773        4.968      872.103
10/05/2013  04:19:00      -45.309      107.681      -17.321       25.204       38.170       21.651      635.261     1456.985      468.768        0.825        0.128      116.825       17.946        0.024      335.248        5.757      872.095
10/05/2013  04:20:00      -44.998      111.603      -16.704       31.869       40.759       20.798     1015.630     1661.261      432.538        0.893        0.155      120.333       20.116        0.028      335.203        5.681      872.097
10/05/2013  04:21:00      -58.401       79.099      -18.197       30.653       36.313       18.168      939.580     1318.642      330.060        0.629        0.129       98.323       12.753        0.017      335.029        5.394      872.105
10/05/2013  04:22:00      -31.279       61.116       -2.531       28.162       38.125       19.250      793.122     1453.497      370.555        0.367        0.131       68.656       18.889        0.076      334.991        5.329      872.104
10/05/2013  04:23:00      -35.515       51.228       -6.741       31.005       62.164       28.257      961.283     3864.346      798.468        0.478        0.281       62.335       27.212        0.191      334.970        5.296      872.094
10/05/2013  04:24:00      -41.631      106.347      -13.953       28.187       36.062       25.842      794.524     1300.477      667.834        0.800        0.138      114.205       23.958        0.044      335.276        5.802      872.088
10/05/2013  04:25:00      -26.023      104.281       -5.038       26.935       43.741       22.685      725.496     1913.254      514.603        0.736        0.158      107.479       26.139        0.059      335.048        5.423      872.078
10/05/2013  04:26:00      -17.332      128.369      -11.363       23.130       35.959       12.904      535.017     1293.036      166.525        0.945        0.100      129.533       13.387        0.011      335.186        5.653      872.074
10/05/2013  04:27:00      -20.724      104.363      -11.235       24.297       34.894       15.193      590.359     1217.624      230.829        0.674        0.102      106.401       13.164        0.015      335.155        5.602      872.080
10/05/2013  04:28:00       -8.360      120.774      -15.170       18.600       16.191       10.489      345.944      262.153      110.015        0.780        0.036      121.063        7.644        0.004      335.268        5.788      872.087
10/05/2013  04:29:00      -10.229      107.027      -17.163       16.731       16.866       11.221      279.942      284.448      125.908        0.627        0.035      107.515        8.254        0.006      335.332        5.894      872.095
10/05/2013  04:30:00      -12.395       88.603      -16.199       28.851       25.409       14.675      832.381      645.624      215.369        0.498        0.085       89.465        6.072        0.005      335.218        5.705      872.097
10/05/2013  04:31:00      -20.013       74.289      -14.283       20.050       38.277       14.589      401.999     1465.133      212.826        0.410        0.104       76.937        5.732        0.006      335.261        5.777      872.092
10/05/2013  04:32:00      -23.169       63.129      -15.093       24.724       33.102       11.963      611.259     1095.735      143.109        0.330        0.093       67.246        9.656        0.021      335.170        5.627      872.085
10/05/2013  04:33:00      -27.378      -12.712        5.177       23.144       20.705       12.160      535.634      428.683      147.858        0.102        0.056       30.186       10.052        0.111      334.903        5.183      872.076
10/05/2013  04:34:00      -33.350      -36.626       -4.534       15.782       16.828       14.570      249.057      283.194      212.280        0.161        0.037       49.535       10.147        0.042      334.354        4.273      872.073
10/05/2013  04:35:00      -66.617      -45.211      -10.652       14.520       11.509        7.655      210.817      132.458       58.592        0.350        0.020       80.510        3.811        0.002      334.199        4.015      872.073
10/05/2013  04:36:00      -76.066      -41.352      -14.892       13.124       13.612        9.418      172.232      185.283       88.707        0.408        0.022       86.579        5.615        0.004      334.101        3.850      872.078
10/05/2013  04:37:00     -107.705      -21.815      -20.261        8.015       10.177        7.174       64.238      103.571       51.471        0.635        0.011      109.892        5.646        0.003      334.151        3.935      872.085
10/05/2013  04:38:00      -77.662      -41.297       -5.272       29.384       13.706       13.924      863.392      187.845      193.869        0.450        0.062       87.959       14.914        0.029      334.078        3.814      872.080
10/05/2013  04:39:00      -77.327      -57.272       -4.211       28.737       20.986       16.308      825.836      440.414      265.943        0.540        0.077       96.227       10.138        0.011      334.154        3.939      872.071
10/05/2013  04:40:00      -85.820      -40.484        6.130       30.772       25.393       19.608      946.900      644.810      384.492        0.551        0.099       94.890       20.303        0.046      334.085        3.827      872.074
10/05/2013  04:41:00      -79.741      -54.596        5.536       44.277       27.804       21.929     1960.451      773.062      480.861        0.629        0.161       96.640       22.574        0.055      334.096        3.843      872.086
10/05/2013  04:42:00      -81.233      -42.888        1.381       44.001       27.599       19.538     1936.122      761.726      381.748        0.576        0.154       91.860       16.199        0.031      334.213        4.037      872.105
10/05/2013  04:43:00      -71.558      -56.354        4.974       44.266       43.051       22.442     1959.447     1853.416      503.642        0.632        0.216       91.084       23.408        0.066      334.115        3.876      872.103
10/05/2013  04:44:00      -47.863      -23.007        8.037       43.933       19.798       18.591     1930.128      391.953      345.623        0.278        0.133       53.106       12.152        0.052      334.010        3.700      872.113
10/05/2013  04:45:00      -41.053      -31.690        4.226       29.198       26.808       17.642      852.514      718.655      311.251        0.229        0.094       51.862       16.133        0.097      334.031        3.736      872.120
10/05/2013  04:46:00      -23.905      -28.863        3.215       24.577       21.929       12.340      604.021      480.863      152.288        0.133        0.062       37.477        9.603        0.066      334.113        3.873      872.120
10/05/2013  04:47:00      -78.965      -35.515       -6.279       24.491       14.256       12.238      599.818      203.224      149.773        0.424        0.048       86.584       13.278        0.024      334.127        3.894      872.109
10/05/2013  04:48:00      -81.330      -35.862       -5.135       18.816       23.786       14.737      354.049      565.758      217.171        0.453        0.057       88.886       11.563        0.017      334.035        3.743      872.100
10/05/2013  04:49:00      -86.558      -15.102       -8.994       18.473       15.753       15.182      341.252      248.166      230.484        0.431        0.041       87.866       12.529        0.020      334.032        3.736      872.097
10/05/2013  04:50:00      -87.204      -29.922       -9.584       12.468       12.584       10.907      155.462      158.348      118.965        0.451        0.022       92.195        7.731        0.007      334.160        3.951      872.102
10/05/2013  04:51:00      -88.634      -11.686      -14.681       10.495       11.895        8.719      110.142      141.489       76.023        0.427        0.016       89.401        4.007        0.002      334.140        3.915      872.096
10/05/2013  04:52:00      -97.689      -14.741      -11.009       15.067       12.608        9.370      227.012      158.954       87.806        0.518        0.024       98.795        6.508        0.004      334.146        3.926      872.091
10/05/2013  04:53:00      -72.090      -12.676       -7.428       15.817       12.121       11.943      250.182      146.909      142.639        0.298        0.027       73.196        8.399        0.013      334.096        3.843      872.091
10/05/2013  04:54:00      -67.416      -16.456       -7.041        9.313       10.225        6.731       86.736      104.551       45.305        0.255        0.012       69.396        3.811        0.003      334.113        3.871      872.087
10/05/2013  04:55:00      -55.171      -29.412      -11.190        6.483        8.197        8.209       42.025       67.191       67.388        0.211        0.009       62.521        5.346        0.007      334.204        4.023      872.076
10/05/2013  04:56:00      -39.914      -27.503       -9.130       19.544       10.507        9.393      381.961      110.400       88.226        0.151        0.029       48.472        6.341        0.017      334.163        3.954      872.058
10/05/2013  04:57:00      -89.039      -30.646      -10.392       15.538       14.093       11.982      241.443      198.610      143.563        0.478        0.029       94.165        7.477        0.006      333.935        3.577      872.043
10/05/2013  04:58:00      -94.487      -34.037       -9.658       14.787       12.654       10.907      218.660      160.134      118.954        0.534        0.025      100.430        3.941        0.002      333.779        3.317      872.023
10/05/2013  04:59:00      -62.915      -38.523       -7.779       23.110       21.419       16.753      534.091      458.773      280.651        0.339        0.064       73.772       12.095        0.027      333.712        3.207      872.022
10/05/2013  05:00:00      -48.292      -34.015       -7.356       31.119       26.756       16.722      968.404      715.897      279.615        0.275        0.098       59.069       15.190        0.066      333.738        3.249      872.027
10/05/2013  05:01:00      -56.842       -8.055       -6.281       26.668       21.911       15.038      711.184      480.112      226.140        0.238        0.071       57.410       11.860        0.043      333.779        3.318      872.022
10/05/2013  05:02:00      -55.981        3.998       -7.192       12.004       20.865        9.757      144.101      435.355       95.200        0.194        0.034       56.124        6.547        0.014      333.758        3.284      872.011
10/05/2013  05:03:00      -47.035        8.193       -8.183       13.293       13.740        6.422      176.701      188.791       41.238        0.138        0.020       47.743        2.866        0.004      333.973        3.640      872.010
10/05/2013  05:04:00      -69.098        6.696      -11.453       15.976       21.646        8.717      255.221      468.546       75.979        0.288        0.040       69.422        8.080        0.014      334.213        4.038      872.002
10/05/2013  05:05:00      -32.643      -26.568       -9.470       28.214       17.998       13.157      796.022      323.942      173.102        0.158        0.065       42.088       14.196        0.114      333.901        3.521      872.012
10/05/2013  05:06:00      -47.295      -14.756       -3.921       19.521       12.956       11.854      381.083      167.855      140.506        0.158        0.034       49.543        9.045        0.033      333.820        3.384      872.019
10/05/2013  05:07:00      -63.157      -11.324      -13.604       15.946       14.449       11.610      254.273      208.772      134.786        0.245        0.030       64.164        7.830        0.015      333.866        3.464      872.006
10/05/2013  05:08:00      -79.843      -15.731      -11.331       17.490       15.311       13.115      305.891      234.432      171.995        0.373        0.036       81.378       11.901        0.021      333.714        3.210      871.997
10/05/2013  05:09:00      -46.275      -18.036       -6.208       20.269       11.935        9.825      410.849      142.438       96.527        0.158        0.032       49.666        3.371        0.005      333.688        3.167      872.011
10/05/2013  05:10:00      -36.903      -21.285       -6.085       10.217        8.416        8.579      104.385       70.822       73.595        0.105        0.012       42.601        6.202        0.021      333.723        3.226      872.018
10/05/2013  05:11:00      -63.491       -4.392      -11.499       15.047       11.296       10.357      226.400      127.596      107.260        0.232        0.023       63.642        7.909        0.015      333.810        3.369      872.016
10/05/2013  05:12:00      -70.463       -0.072      -12.419        9.204       10.477        8.640       84.718      109.772       74.655        0.269        0.013       70.463        4.684        0.004      333.771        3.305      872.015
10/05/2013  05:13:00      -51.315      -11.573       -4.475        8.538        9.954        6.833       72.890       99.081       46.686        0.150        0.011       52.604        4.445        0.007      333.729        3.236      872.015
10/05/2013  05:14:00      -52.139      -21.187       -3.969       14.119       16.090       13.153      199.340      258.903      172.989        0.191        0.032       56.279        7.668        0.019      333.836        3.411      872.021
10/05/2013  05:15:00      -61.363      -30.288       -3.868       19.101       17.244       13.674      364.846      297.367      186.989        0.277        0.042       68.430       10.479        0.023      333.675        3.145      872.023
10/05/2013  05:16:00      -75.281      -20.363       -7.151       12.820       16.135       10.178      164.350      260.341      103.587        0.333        0.026       77.986        6.925        0.008      333.560        2.954      872.025
10/05/2013  05:17:00      -76.578       -3.051      -17.357       14.276       15.733       10.164      203.801      247.538      103.297        0.336        0.028       76.639        6.790        0.008      333.637        3.083      872.038
10/05/2013  05:18:00      -71.311       -8.397      -18.180       12.211       10.881       10.573      149.115      118.396      111.792        0.293        0.019       71.803        6.651        0.009      333.775        3.311      872.034
10/05/2013  05:19:00      -69.688      -17.351      -13.238       17.519       14.423       10.557      306.917      208.020      111.447        0.298        0.031       71.815        8.229        0.013      333.704        3.193      872.023
10/05/2013  05:20:00      -80.651      -20.652      -16.713       12.549       13.332       13.125      157.465      177.739      172.278        0.386        0.025       83.253        7.533        0.008      333.687        3.166      872.012
10/05/2013  05:21:00     -109.433        0.634      -19.193       17.855       16.787       12.595      318.806      281.814      158.630        0.655        0.038      109.434        8.315        0.006      333.729        3.234      871.998
10/05/2013  05:22:00      -91.967        4.602      -21.507       18.477       17.932       13.320      341.408      321.539      177.435        0.489        0.042       92.082       10.906        0.014      333.778        3.316      871.988
10/05/2013  05:23:00     -107.216        8.846      -26.197       33.999       21.141       18.225     1155.902      446.942      332.158        0.710        0.097      107.580       16.786        0.024      333.783        3.325      871.997
10/05/2013  05:24:00     -133.199        8.786      -26.043       25.717       23.391       18.461      661.383      547.146      340.821        1.002        0.077      133.489       14.364        0.012      333.634        3.077      872.010
10/05/2013  05:25:00     -137.517        4.742      -20.567       30.177       21.681       23.048      910.639      470.059      531.199        1.063        0.096      137.599       16.633        0.015      333.605        3.030      872.018
10/05/2013  05:26:00     -145.115       13.577      -27.863       29.985       19.912       15.538      899.096      396.481      241.441        1.178        0.077      145.749       10.440        0.005      333.741        3.255      872.019
10/05/2013  05:27:00      -88.709        1.615      -24.096       23.227       19.335       15.879      539.476      373.834      252.129        0.481        0.058       88.723       10.497        0.014      333.630        3.071      872.030
10/05/2013  05:28:00      -83.404       -3.310      -23.480       15.707       18.320       13.988      246.709      335.633      195.653        0.415        0.039       83.470        8.142        0.010      333.698        3.183      872.034
10/05/2013  05:29:00      -95.595        0.265      -19.613       12.911       12.354       10.379      166.695      152.611      107.722        0.497        0.021       95.595        4.096        0.002      333.767        3.298      872.037
10/05/2013  05:30:00      -97.426       -2.249      -23.187       18.736       16.287       13.493      351.023      265.259      182.069        0.542        0.040       97.452        7.547        0.006      333.799        3.350      872.031
10/05/2013  05:31:00      -79.428      -12.086      -16.080       19.308       19.011       13.837      372.786      361.416      191.453        0.382        0.046       80.342       13.571        0.029      333.627        3.065      872.023
10/05/2013  05:32:00      -97.201        3.146      -24.371       30.356       19.846       17.152      921.492      393.873      294.196        0.583        0.080       97.252       13.574        0.019      333.647        3.100      872.016
10/05/2013  05:33:00     -115.792        5.486      -23.818       22.799       19.970       15.094      519.791      398.808      227.822        0.758        0.057      115.922       10.463        0.008      333.589        3.002      872.028
10/05/2013  05:34:00     -106.965        0.864      -19.560       35.209       20.240       22.869     1239.653      409.655      522.975        0.700        0.109      106.969       23.612        0.049      333.612        3.041      872.029
10/05/2013  05:35:00     -106.293      -10.581      -15.706       35.562       19.599       17.820     1264.623      384.119      317.552        0.681        0.098      106.818       15.324        0.021      333.520        2.888      872.037
10/05/2013  05:36:00     -111.891       14.624      -22.641       38.173       22.138       18.338     1457.168      490.104      336.289        0.776        0.114      112.843       12.712        0.013      333.580        2.986      872.042
10/05/2013  05:37:00     -117.951        7.475      -23.694       35.217       23.931       18.231     1240.207      572.687      332.378        0.834        0.107      118.188       15.980        0.018      333.584        2.992      872.054
10/05/2013  05:38:00      -94.712       -0.685      -19.679       24.558       23.374       20.496      603.100      546.333      420.090        0.546        0.078       94.714       11.169        0.014      333.628        3.066      872.048
10/05/2013  05:39:00     -116.225       20.958      -20.350       29.850       27.783       19.563      891.007      771.921      382.707        0.820        0.102      118.100       14.334        0.015      333.675        3.144      872.035
10/05/2013  05:40:00      -81.387       16.180      -18.059       31.786       21.913       17.529     1010.332      480.182      307.283        0.450        0.090       82.980       11.639        0.020      333.738        3.250      872.023
10/05/2013  05:41:00     -111.052       -2.327      -19.287       32.925       22.605       16.846     1084.066      510.996      283.804        0.729        0.094      111.077       11.907        0.011      333.837        3.414      872.020
10/05/2013  05:42:00     -112.648      -23.940      -15.333       30.660       24.966       21.154      940.065      623.296      447.484        0.775        0.101      115.164       18.436        0.026      333.713        3.207      872.019
10/05/2013  05:43:00     -109.329      -16.287      -16.460       33.723       29.789       23.557     1137.253      887.406      554.943        0.753        0.129      110.536       15.334        0.019      333.753        3.274      872.022
10/05/2013  05:44:00      -97.933      -29.080      -19.236       29.461       29.426       13.958      867.945      865.910      194.836        0.637        0.096      102.159        9.077        0.008      333.739        3.251      872.044
10/05/2013  05:45:00      -92.170      -13.267      -18.061       32.803       23.414       19.412     1076.059      548.192      376.809        0.550        0.100       93.120       19.962        0.046      333.680        3.154      872.056
10/05/2013  05:46:00      -98.169       -4.747      -23.492       22.272       18.522       12.418      496.032      343.069      154.218        0.560        0.050       98.284        9.910        0.010      333.749        3.267      872.058
10/05/2013  05:47:00      -80.463      -33.751      -20.091       16.492       28.731       14.796      272.001      825.488      218.911        0.467        0.066       87.255       10.830        0.015      333.814        3.375      872.074
10/05/2013  05:48:00      -78.354      -16.321      -20.085       20.165       26.048       13.946      406.635      678.474      194.498        0.404        0.064       80.036       11.924        0.022      334.161        3.952      872.078
10/05/2013  05:49:00      -50.094       -7.583       -7.118       13.951       17.639        8.585      194.637      311.124       73.698        0.160        0.029       50.665        5.018        0.010      334.235        4.074      872.066
10/05/2013  05:50:00      -55.011       -4.323       -8.127       16.995        9.706        8.039      288.821       94.198       64.618        0.178        0.022       55.180        4.745        0.007      334.099        3.848      872.059
10/05/2013  05:51:00      -42.143       -4.091       -8.225       24.751       17.068       13.668      612.614      291.303      186.815        0.148        0.055       42.341        9.839        0.054      334.380        4.315      872.068
10/05/2013  05:52:00      -48.232       -6.674       -4.473       20.885       22.236       12.274      436.201      494.429      150.644        0.174        0.054       48.691        9.575        0.039      334.435        4.407      872.073
10/05/2013  05:53:00      -61.704      -34.254      -16.184       13.806       14.517        8.058      190.615      210.751       64.934        0.285        0.023       70.574        5.095        0.005      333.899        3.518      872.079
10/05/2013  05:54:00      -84.233      -42.944      -15.072       14.978       20.537        9.580      224.335      421.749       91.786        0.495        0.037       94.548        5.741        0.004      333.764        3.292      872.083
10/05/2013  05:55:00      -98.764      -18.878      -22.160       11.125       18.086       11.556      123.772      327.112      133.552        0.559        0.029      100.552        5.856        0.003      333.847        3.430      872.082
10/05/2013  05:56:00      -96.645      -21.577      -13.553       20.046       25.090       16.406      401.850      629.485      269.145        0.564        0.065       99.025       14.690        0.022      333.714        3.210      872.083
10/05/2013  05:57:00      -82.627      -36.280      -22.677       24.075       18.399       14.061      579.615      338.529      197.715        0.489        0.056       90.242       11.355        0.016      333.786        3.329      872.082
10/05/2013  05:58:00      -62.203      -36.578      -19.738       21.928       26.193       16.383      480.821      686.077      268.397        0.352        0.072       72.160       10.264        0.020      333.934        3.574      872.080
10/05/2013  05:59:00      -70.084      -40.164      -15.812       17.963       21.986       13.340      322.658      483.393      177.945        0.388        0.049       80.777        9.268        0.013      333.854        3.442      872.077
10/05/2013  06:00:00      -50.640      -29.163      -19.594       17.647       19.590       12.434      311.432      383.787      154.616        0.232        0.042       58.437        6.779        0.013      333.930        3.568      872.086
10/05/2013  06:01:00      -60.301      -15.731       -5.571       14.390       14.597       10.667      207.058      213.064      113.775        0.222        0.027       62.319        7.569        0.015      333.983        3.656      872.103
10/05/2013  06:02:00        4.273       17.251       -2.048       29.140       31.705       14.573      849.126     1005.183      212.384        0.119        0.103       17.773       14.025        0.623      334.552        4.600      872.108
10/05/2013  06:03:00       25.226       48.654        1.415       11.551       20.590       10.949      133.425      423.963      119.877        0.184        0.034       54.804        9.377        0.029      334.714        4.869      872.112
10/05/2013  06:04:00       18.084       78.242       -4.912       21.407       26.734       10.218      458.251      714.708      104.416        0.387        0.064       80.305        8.593        0.011      334.924        5.218      872.120
10/05/2013  06:05:00       18.397       91.710       -8.201       26.463       31.369       17.457      700.270      984.014      304.733        0.540        0.099       93.537       16.154        0.030      335.032        5.397      872.121
10/05/2013  06:06:00       35.380       64.759       -9.043       21.949       30.007       19.697      481.745      900.430      387.963        0.365        0.089       73.794       17.910        0.059      334.941        5.247      872.128
10/05/2013  06:07:00       15.310       49.564      -11.458       17.899       22.354       14.177      320.370      499.711      200.977        0.192        0.051       51.875       11.914        0.053      334.850        5.095      872.144
10/05/2013  06:08:00       13.873       93.340      -17.729       14.905       16.296        8.766      222.148      265.574       76.841        0.489        0.028       94.366        7.678        0.007      335.148        5.590      872.145
10/05/2013  06:09:00       15.477       92.715      -12.991       17.390       19.449       10.067      302.426      378.260      101.344        0.489        0.039       93.998        8.541        0.008      335.116        5.537      872.153
10/05/2013  06:10:00       13.941       71.150       -6.094       24.446       20.323       14.538      597.592      413.012      211.343        0.326        0.061       72.503       12.441        0.029      335.103        5.514      872.162
10/05/2013  06:11:00        8.557       75.653       -9.903       25.378       21.975       14.179      644.063      482.904      201.044        0.361        0.066       76.135       12.860        0.029      335.023        5.381      872.178
10/05/2013  06:12:00       27.497       52.758       -3.662       27.575       18.243       14.131      760.373      332.792      199.682        0.242        0.065       59.494       11.532        0.038      335.013        5.364      872.178
10/05/2013  06:13:00        7.633       48.261      -10.587       16.993       13.541        8.924      288.779      183.349       79.633        0.153        0.028       48.861        5.935        0.015      335.112        5.530      872.183
10/05/2013  06:14:00       19.478       31.030       -1.182       14.448       14.626       10.132      208.734      213.931      102.664        0.093        0.026       36.636        7.698        0.044      335.009        5.358      872.186
10/05/2013  06:15:00        0.486       38.528       -3.637       13.947        9.537        5.314      194.516       90.945       28.238        0.091        0.016       38.531        5.345        0.019      335.210        5.691      872.186
10/05/2013  06:16:00      -29.011        9.971        1.978       20.404       20.966       12.432      416.342      439.577      154.559        0.098        0.051       30.677        9.747        0.101      334.795        5.003      872.178
10/05/2013  06:17:00      -24.933       24.761       -1.220       22.864       25.462       14.294      522.783      648.321      204.307        0.131        0.069       35.139       11.647        0.110      334.630        4.731      872.186
10/05/2013  06:18:00        3.768       -2.828        0.126       27.476       25.321       12.698      754.917      641.170      161.251        0.079        0.078        4.711       12.658        7.219      334.677        4.808      872.206
10/05/2013  06:19:00       11.117       16.321       -0.131       12.216       11.216        8.927      149.224      125.803       79.683        0.037        0.018       19.748        5.801        0.086      334.914        5.200      872.217
10/05/2013  06:20:00       25.976       12.010        1.445       32.737       23.247       17.327     1071.739      540.430      300.214        0.137        0.096       28.618       14.123        0.244      334.945        5.253      872.224
10/05/2013  06:21:00       58.604       44.261        5.968       28.930       16.047       15.186      836.946      257.502      230.625        0.338        0.066       73.440        7.085        0.009      335.179        5.640      872.225
10/05/2013  06:22:00       38.123       15.195        8.714       19.801       10.907        7.884      392.075      118.970       62.156        0.117        0.029       41.040        2.988        0.005      335.101        5.510      872.237
10/05/2013  06:23:00       25.700        9.136        0.990       15.101        8.385        7.359      228.055       70.309       54.156        0.055        0.018       27.275        5.552        0.041      335.021        5.379      872.248
10/05/2013  06:24:00       22.579        8.853        0.037       18.536        8.886        7.783      343.593       78.962       60.577        0.054        0.024       24.253        6.287        0.067      335.066        5.453      872.254
10/05/2013  06:25:00       17.534        6.875        6.069       13.062       10.646        7.400      170.605      113.340       54.754        0.037        0.017       18.834        3.557        0.036      334.950        5.260      872.269
10/05/2013  06:26:00       21.082       26.086       15.334       21.672       16.828       10.648      469.672      283.179      113.388        0.111        0.043       33.540        5.691        0.029      334.975        5.302      872.280
10/05/2013  06:27:00      -22.784       -8.681        3.984       24.341       11.472       12.190      592.492      131.616      148.591        0.074        0.044       24.382        9.428        0.150      334.320        4.215      872.287
10/05/2013  06:28:00      -46.154      -15.954       -4.894       10.084       13.151       13.728      101.680      172.942      188.458        0.144        0.023       48.833        6.466        0.018      333.952        3.606      872.292
10/05/2013  06:29:00      -32.254      -32.125       -2.957       18.930       13.082        8.935      358.361      171.126       79.840        0.135        0.030       45.523        6.911        0.023      334.292        4.169      872.304
10/05/2013  06:30:00      -64.775      -16.668       -9.218       14.874       11.326        7.558      221.250      128.285       57.119        0.248        0.020       66.885        4.582        0.005      333.726        3.228      872.324
10/05/2013  06:31:00      -67.840      -30.272      -13.628       11.250        8.617        9.217      126.560       74.248       84.947        0.299        0.014       74.287        6.626        0.008      333.698        3.183      872.332
10/05/2013  06:32:00      -75.215      -23.081      -14.208       10.803       15.587        8.137      116.704      242.967       66.208        0.341        0.021       78.677        4.927        0.004      333.669        3.135      872.340
10/05/2013  06:33:00     -100.072       -3.868      -21.932       30.718       16.598       10.578      943.577      275.491      111.895        0.592        0.067      100.146        7.263        0.005      333.655        3.111      872.344
10/05/2013  06:34:00     -131.108       10.655      -19.683       28.603       21.123       14.585      818.155      446.172      212.717        0.958        0.074      131.540       13.232        0.010      333.645        3.095      872.348
10/05/2013  06:35:00      -94.890      -44.743      -13.929       18.755       21.233       13.965      351.755      450.824      195.025        0.610        0.050      104.909        9.614        0.008      333.458        2.787      872.364
10/05/2013  06:36:00      -89.323      -28.975      -15.315       26.020       23.737       21.434      677.043      563.445      459.414        0.538        0.085       93.905        9.507        0.010      333.553        2.942      872.370
10/05/2013  06:37:00      -86.678      -58.161      -13.582       23.501       24.881       15.817      552.274      619.058      250.172        0.625        0.071      104.382        6.560        0.004      333.530        2.903      872.380
10/05/2013  06:38:00     -118.999      -26.059      -18.140       19.738       15.840       12.761      389.604      250.900      162.842        0.799        0.040      121.819       11.600        0.009      333.521        2.887      872.378
10/05/2013  06:39:00     -112.020      -24.031      -18.781       14.004       11.682       10.284      196.106      136.476      105.769        0.696        0.022      114.568        6.471        0.003      333.645        3.095      872.380
10/05/2013  06:40:00      -94.855      -32.553      -12.643       12.098       12.519        9.318      146.364      156.714       86.826        0.530        0.019      100.285        3.940        0.002      333.650        3.103      872.387
10/05/2013  06:41:00      -91.291      -31.077      -11.433       13.766       15.461       13.037      189.499      239.043      169.973        0.501        0.030       96.436        2.479        0.001      333.746        3.262      872.398
10/05/2013  06:42:00      -96.288      -47.133       -8.828       15.872       17.023       13.126      251.909      289.770      172.294        0.614        0.036      107.205        8.794        0.007      333.750        3.270      872.405
10/05/2013  06:43:00     -114.500      -50.383      -17.387       10.066       15.956       10.804      101.334      254.600      116.736        0.821        0.024      125.094        3.884        0.001      333.722        3.223      872.418
10/05/2013  06:44:00     -117.615      -40.184      -15.163       11.447       13.694        9.705      131.044      187.532       94.197        0.805        0.021      124.291        6.370        0.003      333.700        3.187      872.420
10/05/2013  06:45:00     -110.521      -45.305      -21.402       12.602       10.147        7.895      158.812      102.963       62.326        0.752        0.016      119.447        3.728        0.001      333.571        2.971      872.421
10/05/2013  06:46:00     -103.522      -27.191      -13.346       11.778       12.522       11.488      138.718      156.808      131.981        0.603        0.021      107.034        6.334        0.004      333.651        3.105      872.425
10/05/2013  06:47:00      -96.246      -27.828      -17.602       13.024       19.241       11.466      169.625      370.216      131.473        0.551        0.034      100.189        8.651        0.007      333.534        2.911      872.439
10/05/2013  06:48:00      -88.276      -14.624      -19.104       11.481       11.957        7.905      131.809      142.981       62.490        0.435        0.017       89.479        3.488        0.002      333.510        2.872      872.450
10/05/2013  06:49:00      -83.736      -31.565      -16.745       11.742        9.286        7.807      137.884       86.221       60.953        0.429        0.014       89.488        4.747        0.003      333.517        2.882      872.460
10/05/2013  06:50:00      -81.481      -28.254      -13.993       16.778       11.936        9.460      281.515      142.471       89.490        0.407        0.026       86.240        7.627        0.008      333.521        2.889      872.461
10/05/2013  06:51:00     -100.512      -10.707      -12.533       21.540       14.722       13.428      463.972      216.743      180.299        0.562        0.043      101.081        8.180        0.007      333.474        2.811      872.451
10/05/2013  06:52:00      -83.631      -16.740       -6.813       15.815       14.067       14.344      250.101      197.875      205.738        0.399        0.033       85.290       10.410        0.015      333.401        2.691      872.462
10/05/2013  06:53:00      -79.333      -32.686      -17.752       15.386       15.938       11.844      236.733      254.013      140.270        0.415        0.032       85.802        5.117        0.004      333.352        2.610      872.478
10/05/2013  06:54:00      -99.119      -58.506      -14.957       17.427       22.943       12.626      303.700      526.390      159.412        0.723        0.049      115.098       10.234        0.008      333.407        2.700      872.486
10/05/2013  06:55:00     -131.620      -58.101      -14.582       21.426       17.272       13.691      459.066      298.325      187.438        1.093        0.047      143.873        9.643        0.004      333.320        2.557      872.491
10/05/2013  06:56:00     -124.089      -69.482      -15.303       13.050       20.237       13.700      170.312      409.523      187.681        1.061        0.038      142.217        7.588        0.003      333.332        2.579      872.517
10/05/2013  06:57:00     -131.560      -55.187      -22.328       14.392       11.337       13.440      207.124      128.517      180.626        1.068        0.026      142.666        7.673        0.003      333.388        2.670      872.527
10/05/2013  06:58:00     -126.104      -52.656      -14.047       20.191       14.555       14.684      407.671      211.835      215.607        0.985        0.042      136.656        8.223        0.004      333.368        2.638      872.528
10/05/2013  06:59:00     -110.292      -52.056      -14.252       11.916       15.663       10.079      142.001      245.334      101.595        0.778        0.024      121.960        8.481        0.005      333.366        2.635      872.531
10/05/2013  07:00:00     -114.409      -56.045      -16.436       14.736       14.560        9.901      217.158      211.998       98.026        0.851        0.026      127.399        5.681        0.002      333.395        2.682      872.542
10/05/2013  07:01:00     -102.130      -52.272      -10.941       21.586       26.059       14.475      465.967      679.058      209.527        0.732        0.068      114.730        7.926        0.005      333.314        2.547      872.551
10/05/2013  07:02:00     -113.526      -70.261       -9.985       25.203       22.391       14.931      635.188      501.367      222.948        0.964        0.068      133.509       14.152        0.011      333.250        2.440      872.545
10/05/2013  07:03:00      -68.131      -47.484       -1.708       33.805       25.746       24.234     1142.809      662.864      587.294        0.465        0.120       83.046       20.237        0.059      333.172        2.312      872.546
10/05/2013  07:04:00     -123.406      -64.801      -12.981       11.400       15.101       13.936      129.968      228.043      194.198        1.007        0.028      139.385        4.219        0.001      333.202        2.361      872.548
10/05/2013  07:05:00     -112.756      -41.859      -15.424       11.277       13.913        9.830      127.178      193.582       96.627        0.756        0.021      120.276        5.757        0.002      333.220        2.390      872.542
10/05/2013  07:06:00     -115.426      -48.490      -16.967       12.478       15.088        8.373      155.697      227.638       70.104        0.821        0.023      125.198        3.189        0.001      333.167        2.303      872.546
10/05/2013  07:07:00     -123.783      -33.793      -15.865       14.548       24.012       14.448      211.646      576.584      208.732        0.886        0.050      128.313        7.443        0.003      333.156        2.286      872.554
10/05/2013  07:08:00     -128.469      -41.282      -18.997       15.715       19.523       14.342      246.960      381.153      205.704        0.970        0.042      134.939        8.084        0.004      333.087        2.171      872.559
10/05/2013  07:09:00     -127.327      -36.556      -11.449       16.324       17.535       13.977      266.488      307.474      195.358        0.922        0.038      132.470        9.094        0.005      333.047        2.105      872.569
10/05/2013  07:10:00     -129.434      -42.432      -11.608       16.944       24.448       12.834      287.099      597.697      164.719        0.987        0.052      136.211        4.685        0.001      333.093        2.182      872.569
10/05/2013  07:11:00     -103.081      -43.319      -10.195       16.866       19.376       12.789      284.468      375.428      163.558        0.671        0.041      111.814        6.505        0.003      333.117        2.222      872.575
10/05/2013  07:12:00     -104.738      -30.824      -12.058       18.177       23.032       13.096      330.386      530.452      171.501        0.655        0.052      109.180       11.234        0.011      333.137        2.254      872.582
10/05/2013  07:13:00     -110.634      -61.686      -11.190       19.993       21.095       14.904      399.718      444.997      222.124        0.862        0.053      126.670        9.588        0.006      333.190        2.342      872.589
10/05/2013  07:14:00     -103.910      -35.103      -12.694       20.457       16.523       12.430      418.501      272.994      154.510        0.652        0.042      109.679        9.583        0.008      333.250        2.440      872.598
10/05/2013  07:15:00     -117.369      -56.196       -4.415       19.073       19.745       13.739      363.775      389.847      188.762        0.895        0.047      130.129        8.388        0.004      333.186        2.335      872.611
10/05/2013  07:16:00     -143.377      -54.204       -9.321       17.127       17.406       13.417      293.332      302.982      180.023        1.218        0.039      153.281        7.686        0.003      333.163        2.296      872.609
10/05/2013  07:17:00     -140.828      -51.652      -10.204       14.077       15.636       10.717      198.163      244.473      114.861        1.158        0.028      150.001        2.872        0.000      333.174        2.315      872.615
10/05/2013  07:18:00     -114.315      -40.726       -9.964       18.545       19.880       14.280      343.904      395.212      203.919        0.788        0.047      121.353        6.042        0.002      333.186        2.333      872.625
10/05/2013  07:19:00     -140.167      -51.694      -16.935       14.824       23.671       10.302      219.746      560.294      106.136        1.175        0.044      149.396        6.798        0.002      333.200        2.359      872.636
10/05/2013  07:20:00     -145.283      -57.105      -18.483       14.468       12.178       13.229      209.321      148.312      175.002        1.262        0.027      156.103        4.762        0.001      333.241        2.426      872.640
10/05/2013  07:21:00     -134.841      -44.938      -17.301       13.306       12.325        9.716      177.052      151.914       94.406        1.046        0.021      142.132        6.230        0.002      333.189        2.340      872.639
10/05/2013  07:22:00     -116.010      -38.605      -13.948       17.529       18.809       13.506      307.276      353.790      182.413        0.799        0.042      122.264        9.892        0.007      333.194        2.349      872.642
10/05/2013  07:23:00     -126.033      -42.370      -13.522       11.973       19.083       10.275      143.358      364.173      105.579        0.924        0.031      132.965        5.711        0.002      333.307        2.536      872.642
10/05/2013  07:24:00     -128.003      -33.513      -19.242       14.084       15.856       10.711      198.356      251.427      114.731        0.922        0.028      132.317        6.648        0.003      333.330        2.574      872.638
10/05/2013  07:25:00     -108.960      -51.168      -15.365       20.446       21.795       14.884      418.028      475.030      221.543        0.792        0.056      120.377       12.214        0.010      333.337        2.586      872.633
10/05/2013  07:26:00     -132.516      -56.583      -11.519       19.168       16.353       11.453      367.394      267.409      131.181        1.083        0.038      144.091        9.302        0.004      333.362        2.629      872.630
10/05/2013  07:27:00     -128.028      -46.166      -13.577       20.056       14.129        8.922      402.244      199.640       79.603        0.969        0.034      136.097        4.031        0.001      333.397        2.686      872.643
10/05/2013  07:28:00     -129.959      -57.490      -17.645       10.357        8.866        8.580      107.258       78.610       73.614        1.038        0.013      142.107        6.004        0.002      333.457        2.783      872.653
10/05/2013  07:29:00     -124.094      -60.889      -15.651       13.352       11.646       11.054      178.265      135.634      122.191        0.989        0.022      138.228        5.714        0.002      333.485        2.829      872.653
10/05/2013  07:30:00     -113.894      -53.059      -14.565       16.821       12.901       11.437      282.933      166.435      130.800        0.829        0.029      125.647        8.875        0.005      333.503        2.859      872.651
10/05/2013  07:31:00      -99.841      -57.020      -10.036       22.092       24.870       15.024      488.058      618.507      225.707        0.733        0.067      114.976       11.853        0.011      333.551        2.941      872.657
10/05/2013  07:32:00     -103.168      -58.401        0.186       33.134       19.849       17.079     1097.850      393.983      291.684        0.792        0.089      118.551       14.178        0.014      333.513        2.876      872.658
10/05/2013  07:33:00     -125.597      -61.955       -4.669       26.000       20.353       17.291      676.026      414.258      298.977        1.051        0.069      140.046       11.943        0.007      333.499        2.854      872.642
10/05/2013  07:34:00     -127.843      -37.998      -13.986       12.797       17.564       11.168      163.761      308.489      124.719        0.929        0.030      133.370        7.491        0.003      333.520        2.887      872.649
10/05/2013  07:35:00      -85.785      -28.565       -9.047       19.142       14.552        9.892      366.413      211.772       97.850        0.447        0.034       90.416        5.948        0.004      333.567        2.966      872.647
10/05/2013  07:36:00      -88.829      -45.598      -12.218       13.222       17.565        9.576      174.832      308.539       91.709        0.535        0.029       99.848        2.092        0.000      333.606        3.031      872.660
10/05/2013  07:37:00     -114.529      -70.281       -8.292       21.708       23.459       15.075      471.253      550.322      227.269        0.969        0.062      134.374       14.112        0.011      333.636        3.080      872.672
10/05/2013  07:38:00      -92.973      -55.050        5.147       35.171       28.406       22.095     1236.970      806.907      488.206        0.712        0.127      108.048       20.870        0.037      333.625        3.060      872.670
10/05/2013  07:39:00      -89.766      -70.657       -4.591       30.250       21.207       14.529      915.083      449.717      211.101        0.732        0.079      114.238       14.797        0.017      333.628        3.067      872.683
10/05/2013  07:40:00      -79.771      -45.773       -3.291       18.841       16.873       13.219      354.999      284.709      174.754        0.464        0.041       91.971       11.549        0.016      333.597        3.015      872.678
10/05/2013  07:41:00      -87.839      -43.107       -7.198       12.999       15.368        6.545      168.970      236.180       42.842        0.504        0.022       97.847        4.629        0.002      333.655        3.113      872.676
10/05/2013  07:42:00      -60.480      -48.113       -1.205       23.955       14.259       13.384      573.855      203.312      179.137        0.347        0.048       77.283       12.627        0.027      333.720        3.220      872.677
10/05/2013  07:43:00      -71.129      -44.945       -3.053       16.797       13.113       12.034      282.128      171.943      144.808        0.384        0.030       84.139        9.437        0.013      333.721        3.221      872.691
10/05/2013  07:44:00      -87.352      -38.995       -4.199       18.951       16.882       12.174      359.130      285.016      148.200        0.498        0.040       95.660        7.942        0.007      333.795        3.344      872.696
10/05/2013  07:45:00      -56.561      -37.606        1.474       32.398       28.847       16.638     1049.659      832.149      276.811        0.339        0.108       67.922       19.157        0.080      333.867        3.463      872.702
10/05/2013  07:46:00      -29.068      -31.804        4.278       34.005       21.937       20.225     1156.372      481.234      409.064        0.196        0.102       43.087       18.066        0.176      333.941        3.586      872.712
10/05/2013  07:47:00      -41.919      -53.807        4.850       32.722       30.840       16.960     1070.736      951.110      287.640        0.349        0.115       68.209       14.847        0.047      333.802        3.355      872.728
10/05/2013  07:48:00      -58.417      -62.338       -0.211       27.705       27.172       18.440      767.566      738.302      340.051        0.457        0.092       85.432       15.399        0.032      333.801        3.354      872.748
10/05/2013  07:49:00      -92.283      -41.154      -11.732       15.594       15.222       11.523      243.163      231.700      132.788        0.548        0.030      101.043        9.103        0.008      333.903        3.524      872.758
10/05/2013  07:50:00      -66.771      -35.194       -1.123       19.830       18.975       17.815      393.222      360.066      317.359        0.338        0.054       75.478        3.725        0.002      333.901        3.520      872.750
10/05/2013  07:51:00      -38.308      -25.582        1.857       30.566       16.490       13.702      934.265      271.921      187.747        0.176        0.070       46.065        9.936        0.047      333.927        3.564      872.745
10/05/2013  07:52:00      -78.647      -39.605       -6.843       23.242       16.193        9.746      540.184      262.200       94.991        0.435        0.045       88.056       10.102        0.013      333.975        3.645      872.741
10/05/2013  07:53:00      -77.806      -28.897       -9.021        9.911       12.764        8.865       98.228      162.929       78.591        0.365        0.017       82.999        4.755        0.003      334.034        3.742      872.752
10/05/2013  07:54:00      -93.333      -40.554       -9.988       13.542       11.331        9.065      183.380      128.393       82.169        0.542        0.020      101.763        5.864        0.003      334.092        3.836      872.756
10/05/2013  07:55:00      -97.215      -33.985      -12.361       10.364       11.808        9.504      107.412      139.429       90.319        0.555        0.017      102.984        7.334        0.005      334.179        3.981      872.761
10/05/2013  07:56:00      -54.782      -33.167       -2.677       17.345       15.957       10.723      300.850      254.613      114.993        0.239        0.034       64.040        6.704        0.011      334.204        4.023      872.768
10/05/2013  07:57:00      -44.732      -14.220       -1.903       15.547        8.363        5.742      241.696       69.941       32.974        0.128        0.017       46.937        7.039        0.022      334.289        4.164      872.769
10/05/2013  07:58:00      -35.940       -7.425       -4.219        9.755        8.407        5.710       95.160       70.679       32.604        0.078        0.010       36.699        5.127        0.020      334.323        4.222      872.772
10/05/2013  07:59:00      -41.955       -5.840       -0.264       12.017       11.998       10.725      144.399      143.942      115.026        0.110        0.020       42.360        8.803        0.043      334.409        4.364      872.786
10/05/2013  08:00:00      -49.596      -10.033       -3.711       15.497        8.626       10.641      240.146       74.410      113.230        0.150        0.021       50.601       10.429        0.042      334.460        4.446      872.791
10/05/2013  08:01:00      -53.976       -4.450       -4.809       13.137        9.110        8.418      172.571       82.988       70.854        0.164        0.016       54.160        7.233        0.018      334.501        4.517      872.808
10/05/2013  08:02:00      -47.712       -5.706       -4.840        6.674        4.862        3.783       44.536       23.638       14.313        0.121        0.004       48.052        2.507        0.003      334.565        4.620      872.830
10/05/2013  08:03:00      -34.735      -18.572       -4.102        8.053        6.479        6.753       64.859       41.974       45.596        0.086        0.008       39.389        4.667        0.014      334.640        4.746      872.846
10/05/2013  08:04:00      -10.944       -9.300       -1.490        8.354        8.850        6.570       69.796       78.317       43.164        0.020        0.010       14.362        5.586        0.151      334.837        5.073      872.861
10/05/2013  08:05:00      -21.483       -4.840       -8.568        6.358        7.553        3.143       40.428       57.042        9.876        0.033        0.005       22.021        2.864        0.017      334.775        4.970      872.869
10/05/2013  08:06:00      -23.006       -4.286       -1.460        3.902        3.746        3.019       15.222       14.032        9.112        0.029        0.002       23.402        2.306        0.010      334.866        5.122      872.869
10/05/2013  08:07:00      -19.479       -6.781       -2.792        5.888        3.817        2.601       34.668       14.572        6.766        0.024        0.003       20.625        1.690        0.007      334.969        5.293      872.865
10/05/2013  08:08:00       -5.498      -11.140       -0.423        2.725        3.557        3.911        7.426       12.653       15.298        0.009        0.002       12.423        1.261        0.010      335.037        5.402      872.857
10/05/2013  08:09:00       -1.915        8.412       17.593       11.627       15.379       14.969      135.186      236.524      224.059        0.049        0.030        8.627       12.282        2.027      335.361        5.943      872.859
10/05/2013  08:10:00       23.869       39.153       25.981       19.737       14.212       13.341      389.548      201.975      177.988        0.177        0.038       45.855        6.584        0.021      335.086        5.485      872.869
10/05/2013  08:11:00       -1.487        9.997       25.913        7.094       17.463       11.906       50.331      304.959      141.752        0.064        0.025       10.107       12.105        1.434      335.714        6.532      872.867
10/05/2013  08:12:00       24.662       25.243       23.331       14.907       13.735       16.127      222.229      188.641      260.095        0.123        0.034       35.290        8.785        0.062      335.284        5.815      872.869
10/05/2013  08:13:00       20.332       36.175       -6.783       19.836       16.603       16.916      393.467      275.668      286.138        0.136        0.048       41.497       14.159        0.116      335.327        5.887      872.870
10/05/2013  08:14:00       26.728        6.330       14.432       13.608       12.458       15.238      185.178      155.206      232.207        0.077        0.029       27.468        7.556        0.076      335.449        6.089      872.871
10/05/2013  08:15:00       39.418       14.016        5.409       15.298       14.597       15.602      234.015      213.077      243.413        0.123        0.035       41.835       10.313        0.061      335.303        5.847      872.853
10/05/2013  08:16:00       52.382       19.019        2.085       18.277       22.407       16.394      334.054      502.085      268.762        0.211        0.055       55.728       12.313        0.049      335.318        5.872      872.851
10/05/2013  08:17:00       40.180       24.558       10.695       21.441       21.328       18.842      459.725      454.888      355.030        0.180        0.063       47.091        7.818        0.028      335.430        6.059      872.855
10/05/2013  08:18:00       88.492       40.643       19.789       39.171       22.831       27.789     1534.384      521.258      772.232        0.635        0.141       97.379       21.095        0.047      335.358        5.938      872.849
10/05/2013  08:19:00       24.646       47.232       43.754       48.678       32.371       27.056     2369.558     1047.901      732.019        0.445        0.207       53.275       22.860        0.184      335.593        6.329      872.848
10/05/2013  08:20:00      141.545       90.559       19.363       31.953       26.301       30.014     1021.009      691.742      900.811        1.561        0.131      168.036       10.666        0.004      335.137        5.571      872.861
10/05/2013  08:21:00      135.352       81.731       17.713       31.616       27.873       27.144      999.543      776.876      736.802        1.391        0.126      158.114       18.276        0.013      335.110        5.528      872.861
10/05/2013  08:22:00       86.009       30.562       32.222       35.826       42.987       23.528     1283.516     1847.900      553.563        0.653        0.184       91.277       16.846        0.034      335.199        5.674      872.857
10/05/2013  08:23:00       35.462       30.416       20.150       34.204       31.147       22.156     1169.892      970.147      490.897        0.261        0.132       46.720       18.246        0.153      335.535        6.234      872.849
10/05/2013  08:24:00       59.551       46.242       18.230       44.632       34.256       26.608     1992.036     1173.492      707.966        0.494        0.194       75.397       23.480        0.097      335.475        6.133      872.844
10/05/2013  08:25:00       62.040       29.544        8.702       39.194       40.101       28.622     1536.165     1608.091      819.233        0.438        0.198       68.716       18.049        0.069      335.564        6.283      872.832
10/05/2013  08:26:00       44.976       33.851       11.167       35.808       25.603       28.906     1282.219      655.493      835.560        0.303        0.139       56.292       21.114        0.141      335.733        6.564      872.831
10/05/2013  08:27:00       63.383       42.205       18.083       41.428       27.871       26.688     1716.260      776.785      712.246        0.466        0.160       76.149       15.844        0.043      335.765        6.618      872.832
10/05/2013  08:28:00       46.127       37.804       13.596       51.083       40.582       29.332     2609.485     1646.897      860.343        0.443        0.256       59.639       18.709        0.098      335.731        6.560      872.832
10/05/2013  08:29:00       39.270        9.070       36.205       38.793       32.610       26.385     1504.919     1063.395      696.192        0.310        0.163       40.304       22.974        0.325      335.635        6.399      872.844
10/05/2013  08:30:00       25.453       -1.357       11.269       25.699       35.118       23.668      660.447     1233.240      560.172        0.161        0.123       25.489       17.802        0.488      335.844        6.748      872.852
10/05/2013  08:31:00       55.856       42.013       27.922       45.498       24.395       34.438     2070.046      595.099     1185.959        0.476        0.193       69.893       20.850        0.089      335.825        6.717      872.857
10/05/2013  08:32:00       78.536       37.023       14.214       22.083       25.309       18.347      487.663      640.553      336.613        0.460        0.073       86.825        8.390        0.009      335.520        6.209      872.870
10/05/2013  08:33:00       59.893       36.998       -1.931       16.175       21.492       18.447      261.633      461.909      340.284        0.301        0.053       70.399        9.239        0.017      335.470        6.125      872.861
10/05/2013  08:34:00       77.329       50.495        1.706       24.278       22.214       27.129      589.441      493.472      736.001        0.518        0.091       92.355        8.986        0.009      335.579        6.306      872.855
10/05/2013  08:35:00      129.062       67.196       10.532       25.931       25.228       25.451      672.428      636.475      647.748        1.162        0.098      145.507       15.416        0.011      335.498        6.172      872.840
10/05/2013  08:36:00       97.420       63.372        5.761       29.849       33.896       26.793      890.954     1148.955      717.875        0.815        0.138      116.218       13.812        0.014      335.585        6.317      872.835
10/05/2013  08:37:00       76.225       62.952        1.794       30.847       30.359       20.541      951.527      921.645      421.937        0.604        0.115       98.859       16.227        0.027      335.684        6.482      872.824
10/05/2013  08:38:00       42.985       60.120       44.897       45.038       37.913       46.525     2028.434     1437.368     2164.561        0.655        0.282       73.906       29.979        0.165      335.983        6.980      872.819
10/05/2013  08:39:00       69.998       45.717       14.751       46.038       37.053       36.806     2119.456     1372.899     1354.705        0.603        0.242       83.604       27.662        0.109      335.873        6.797      872.821
10/05/2013  08:40:00       14.526       75.901       83.007       37.042       40.437       35.908     1372.093     1635.189     1289.382        0.858        0.215       77.279       29.220        0.143      336.078        7.137      872.832
10/05/2013  08:41:00       75.782       50.479       53.648       58.622       36.651       44.032     3436.563     1343.278     1938.824        0.894        0.336       91.055       38.756        0.181      335.907        6.853      872.842
10/05/2013  08:42:00      112.051       65.516        5.280       33.439       34.494       33.311     1118.178     1189.869     1109.590        1.015        0.171      129.799       16.902        0.017      335.852        6.763      872.856
10/05/2013  08:43:00       75.068       90.508       48.449       36.398       27.068       40.912     1324.785      732.664     1673.778        0.995        0.187      117.588       25.598        0.047      335.869        6.790      872.866
10/05/2013  08:44:00       95.159       64.053       36.632       28.172       35.229       29.923      793.689     1241.084      895.386        0.871        0.147      114.708       20.049        0.031      335.837        6.736      872.878
10/05/2013  08:45:00      135.794       64.285       28.678       37.825       31.814       28.637     1430.703     1012.103      820.068        1.333        0.163      150.241       15.816        0.011      335.881        6.810      872.887
10/05/2013  08:46:00       62.975       67.535       66.936       36.714       22.871       25.374     1347.908      523.091      643.817        0.776        0.126       92.341       15.082        0.027      335.951        6.928      872.899
10/05/2013  08:47:00       74.784       81.033       11.752       50.117       41.653       34.857     2511.687     1734.988     1215.026        0.888        0.273      110.268       17.831        0.026      336.065        7.117      872.908
10/05/2013  08:48:00      104.378       67.620       22.374       33.185       32.138       34.365     1101.277     1032.846     1180.962        0.964        0.166      124.368       17.228        0.019      336.080        7.142      872.927
10/05/2013  08:49:00       71.196       50.880       -5.377       50.032       34.712       37.390     2503.162     1204.891     1397.995        0.640        0.255       87.508       22.004        0.063      336.172        7.295      872.931
10/05/2013  08:50:00       82.895       56.231       18.481       67.113       48.488       46.677     4504.122     2351.122     2178.702        0.970        0.452      100.168       28.247        0.080      336.215        7.367      872.931
10/05/2013  08:51:00       93.716       63.635       31.908       52.234       44.523       41.495     2728.387     1982.300     1721.853        1.014        0.322      113.279       31.391        0.077      336.104        7.182      872.930
10/05/2013  08:52:00      110.041      113.775       80.788       63.005       55.285       51.465     3969.607     3056.443     2648.600        2.063        0.484      158.284       46.815        0.087      335.945        6.915      872.931
10/05/2013  08:53:00       75.130       97.554       90.070       75.815       49.622       43.769     5747.929     2462.351     1915.747        1.670        0.506      123.131       32.959        0.072      335.923        6.880      872.942
10/05/2013  08:54:00      105.389       86.405       46.324       39.064       32.901       47.550     1525.958     1082.474     2260.973        1.279        0.243      136.282       28.172        0.043      336.010        7.025      872.957
10/05/2013  08:55:00       57.832       97.387       85.684       65.190       43.396       35.357     4249.729     1883.194     1250.142        1.378        0.369      113.264       29.820        0.069      336.024        7.048      872.960
10/05/2013  08:56:00       58.709       89.844       80.915       73.653       54.105       52.874     5424.780     2927.342     2795.707        1.460        0.557      107.325       53.392        0.247      336.087        7.152      872.964
10/05/2013  08:57:00       25.358       68.610       72.249       51.497       46.870       38.936     2651.912     2196.810     1516.040        0.847        0.318       73.146       36.021        0.243      336.206        7.352      872.966
10/05/2013  08:58:00       92.177       43.225       17.998       41.112       33.882       32.159     1690.237     1147.994     1034.214        0.728        0.194      101.808       25.193        0.061      336.147        7.255      872.966
10/05/2013  08:59:00       88.455       73.012       43.287       56.752       40.399       41.539     3220.769     1632.070     1725.486        1.080        0.329      114.695       39.625        0.119      336.171        7.294      872.966
10/05/2013  09:00:00       54.951       81.599       67.540       56.310       37.757       51.421     3170.808     1425.554     2644.101        1.074        0.362       98.377       46.162        0.220      336.159        7.274      872.963
10/05/2013  09:01:00        6.464       44.227       62.976       32.931       45.582       32.779     1084.463     2077.703     1074.448        0.510        0.212       44.697       30.362        0.461      336.480        7.809      872.966
10/05/2013  09:02:00       36.773       54.540       47.205       39.820       43.315       27.462     1585.642     1876.182      754.158        0.538        0.211       65.779       19.877        0.091      336.627        8.056      872.967
10/05/2013  09:03:00      103.800       42.862       19.679       79.850       62.677       42.196     6375.955     3928.434     1780.480        1.254        0.604      112.302       21.481        0.037      336.316        7.536      872.976
10/05/2013  09:04:00      110.088       75.436       35.280       67.544       48.432       34.867     4562.156     2345.640     1215.710        1.359        0.406      133.454       38.633        0.084      336.291        7.493      872.983
10/05/2013  09:05:00       64.588       39.407       69.243       81.560       72.476       55.544     6652.115     5252.760     3085.096        1.275        0.749       75.661       64.864        0.735      336.454        7.766      872.999
10/05/2013  09:06:00      103.615       76.145       75.335       64.345       63.771       45.380     4140.332     4066.737     2059.334        1.624        0.513      128.585       44.053        0.117      336.134        7.232      873.010
10/05/2013  09:07:00       84.429      103.113      102.500       60.282       63.341       40.325     3633.904     4012.052     1626.072        1.877        0.464      133.269       40.244        0.091      336.176        7.301      873.008
10/05/2013  09:08:00       45.733       84.376      104.531       60.047       60.548       40.069     3605.645     3666.051     1605.563        1.451        0.444       95.973       48.129        0.251      336.250        7.426      873.011
10/05/2013  09:09:00      105.185       73.793       64.480       43.968       41.741       43.780     1933.183     1742.337     1916.730        1.313        0.280      128.488       31.606        0.061      336.160        7.275      873.028
10/05/2013  09:10:00       54.925       38.772       48.529       42.186       31.317       23.846     1779.675      980.769      568.623        0.510        0.166       67.231       23.100        0.118      336.498        7.841      873.040
10/05/2013  09:11:00       63.194        8.844       22.334       53.540       40.121       34.213     2866.565     1609.662     1170.517        0.511        0.282       63.810       36.621        0.329      336.789        8.328      873.050
10/05/2013  09:12:00       42.424       10.633       14.425       46.069       48.667       30.234     2122.318     2368.464      914.121        0.376        0.270       43.737       25.396        0.337      336.894        8.503      873.067
10/05/2013  09:13:00       -6.763        5.657       22.163       32.726       26.760       28.657     1070.975      716.087      821.229        0.159        0.130        8.817       21.978        6.213      337.051        8.766      873.085
10/05/2013  09:14:00       42.401       16.443       31.363       40.549       43.700       32.006     1644.204     1909.686     1024.398        0.381        0.229       45.478       28.645        0.397      336.879        8.478      873.095
10/05/2013  09:15:00       28.914       59.356       61.873       43.370       49.717       43.882     1880.945     2471.756     1925.589        0.723        0.314       66.024       36.172        0.300      337.176        8.975      873.111
10/05/2013  09:16:00       20.548       46.596       63.154       40.099       60.122       28.520     1607.953     3614.629      813.390        0.631        0.302       50.926       26.358        0.268      336.896        8.506      873.115
10/05/2013  09:17:00       24.858        1.152       44.451       30.998       60.794       43.884      960.852     3695.872     1925.794        0.459        0.329       24.885       39.600        2.532      336.697        8.173      873.126
10/05/2013  09:18:00       27.734       50.913       53.286       33.607       33.797       29.724     1129.402     1142.259      883.516        0.468        0.158       57.977       23.535        0.165      336.794        8.336      873.126
10/05/2013  09:19:00       60.517       41.311       20.892       23.544       17.973       26.638      554.318      323.017      709.569        0.370        0.079       73.273       17.167        0.055      336.493        7.831      873.117
10/05/2013  09:20:00        5.263      -66.098       -6.229       23.297       58.377       26.930      542.755     3407.856      725.230        0.455        0.234       66.307       31.404        0.224      336.735        8.236      873.118
10/05/2013  09:21:00       19.761       -5.612       40.748       34.321       39.005       33.536     1177.905     1521.402     1124.659        0.295        0.191       20.542       29.216        2.023      337.174        8.971      873.127
10/05/2013  09:22:00       18.056        9.141       17.348       15.587       39.500       21.580      242.947     1560.224      465.694        0.149        0.113       20.238       15.260        0.569      336.663        8.116      873.143
10/05/2013  09:23:00       24.020       29.946       23.849       23.167       22.443       18.908      536.691      503.690      357.521        0.172        0.070       38.389        3.746        0.010      336.909        8.526      873.146
10/05/2013  09:24:00       18.223       39.081       60.299       34.586       29.395       27.666     1196.173      864.081      765.400        0.416        0.141       43.121       23.569        0.299      337.083        8.818      873.154
10/05/2013  09:25:00       67.838       45.225       47.149       41.717       43.695       34.871     1740.343     1909.218     1215.962        0.687        0.243       81.531       23.479        0.083      336.611        8.029      873.165
10/05/2013  09:26:00       87.415       67.963       16.286       27.404       37.317       30.583      750.981     1392.535      935.293        0.780        0.154      110.727       20.604        0.035      336.661        8.112      873.167
10/05/2013  09:27:00       46.835       32.863       12.856       42.848       64.584       33.935     1835.923     4171.136     1151.614        0.530        0.358       57.215       19.117        0.112      336.828        8.393      873.158
10/05/2013  09:28:00       29.839       70.232       72.689       40.632       37.607       27.693     1650.966     1414.257      766.896        0.747        0.192       76.308       20.682        0.073      337.033        8.736      873.153
10/05/2013  09:29:00       24.606      -48.175        6.076       36.231       58.871       34.935     1312.697     3465.848     1220.441        0.448        0.300       54.095       42.606        0.620      336.975        8.637      873.148
10/05/2013  09:30:00       50.003      -26.213        5.691       30.177       62.610       41.696      910.676     3919.951     1738.571        0.489        0.328       56.457       45.195        0.641      337.112        8.866      873.139
10/05/2013  09:31:00       -5.681       57.382       87.208       25.812       42.122       34.184      666.270     1774.292     1168.529        0.727        0.180       57.662       34.612        0.360      337.531        9.569      873.133
10/05/2013  09:32:00       22.981       91.870       90.705       48.254       50.861       38.855     2328.406     2586.834     1509.710        1.181        0.321       94.701       34.968        0.136      337.072        8.799      873.129
10/05/2013  09:33:00       24.889       76.122       92.147       40.342       44.495       34.589     1627.445     1979.762     1196.395        0.985        0.240       80.088       27.246        0.116      337.173        8.969      873.131
10/05/2013  09:34:00       82.223       39.968       31.034       60.344       38.275       42.585     3641.400     1464.991     1813.452        0.812        0.346       91.422       36.686        0.161      336.976        8.637      873.153
10/05/2013  09:35:00       21.165       -9.763        2.799       28.547       28.220       22.073      814.940      796.342      487.225        0.132        0.105       23.309       16.231        0.485      337.183        8.986      873.161
10/05/2013  09:36:00       11.198       13.397       12.640       24.630       20.089       24.990      606.639      403.586      624.495        0.105        0.082       17.461       13.599        0.607      337.472        9.469      873.162
10/05/2013  09:37:00       25.937       31.312       10.860       33.625       30.266       25.505     1130.634      916.042      650.523        0.223        0.135       40.659       20.968        0.266      337.309        9.197      873.161
10/05/2013  09:38:00        9.562       45.692        2.376       27.760       36.088       27.260      770.604     1302.377      743.115        0.250        0.141       46.682       14.587        0.098      337.549        9.597      873.155
10/05/2013  09:39:00       29.621       31.603       12.473       35.002       34.197       21.984     1225.161     1169.461      483.309        0.245        0.144       43.315       20.695        0.228      337.542        9.587      873.141
10/05/2013  09:40:00       54.191       62.785       22.984       42.363       42.602       35.072     1794.626     1814.908     1230.031        0.612        0.242       82.937       25.949        0.098      337.613        9.706      873.138
10/05/2013  09:41:00       37.708       75.409       35.675       33.166       39.848       29.550     1099.968     1587.883      873.174        0.597        0.178       84.312       23.593        0.078      337.950       10.270      873.128
10/05/2013  09:42:00       36.862       67.966       26.632       40.812       36.978       30.072     1665.660     1367.401      904.342        0.531        0.197       77.319       18.775        0.059      337.899       10.185      873.127
10/05/2013  09:43:00       41.473       77.402       -2.317       41.280       37.023       23.569     1704.049     1370.705      555.506        0.567        0.182       87.813       11.697        0.018      337.617        9.712      873.127
10/05/2013  09:44:00       26.373      102.805       -9.215       38.135       42.194       28.349     1454.280     1780.299      803.674        0.769        0.202      106.134       25.900        0.060      337.416        9.375      873.125
10/05/2013  09:45:00       12.165       74.332        2.194       24.798       34.283       32.514      614.916     1175.346     1057.179        0.426        0.142       75.321       27.752        0.136      337.554        9.606      873.110
10/05/2013  09:46:00       10.260       64.248       31.226       27.520       33.463       54.086      757.356     1119.751     2925.302        0.500        0.240       65.062       16.292        0.063      337.656        9.778      873.105
10/05/2013  09:47:00       21.225       29.554       31.292       40.509       36.270       36.100     1640.971     1315.529     1303.184        0.328        0.213       36.386       23.345        0.412      338.023       10.393      873.104
10/05/2013  09:48:00        5.147        2.465       46.547       25.837       53.574       36.426      667.558     2870.163     1326.863        0.353        0.243        5.707       34.239       35.995      337.985       10.330      873.097
10/05/2013  09:49:00      115.193       90.899        1.534       44.501       30.205       37.732     1980.362      912.367     1423.678        1.292        0.216      146.738       22.399        0.023      337.348        9.262      873.096
10/05/2013  09:50:00       58.822       99.415        0.159       47.690       47.578       31.998     2274.321     2263.700     1023.840        0.945        0.278      115.514       24.477        0.045      337.459        9.448      873.091
10/05/2013  09:51:00       51.227        6.696       41.240       47.120       56.678       30.836     2220.265     3212.371      950.851        0.538        0.319       51.662       26.481        0.263      337.845       10.094      873.081
10/05/2013  09:52:00       52.955      -20.179       13.225       46.360       47.907       32.297     2149.239     2295.092     1043.110        0.444        0.274       56.669       36.475        0.414      337.742        9.920      873.072
10/05/2013  09:53:00       41.076       14.241        8.060       43.918       31.467       28.087     1928.754      990.152      788.889        0.283        0.185       43.475       26.196        0.363      337.770        9.969      873.058
10/05/2013  09:54:00       -6.153        9.501       19.540       36.831       17.806       22.603     1356.548      317.053      510.905        0.135        0.109       11.320       11.459        1.025      338.038       10.418      873.042
10/05/2013  09:55:00       17.520       20.626       27.933       53.287       58.922       52.615     2839.487     3471.777     2768.323        0.529        0.454       27.063       43.646        2.601      338.064       10.462      873.035
10/05/2013  09:56:00       60.803       62.623       73.259       47.311       47.587       45.842     2238.342     2264.479     2101.503        0.979        0.330       87.285       40.366        0.214      337.579        9.648      873.033
10/05/2013  09:57:00       44.070       61.399       51.245       37.364       40.914       36.026     1396.098     1673.917     1297.906        0.635        0.218       75.577       33.849        0.201      337.575        9.642      873.017
10/05/2013  09:58:00       61.337      -14.649       35.055       56.819       79.062       46.032     3228.413     6250.730     2118.929        0.840        0.580       63.062       53.443        0.718      337.769        9.967      873.005
10/05/2013  09:59:00       47.089      -28.974       36.166       41.233       61.312       44.940     1700.178     3759.197     2019.593        0.592        0.374       55.289       44.149        0.638      338.008       10.369      873.005
10/05/2013  10:00:00       45.127       44.669       42.340       56.163       42.543       28.705     3154.318     1809.913      824.006        0.581        0.289       63.497       31.635        0.248      338.202       10.694      873.003
10/05/2013  10:01:00      138.956       58.980       15.680       49.998       42.250       37.858     2499.814     1785.072     1433.233        1.437        0.286      150.955       21.475        0.020      337.496        9.508      872.997
10/05/2013  10:02:00      125.698       89.726        2.672       39.311       47.288       28.163     1545.366     2236.110      793.174        1.422        0.229      154.437       21.633        0.020      337.349        9.264      873.002
10/05/2013  10:03:00       35.512       46.766        4.998       35.207       68.517       31.035     1239.539     4694.643      963.191        0.518        0.345       58.721       35.789        0.371      337.901       10.188      873.001
10/05/2013  10:04:00       -4.692       78.499       -8.754       55.810       56.758       29.332     3114.805     3221.471      860.355        0.673        0.360       78.639       34.607        0.194      337.779        9.984      873.011
10/05/2013  10:05:00      -15.307       65.637       11.136       31.608       50.791       27.007      999.088     2579.765      729.403        0.449        0.215       67.398       31.744        0.222      338.433       11.082      873.016
10/05/2013  10:06:00       42.356       33.815        3.610       32.704       26.636       32.388     1069.534      709.451     1048.984        0.289        0.141       54.199       23.189        0.183      337.826       10.062      873.017
10/05/2013  10:07:00      -20.349      -28.856        2.297       14.498       25.908       17.656      210.202      671.248      311.734        0.122        0.060       35.309       12.424        0.124      337.631        9.736      873.004
10/05/2013  10:08:00      -33.797       34.077      -12.007       16.817       43.530       16.798      282.818     1894.863      282.158        0.245        0.123       47.994       14.464        0.091      337.695        9.841      872.994
10/05/2013  10:09:00      -39.084       23.104        3.186       22.192       34.706       29.205      492.472     1204.496      852.925        0.231        0.127       45.402       19.401        0.183      338.063       10.461      872.984
10/05/2013  10:10:00      -41.720        5.682      -14.368       18.161       32.451       13.477      329.819     1053.094      181.616        0.177        0.078       42.105        9.675        0.053      337.655        9.776      872.970
10/05/2013  10:11:00        1.863       83.046      -11.246       21.153       45.558       23.256      447.468     2075.576      540.823        0.504        0.153       83.067       24.621        0.088      338.012       10.375      872.961
10/05/2013  10:12:00      -32.948       22.703        1.964       28.387       26.199       22.828      805.846      686.381      521.111        0.181        0.101       40.013       20.769        0.269      338.373       10.980      872.952
10/05/2013  10:13:00       -3.573       85.094       10.540       45.726       45.227       31.220     2090.895     2045.457      974.690        0.624        0.256       85.169       27.692        0.106      338.478       11.158      872.948
10/05/2013  10:14:00       87.891       91.381       -1.531       64.863       41.212       35.418     4207.248     1698.399     1254.457        1.162        0.358      126.789       22.610        0.032      338.345       10.933      872.952
10/05/2013  10:15:00       40.054       48.369       14.583       63.522       43.322       34.172     4035.064     1876.780     1167.752        0.562        0.354       62.801       29.051        0.214      338.355       10.951      872.967
10/05/2013  10:16:00       38.846       21.195       18.526       33.562       26.820       20.938     1126.407      719.335      438.389        0.229        0.114       44.252       10.856        0.060      338.264       10.797      872.960
10/05/2013  10:17:00      114.584       83.154       11.833       41.233       28.291       36.018     1700.136      800.390     1297.288        1.199        0.190      141.577       18.122        0.016      338.096       10.516      872.954
10/05/2013  10:18:00      119.461       67.378       25.057       66.108       47.753       38.995     4370.329     2280.366     1520.633        1.380        0.409      137.152       17.243        0.016      338.043       10.425      872.948
10/05/2013  10:19:00      110.118       75.824       14.667       86.510       42.490       33.572     7484.055     1805.414     1127.088        1.425        0.521      133.698       30.103        0.051      338.266       10.800      872.933
10/05/2013  10:20:00      122.978       98.116       48.343       63.056       31.991       54.806     3976.068     1023.403     3003.708        1.754        0.400      157.323       38.665        0.060      337.929       10.235      872.916
10/05/2013  10:21:00       52.271       48.592       49.336       39.721       32.367       46.711     1577.755     1047.628     2181.918        0.617        0.240       71.368       24.788        0.121      338.119       10.553      872.905
10/05/2013  10:22:00       49.324       19.800       16.819       34.829       25.397       21.632     1213.057      644.993      467.930        0.272        0.116       53.150       17.903        0.113      338.112       10.543      872.891
10/05/2013  10:23:00       67.640       58.936       -3.614       48.690       39.932       32.015     2370.757     1594.568     1024.977        0.652        0.250       89.714       21.164        0.056      338.437       11.087      872.880
10/05/2013  10:24:00       60.661       65.521       14.020       46.605       32.816       36.171     2172.067     1076.882     1308.325        0.636        0.228       89.290       18.441        0.043      338.689       11.512      872.878
10/05/2013  10:25:00       41.098       55.694        4.803       39.330       40.073       45.519     1546.821     1605.846     2072.013        0.502        0.261       69.216       33.380        0.233      338.471       11.145      872.880
10/05/2013  10:26:00       51.095       34.014      -12.669       27.660       34.199       33.181      765.055     1169.595     1101.003        0.348        0.152       61.381       24.062        0.154      338.140       10.590      872.869
10/05/2013  10:27:00        9.323       71.699       -7.512       26.782       47.015       28.076      717.257     2210.376      788.271        0.450        0.186       72.303       32.909        0.207      338.275       10.817      872.857
10/05/2013  10:28:00       20.916       41.733       27.813       49.779       44.586       37.953     2477.932     1987.926     1440.439        0.443        0.295       46.681       26.703        0.327      339.005       12.042      872.846
10/05/2013  10:29:00      108.221       52.636        3.250       36.082       46.106       27.712     1301.920     2125.718      767.967        0.934        0.210      120.343       17.675        0.022      338.085       10.497      872.846
10/05/2013  10:30:00      -12.731       10.329      -18.224       31.322       35.155       16.377      981.047     1235.856      268.220        0.154        0.124       16.395       18.672        1.297      338.196       10.682      872.834
10/05/2013  10:31:00      -12.245      -16.493        3.283       31.672       42.445       27.673     1003.087     1801.557      765.801        0.200        0.179       20.541       12.482        0.369      338.741       11.598      872.818
10/05/2013  10:32:00       29.885       13.466       30.877       42.023       54.928       38.004     1765.940     3017.064     1444.305        0.413        0.311       32.779       24.972        0.580      338.956       11.960      872.814
10/05/2013  10:33:00       79.341       71.306       55.401       65.312       54.649       44.453     4265.666     2986.539     1976.060        1.184        0.461      106.675       33.687        0.100      338.790       11.681      872.810
10/05/2013  10:34:00       99.022       48.160        1.946       73.906       45.249       44.206     5462.127     2047.442     1954.147        1.079        0.473      110.113       26.158        0.056      338.327       10.902      872.807
10/05/2013  10:35:00       80.455       56.768       30.996       43.311       35.242       22.797     1875.811     1241.967      519.711        0.715        0.182       98.466       23.562        0.057      338.398       11.023      872.814
10/05/2013  10:36:00       75.237       52.623       20.701       71.161       54.175       40.426     5063.864     2934.973     1634.267        0.924        0.482       91.814       33.199        0.131      338.564       11.302      872.815
10/05/2013  10:37:00       40.349        5.823       63.141       49.885       88.146       49.824     2488.477     7769.788     2482.438        0.919        0.637       40.767       44.066        1.168      338.765       11.638      872.802
10/05/2013  10:38:00       22.839      -55.095       14.205       51.800       84.862       47.878     2683.189     7201.574     2292.330        0.797        0.609       59.641       37.597        0.397      338.604       11.370      872.793
10/05/2013  10:39:00       84.107       20.697       24.525       64.514       74.039       43.940     4162.090     5481.836     1930.733        0.984        0.579       86.616       16.271        0.035      338.581       11.329      872.790
10/05/2013  10:40:00      128.908       99.393       38.305       39.955       29.418       35.889     1596.394      865.422     1288.010        1.586        0.187      162.777       21.676        0.018      338.345       10.933      872.791
10/05/2013  10:41:00       41.064       73.922       49.215       44.536       39.543       46.747     1983.464     1563.678     2185.329        0.765        0.287       84.562       29.655        0.123      338.893       11.854      872.788
10/05/2013  10:42:00       48.426       78.114       59.121       63.340       50.872       31.293     4011.928     2587.912      979.274        0.976        0.379       91.907       25.325        0.076      339.122       12.239      872.770
10/05/2013  10:43:00       91.847       34.535        6.156       59.115       47.918       26.920     3494.609     2296.090      724.698        0.809        0.326       98.126       18.069        0.034      338.858       11.795      872.781
10/05/2013  10:44:00       86.393       65.199       36.320       51.772       42.829       43.784     2680.389     1834.318     1917.067        0.973        0.322      108.234       22.813        0.044      338.958       11.964      872.780
10/05/2013  10:45:00       34.970       39.498       74.480       46.596       42.080       35.472     2171.158     1770.730     1258.269        0.676        0.260       52.754       22.623        0.184      339.462       12.811      872.786
10/05/2013  10:46:00       74.008       55.504       44.236       64.139       45.480       50.929     4113.755     2068.416     2593.809        0.964        0.439       92.508       41.294        0.199      339.207       12.383      872.791
10/05/2013  10:47:00      116.826       76.775       30.429       77.566       57.255       55.169     6016.470     3278.107     3043.634        1.640        0.617      139.795       24.935        0.032      338.893       11.853      872.786
10/05/2013  10:48:00      158.849      106.777       14.300       67.298       49.476       53.264     4528.991     2447.852     2837.076        2.332        0.491      191.401       33.649        0.031      338.742       11.598      872.778
10/05/2013  10:49:00       82.379       92.550       22.392       77.725       47.279       42.840     6041.186     2235.329     1835.264        1.298        0.506      123.902       32.275        0.068      338.785       11.671      872.778
10/05/2013  10:50:00       97.257       76.917       22.325       68.563       42.490       45.310     4700.911     1805.418     2053.006        1.221        0.428      123.996       28.760        0.054      338.931       11.918      872.778
10/05/2013  10:51:00       94.186      -10.765       21.875       77.859       78.198       53.985     6062.006     6114.963     2914.409        1.228        0.755       94.799       49.330        0.271      339.143       12.274      872.771
10/05/2013  10:52:00      170.948      111.773       13.229       79.660       68.479       53.594     6345.662     4689.426     2872.362        2.790        0.695      204.246       28.767        0.020      338.881       11.831      872.779
10/05/2013  10:53:00       88.670       31.253       17.166       84.876       70.491       40.323     7203.951     4968.921     1625.942        1.146        0.690       94.017       40.678        0.187      339.141       12.270      872.771
10/05/2013  10:54:00       26.308      -11.754       -1.043       51.687       53.988       33.016     2671.584     2914.695     1090.075        0.375        0.334       28.814       18.457        0.410      339.289       12.521      872.764
10/05/2013  10:55:00       55.086      -64.735        9.428       41.878       65.693       41.292     1753.800     4315.545     1705.057        0.754        0.389       85.000       36.704        0.186      339.143       12.274      872.761
10/05/2013  10:56:00       42.278      -92.437       -4.439       44.262       30.782       19.760     1959.083      947.545      390.445        0.682        0.165      101.647       18.018        0.031      338.626       11.405      872.767
10/05/2013  10:57:00       55.021       46.983       15.684       60.682       46.270       33.740     3682.297     2140.875     1138.399        0.622        0.348       72.351       31.177        0.186      339.326       12.582      872.753
10/05/2013  10:58:00       92.757       81.097        4.949       54.215       30.469       35.354     2939.310      928.337     1249.895        1.016        0.256      123.209       10.898        0.008      339.003       12.039      872.741
10/05/2013  10:59:00       58.124       49.916        3.364       53.601       38.409       37.094     2873.073     1475.275     1375.936        0.580        0.286       76.616       29.755        0.151      339.060       12.133      872.724
10/05/2013  11:00:00      -66.933       54.671       -6.958       47.563       56.511       30.429     2262.255     3193.487      925.954        0.695        0.319       86.423       30.571        0.125      339.097       12.197      872.703
10/05/2013  11:01:00       58.259       75.819       82.059       80.640       72.360       66.622     6502.843     5235.995     4438.501        1.602        0.809       95.617       60.717        0.403      339.671       13.165      872.684
10/05/2013  11:02:00      153.947      176.817       85.557      120.378       86.107       95.574    14490.908     7414.380     9134.391        4.666        1.552      234.444       84.098        0.129      339.142       12.270      872.675
10/05/2013  11:03:00      139.690      148.950      116.751      102.067       76.290       69.506    10417.645     5820.192     4831.085        3.820        1.053      204.205       37.557        0.034      339.132       12.253      872.675
10/05/2013  11:04:00      121.093      170.795      174.440      118.988      100.490       90.353    14158.236    10098.213     8163.638        5.334        1.621      209.366       84.533        0.163      339.075       12.156      872.683
10/05/2013  11:05:00      124.964       80.432       65.928       69.970       76.468       45.208     4895.871     5847.370     2043.752        1.961        0.639      148.612       52.775        0.126      338.898       11.861      872.704
10/05/2013  11:06:00       61.615     -116.028       13.429       29.393       64.714       38.633      863.958     4187.840     1492.483        1.199        0.327      131.373       43.240        0.108      339.128       12.249      872.697
10/05/2013  11:07:00       40.254     -100.357      -14.823       51.845       42.057       33.107     2687.870     1768.827     1096.106        0.873        0.278      108.129       27.993        0.067      339.231       12.422      872.698
10/05/2013  11:08:00      -38.857      -60.431       -6.920       44.126       34.642       25.074     1947.130     1200.059      628.694        0.449        0.189       71.845       18.472        0.066      339.384       12.680      872.685
10/05/2013  11:09:00     -127.619      -78.872        2.671       96.099       83.184       47.511     9234.988     6919.657     2257.342        2.046        0.921      150.025       57.680        0.148      339.243       12.442      872.662
10/05/2013  11:10:00       67.965      -23.430       47.372      123.467       95.544       63.935    15244.177     9128.654     4087.662        1.793        1.423       71.891       50.631        0.496      339.730       13.263      872.677
10/05/2013  11:11:00       85.434      -76.164       27.598       92.086      107.096       63.132     8479.839    11469.551     3985.619        1.889        1.197      114.455       80.065        0.489      339.870       13.499      872.660
10/05/2013  11:12:00       86.029       56.569       73.501       66.058       74.971       50.874     4363.627     5620.616     2588.127        1.429        0.629      102.962       37.626        0.134      339.858       13.479      872.679
10/05/2013  11:13:00      120.864       49.336       72.450       97.893       61.089       62.442     9583.130     3731.882     3898.964        1.975        0.861      130.546       32.291        0.061      339.419       12.738      872.685
10/05/2013  11:14:00      180.753      114.402       16.820       72.068       65.889       55.098     5193.790     4341.384     3035.804        2.930        0.629      213.915       37.681        0.031      339.216       12.395      872.677
10/05/2013  11:15:00      259.350      164.226       10.171       77.180       52.581       52.993     5956.731     2764.786     2808.250        5.293        0.576      306.973       15.383        0.003      339.139       12.263      872.649
10/05/2013  11:16:00      158.677      123.176       94.726       87.208       94.008       80.355     7605.150     8837.465     6456.902        3.611        1.145      200.875       66.215        0.109      339.519       12.904      872.651
10/05/2013  11:17:00       80.644      117.017      102.801       85.695       53.485       51.372     7343.622     2860.674     2639.081        2.180        0.642      142.115       46.703        0.108      339.439       12.771      872.657
10/05/2013  11:18:00      103.855       48.854       34.046       61.623       57.989       45.267     3797.341     3362.729     2049.098        1.177        0.460      114.772       40.069        0.122      339.487       12.855      872.652
10/05/2013  11:19:00      119.655       67.612       25.566       91.568       66.758       50.336     8384.608     4456.624     2533.749        1.746        0.769      137.436       30.628        0.050      339.385       12.681      872.642
10/05/2013  11:20:00       34.997       23.692       33.179       59.113       39.853       37.126     3494.382     1588.254     1378.340        0.467        0.323       42.262       23.588        0.312      339.871       13.501      872.625
10/05/2013  11:21:00       42.979       44.193       76.454       61.546      139.182       87.386     3787.870    19371.663     7636.250        2.021        1.540       61.646       97.395        2.496      339.729       13.260      872.611
10/05/2013  11:22:00       69.842        9.914       48.931       65.388       65.464       41.556     4275.641     4285.565     1726.898        0.883        0.514       70.542       39.935        0.320      339.718       13.242      872.606
10/05/2013  11:23:00       50.085       50.221       55.492       39.257       34.693       32.231     1541.103     1203.582     1038.805        0.595        0.189       70.927        9.965        0.020      339.787       13.360      872.584
10/05/2013  11:24:00        0.025      -15.311       40.251       38.121       80.678       38.333     1453.228     6508.933     1469.443        0.564        0.472       15.311       46.611        9.267      340.148       13.968      872.568
10/05/2013  11:25:00       60.925       -1.488       55.464       55.829       48.087       31.700     3116.875     2312.329     1004.911        0.661        0.322       60.944       31.673        0.270      339.898       13.548      872.578
10/05/2013  11:26:00       35.633       60.349      -14.848       25.331       25.537       24.443      641.672      652.132      597.451        0.351        0.095       70.084       18.591        0.070      339.160       12.305      872.565
10/05/2013  11:27:00        6.157       13.048       29.378       23.020       33.415       24.075      529.916     1116.538      579.610        0.165        0.111       14.427       16.930        1.377      340.034       13.776      872.557
10/05/2013  11:28:00       42.098       58.227       48.563       49.455       32.890       36.791     2445.764     1081.784     1353.561        0.620        0.244       71.851       30.635        0.182      339.701       13.215      872.549
10/05/2013  11:29:00       72.224       43.219       56.568       47.482       31.418       42.319     2254.544      987.108     1790.919        0.766        0.252       84.167       19.945        0.056      339.622       13.081      872.533
10/05/2013  11:30:00       25.693      -43.924       14.527       47.072       47.457       35.780     2215.729     2252.170     1280.228        0.427        0.287       50.887       15.198        0.089      339.567       12.990      872.533
10/05/2013  11:31:00       37.991      -42.270       10.586       36.231       33.497       29.107     1312.719     1122.021      847.215        0.331        0.164       56.833       22.728        0.160      339.818       13.412      872.532
10/05/2013  11:32:00       13.419       31.421       65.293       34.103       45.619       33.125     1163.043     2081.098     1097.272        0.489        0.217       34.166       25.273        0.547      340.232       14.112      872.514
10/05/2013  11:33:00       -3.427     -112.658        4.169       54.632       47.585       34.846     2984.700     2264.369     1214.224        0.959        0.323      112.710       22.217        0.039      339.651       13.131      872.523
10/05/2013  11:34:00       48.584      -46.490       43.503       49.944      104.326       65.026     2494.438    10883.933     4228.431        1.201        0.880       67.244       64.509        0.920      340.071       13.839      872.527
10/05/2013  11:35:00       47.607       14.064       52.714       39.603       48.252       34.894     1568.373     2328.271     1217.622        0.518        0.256       49.641       29.660        0.357      340.067       13.831      872.519
10/05/2013  11:36:00       21.964       19.141       27.607       55.309       47.786       24.608     3059.133     2283.549      605.558        0.378        0.297       29.134       18.026        0.383      339.844       13.457      872.503
10/05/2013  11:37:00       11.927      -92.329      -10.749       77.313       64.035       27.714     5977.372     4100.527      768.038        0.981        0.542       93.096       19.228        0.043      339.756       13.307      872.491
10/05/2013  11:38:00      129.420      -75.885       -0.341       69.349       58.122       39.343     4809.317     3378.155     1547.843        1.612        0.487      150.027       42.320        0.080      339.702       13.217      872.498
10/05/2013  11:39:00       23.248      -66.251       -8.242       50.990       50.880       30.803     2599.990     2588.735      948.845        0.557        0.307       70.211       29.957        0.182      339.805       13.391      872.482
10/05/2013  11:40:00      -72.329      -35.050       11.806       52.944       32.455       31.660     2803.062     1053.320     1002.376        0.573        0.243       80.374       20.510        0.065      340.122       13.926      872.467
10/05/2013  11:41:00      -40.213      -37.197       10.855       68.544       33.969       28.615     4698.286     1153.895      818.812        0.489        0.334       54.779       30.107        0.302      340.184       14.031      872.462
10/05/2013  11:42:00       -7.518      -30.051        9.515       29.269       25.978       23.015      856.691      674.835      529.703        0.156        0.103       30.977       14.938        0.233      340.247       14.136      872.458
10/05/2013  11:43:00       71.436      -47.078       15.401       47.865       63.293       45.629     2291.084     4005.992     2081.983        0.797        0.419       85.554       49.798        0.339      339.924       13.591      872.446
10/05/2013  11:44:00       10.206       19.460       33.523       37.941       32.253       32.592     1439.513     1040.238     1062.208        0.257        0.177       21.973       26.231        1.425      340.445       14.472      872.426
10/05/2013  11:45:00      -30.867      -17.747        7.048       39.130       31.958       30.908     1531.146     1021.302      955.309        0.241        0.175       35.605       29.220        0.673      340.290       14.210      872.429
10/05/2013  11:46:00       -9.001       36.844       52.934       22.206       27.275       23.372      493.100      743.901      546.261        0.301        0.089       37.927       14.959        0.156      341.016       15.435      872.421
10/05/2013  11:47:00        9.474       60.697        6.120       39.230       41.406       35.764     1539.014     1714.459     1279.040        0.417        0.227       61.432       28.392        0.214      340.298       14.221      872.418
10/05/2013  11:48:00        9.747       -5.769       15.823       22.240       41.171       20.553      494.603     1695.060      422.434        0.149        0.131       11.326       13.525        1.426      340.768       15.017      872.388
10/05/2013  11:49:00       36.950       37.047        7.426       72.787       54.919       41.923     5297.954     3016.084     1757.542        0.643        0.504       52.323       30.888        0.348      340.500       14.564      872.374
10/05/2013  11:50:00       34.378       93.941      -14.543       41.405       54.201       28.793     1714.355     2937.775      829.026        0.785        0.274      100.034       15.087        0.023      340.152       13.976      872.364
10/05/2013  11:51:00      -34.966       52.202        1.602       45.657       47.302       37.606     2084.585     2237.494     1414.231        0.484        0.287       62.831       27.579        0.193      340.418       14.427      872.357
10/05/2013  11:52:00       11.963       67.976        9.401       41.558       48.177       33.721     1727.091     2321.042     1137.130        0.502        0.259       69.021       23.959        0.120      340.507       14.574      872.337
10/05/2013  11:53:00       34.593       49.364        4.548       52.574       52.760       41.494     2764.006     2783.642     1721.792        0.546        0.363       60.279       26.862        0.199      340.604       14.739      872.332
10/05/2013  11:54:00       81.150       56.001       57.666       61.560       45.381       41.502     3789.663     2059.392     1722.437        1.031        0.379       98.598       23.604        0.057      340.593       14.721      872.309
10/05/2013  11:55:00       78.124       23.162       24.957       62.880       40.677       41.469     3953.873     1654.582     1719.668        0.729        0.366       81.485       31.587        0.150      340.322       14.263      872.301
10/05/2013  11:56:00       19.738      -41.329        2.462       23.725       23.372       21.241      562.890      546.261      451.167        0.183        0.078       45.800       14.279        0.097      340.142       13.957      872.288
10/05/2013  11:57:00       72.644      -10.066       50.030       70.387      117.080       67.267     4954.336    13707.749     4524.834        1.553        1.159       73.338       67.927        0.858      340.427       14.439      872.264
10/05/2013  11:58:00       48.524      -21.796       71.995       71.065      123.096       59.025     5050.271    15152.667     3483.961        1.585        1.184       53.195       81.264        2.334      340.517       14.592      872.252
10/05/2013  11:59:00       23.563       93.928       97.383       56.075       54.813       49.736     3144.453     3004.520     2473.627        1.374        0.431       96.839       48.032        0.246      340.395       14.386      872.242
10/05/2013  12:00:00      -26.107      -46.119       18.459       32.144       61.398       34.757     1033.268     3769.656     1208.034        0.458        0.301       52.995       35.128        0.439      340.510       14.579      872.228
10/05/2013  12:01:00       25.148       34.335       69.289       62.638      108.755       66.180     3923.459    11827.706     4379.743        1.337        1.007       42.559       81.638        3.680      340.626       14.776      872.224
10/05/2013  12:02:00      133.714       71.356       78.124       67.175       61.996       65.801     4512.435     3843.511     4329.736        2.088        0.634      151.562       41.535        0.075      340.042       13.788      872.229
10/05/2013  12:03:00       43.990       29.016       63.084       49.473       79.269       59.768     2447.604     6283.640     3572.254        0.953        0.615       52.698       65.718        1.555      340.350       14.309      872.227
10/05/2013  12:04:00       -3.864       -4.554       15.272       27.737       21.243       22.915      769.330      451.250      525.092        0.101        0.087        5.973       18.964       10.082      341.076       15.539      872.199
10/05/2013  12:05:00        5.386      -24.469       15.743       40.995       47.960       24.759     1680.617     2300.155      613.009        0.273        0.230       25.054       27.165        1.176      341.242       15.820      872.175
10/05/2013  12:06:00       63.000      -17.578       36.481       42.448       45.425       41.917     1801.849     2063.451     1757.049        0.561        0.281       65.406       30.646        0.220      340.523       14.604      872.162
10/05/2013  12:07:00       12.124      -10.071      -23.756       18.343       34.619       14.345      336.483     1198.492      205.793        0.128        0.087       15.761        8.034        0.260      340.256       14.152      872.147
10/05/2013  12:08:00       39.199       46.637       49.997       31.330       43.874       37.315      981.593     1924.917     1392.407        0.525        0.215       60.923       31.629        0.270      340.391       14.378      872.126
10/05/2013  12:09:00      122.354       56.020       36.522       70.087       51.788       52.677     4912.162     2682.045     2774.857        1.490        0.518      134.568       43.146        0.103      340.355       14.318      872.134
10/05/2013  12:10:00       30.935       82.000      -20.104      101.766       55.416       26.300    10356.286     3070.933      691.699        1.110        0.706       87.641       42.530        0.235      340.053       13.809      872.103
10/05/2013  12:11:00       -0.277       43.129       -3.837       40.673      107.403       36.353     1654.319    11535.378     1321.554        0.819        0.726       43.130       22.568        0.274      340.600       14.733      872.063
10/05/2013  12:12:00      -41.158      -88.045       -9.640       67.674       48.551       29.176     4579.780     2357.177      851.245        0.866        0.389       97.190       19.580        0.041      340.625       14.774      872.052
10/05/2013  12:13:00       73.557     -133.410      -15.356       58.251       71.031       55.512     3393.130     5045.430     3081.637        1.748        0.576      152.345       47.054        0.095      340.559       14.661      872.057
10/05/2013  12:14:00       49.792     -116.875      -18.988       52.642       67.269       30.898     2771.215     4525.181      954.708        1.237        0.413      127.040       24.527        0.037      340.277       14.187      872.045
10/05/2013  12:15:00       26.743       34.843       32.129       48.994       37.137       46.639     2400.456     1379.176     2175.194        0.446        0.298       43.923       26.604        0.367      340.761       15.006      872.024
10/05/2013  12:16:00       17.716       43.962       18.936       54.532       33.555       33.539     2973.758     1125.962     1124.858        0.391        0.261       47.398       14.788        0.097      340.653       14.824      871.989
10/05/2013  12:17:00        0.557       42.024       -8.787       36.286       43.489       25.446     1316.698     1891.295      647.498        0.285        0.193       42.027       21.983        0.274      340.890       15.224      871.973
10/05/2013  12:18:00       91.537       58.050       54.267       63.766       47.173       45.165     4066.136     2225.277     2039.911        1.151        0.417      108.392       15.545        0.021      341.151       15.666      871.959
10/05/2013  12:19:00       43.821       38.719       57.633       54.392       35.866       27.235     2958.454     1286.390      741.740        0.586        0.249       58.476       28.298        0.234      340.993       15.398      871.951
10/05/2013  12:20:00       33.116       48.402       62.087       46.566       31.560       31.298     2168.351      996.061      979.583        0.572        0.207       58.646       33.169        0.320      340.982       15.379      871.934
10/05/2013  12:21:00       52.404       42.918       55.187       63.975       48.849       29.309     4092.798     2386.260      859.031        0.748        0.367       67.736       31.262        0.213      340.926       15.283      871.920
10/05/2013  12:22:00      101.794       25.351       20.410      109.211      104.740       52.849    11927.113    10970.378     2793.061        1.855        1.285      104.904       32.731        0.097      341.131       15.627      871.874
10/05/2013  12:23:00       38.335      -35.567       30.387       78.040       63.227       50.194     6090.283     3997.684     2519.464        0.813        0.630       52.294       52.928        1.024      341.181       15.716      871.873
10/05/2013  12:24:00       77.432      -24.970       21.777       57.534       67.855       43.943     3310.117     4604.277     1931.023        0.847        0.492       81.358       42.627        0.275      341.168       15.694      871.855
10/05/2013  12:25:00      159.824       68.246      108.039       98.735      138.774       84.751     9748.586    19258.166     7182.653        3.902        1.809      173.785       83.639        0.232      341.151       15.662      871.824
10/05/2013  12:26:00      146.125       67.684       57.795      142.770      102.475       78.477    20383.312    10501.069     6158.628        3.315        1.852      161.040       67.494        0.176      340.848       15.150      871.810
10/05/2013  12:27:00      105.514       65.507       51.304       62.934       55.119       52.780     3960.672     3038.115     2785.728        1.392        0.489      124.195       37.964        0.093      340.836       15.133      871.802
10/05/2013  12:28:00       77.954      -69.513       13.702       56.659      135.480       47.047     3210.192    18354.808     2213.391        1.743        1.189      104.446       60.897        0.340      340.804       15.077      871.773
10/05/2013  12:29:00       33.749       36.880       88.640       50.803       92.327       59.599     2580.913     8524.359     3552.004        1.250        0.733       49.991       60.392        1.459      341.336       15.978      871.759
10/05/2013  12:30:00       13.043      -33.226       28.503       40.451       71.473       29.900     1636.269     5108.365      894.009        0.486        0.382       35.695       27.450        0.591      341.355       16.009      871.737
10/05/2013  12:31:00       77.263       72.417       36.037       70.595       67.534       46.748     4983.645     4560.892     2185.414        1.212        0.586      105.895       33.503        0.100      341.035       15.468      871.724
10/05/2013  12:32:00      -24.710       54.970      -29.231       48.766       45.873       23.838     2378.134     2104.294      568.251        0.477        0.253       60.268       19.667        0.106      340.665       14.843      871.696
10/05/2013  12:33:00       62.795       37.852       11.634       64.433       51.406       36.076     4151.641     2642.580     1301.500        0.680        0.405       73.321       23.825        0.106      341.174       15.703      871.649
10/05/2013  12:34:00       66.943       20.878       17.805       73.290       89.816       33.710     5371.490     8066.942     1136.363        0.990        0.729       70.124       25.459        0.132      341.168       15.694      871.637
10/05/2013  12:35:00       36.469      113.637      112.219       59.466       49.136       33.501     3536.147     2414.329     1122.304        1.695        0.354      119.346       26.441        0.049      341.269       15.864      871.627
10/05/2013  12:36:00       13.567       80.475       81.614       55.019       42.094       38.753     3027.042     1771.924     1501.791        0.981        0.315       81.610       36.319        0.198      341.309       15.931      871.613
10/05/2013  12:37:00       95.968      126.106      107.891      112.714       73.493       70.686    12704.477     5401.213     4996.558        2.992        1.155      158.470       58.142        0.135      341.199       15.744      871.607
10/05/2013  12:38:00      159.522       51.568       29.410       82.456       72.662       59.407     6798.931     5279.808     3529.172        2.229        0.780      167.651       43.337        0.067      340.968       15.353      871.583
10/05/2013  12:39:00       67.047       -6.533       37.056       62.343       76.962       56.310     3886.631     5923.106     3170.789        0.944        0.649       67.365       41.978        0.388      341.108       15.591      871.583
10/05/2013  12:40:00       36.114     -101.471       14.284       78.065      142.462       65.485     6094.220    20295.305     4288.316        2.124        1.534      107.706       81.908        0.578      341.159       15.677      871.571
10/05/2013  12:41:00      112.737     -144.902      -13.147       68.320       81.328       41.538     4667.564     6614.270     1725.376        2.344        0.650      183.592       44.307        0.058      341.124       15.616      871.581
10/05/2013  12:42:00       19.223       19.934       15.192       30.669       40.158       34.660      940.567     1612.690     1201.305        0.238        0.188       27.693       26.961        0.948      341.229       15.798      871.571
10/05/2013  12:43:00       63.754       21.435       60.631       75.503      103.383       52.047     5700.718    10688.067     2708.935        1.365        0.955       67.261       50.429        0.562      340.862       15.175      871.560
10/05/2013  12:44:00      122.474     -204.216      -13.666       66.060       55.696       38.550     4363.943     3102.011     1486.123        3.292        0.448      238.126       32.449        0.019      340.774       15.022      871.536
10/05/2013  12:45:00       63.663     -124.020       20.654       54.864       78.740       48.524     3010.069     6200.033     2354.542        1.571        0.578      139.406       46.243        0.110      341.177       15.708      871.522
10/05/2013  12:46:00       16.036      -24.033       30.620       66.856       78.365       52.644     4469.780     6141.055     2771.372        0.757        0.669       28.891       51.594        3.189      341.502       16.260      871.495
10/05/2013  12:47:00       -1.301      -10.392       23.949       53.082       71.619       40.000     2817.651     5129.268     1600.033        0.511        0.477       10.473       26.091        6.206      341.551       16.341      871.466
10/05/2013  12:48:00       82.045       62.160       54.921       76.078       63.188       66.039     5787.872     3992.711     4361.146        1.387        0.707      102.934       42.723        0.172      341.257       15.844      871.463
10/05/2013  12:49:00        9.897       11.206       10.099       19.854       29.313       21.645      394.165      859.239      468.495        0.102        0.086       14.950       20.698        1.917      341.550       16.342      871.438
10/05/2013  12:50:00       51.152       65.335       92.835       99.730       87.003       66.710     9945.996     7569.450     4450.266        1.873        1.098       82.977       64.308        0.601      341.345       15.992      871.417
10/05/2013  12:51:00      208.762       77.004       77.457       86.127      117.191       76.289     7417.933    13733.806     5819.995        4.124        1.349      222.511       62.214        0.078      340.917       15.265      871.398
10/05/2013  12:52:00       86.828      -25.223       49.361       89.337       68.822       43.484     7981.159     4736.515     1890.896        1.261        0.730       90.417       34.793        0.148      341.102       15.581      871.385
10/05/2013  12:53:00      155.906     -230.508      -19.895      120.396      178.794       86.696    14495.212    31967.421     7516.113        6.590        2.699      278.282       97.961        0.124      341.062       15.511      871.360
10/05/2013  12:54:00       92.481      -50.920       43.495       88.955       85.031       64.523     7912.954     7230.320     4163.164        1.617        0.965      105.572       63.491        0.362      341.371       16.037      871.363
10/05/2013  12:55:00       74.981      -19.202       28.075       75.335      101.792       62.560     5675.364    10361.621     3913.802        1.336        0.998       77.401       67.377        0.758      341.305       15.925      871.345
10/05/2013  12:56:00       33.073      -13.994       37.919       75.795       89.127       49.669     5744.840     7943.705     2466.967        0.944        0.808       35.911       54.143        2.273      341.407       16.096      871.319
10/05/2013  12:57:00       96.765      -66.810       34.604       76.854      174.925       91.441     5906.477    30598.786     8361.380        2.994        2.243      117.589      118.499        1.016      341.271       15.865      871.301
10/05/2013  12:58:00      165.800        1.695       61.205      113.547       71.158       56.593    12892.842     5063.500     3202.796        2.619        1.058      165.809       45.532        0.075      341.257       15.842      871.293
10/05/2013  12:59:00       87.194       33.619       76.062       70.265      116.895       61.136     4937.206    13664.486     3737.601        1.842        1.117       93.451       72.063        0.595      341.262       15.852      871.279
10/05/2013  13:00:00      156.974      108.147       87.503      102.834       69.483       80.323    10574.931     4827.856     6451.749        3.292        1.093      190.622       59.497        0.097      341.208       15.758      871.266
10/05/2013  13:01:00      155.705       60.793       63.527       67.679       89.299       67.119     4580.422     7974.346     4505.018        2.451        0.853      167.152       49.027        0.086      341.074       15.533      871.276
10/05/2013  13:02:00       58.458      -95.060       -4.775       47.291       56.026       36.409     2236.402     3138.910     1325.629        0.959        0.335      111.596       29.603        0.070      341.018       15.440      871.268
10/05/2013  13:03:00      -18.250        8.815       17.280       59.582       47.217       44.861     3549.981     2229.440     2012.503        0.425        0.390       20.267       33.789        2.780      341.410       16.104      871.223
10/05/2013  13:04:00      -24.344      -16.985       22.522       62.791       32.037       27.951     3942.701     1026.368      781.272        0.357        0.288       29.684       15.514        0.273      341.523       16.295      871.194
10/05/2013  13:05:00       20.527      -91.348      -13.138       28.839       49.867       36.952      831.670     2486.748     1365.479        0.681        0.234       93.626       18.849        0.041      341.225       15.790      871.185
10/05/2013  13:06:00       77.078      -18.463       31.319       66.658       67.626       46.084     4443.223     4573.294     2123.769        0.920        0.557       79.258       50.270        0.402      341.583       16.396      871.169
10/05/2013  13:07:00      -12.631       20.463       27.438       48.208       33.900       35.169     2323.994     1149.182     1236.890        0.302        0.236       24.048       31.272        1.691      341.606       16.435      871.154
10/05/2013  13:08:00       28.806       19.126       13.890       83.189       49.623       38.538     6920.439     2462.439     1485.154        0.613        0.543       34.577       26.142        0.572      341.506       16.265      871.115
10/05/2013  13:09:00      141.404       94.621       39.288       66.666       46.967       56.210     4444.386     2205.896     3159.609        2.015        0.490      170.142       37.937        0.050      341.494       16.244      871.096
10/05/2013  13:10:00      126.877     -105.626       36.366      129.390      170.494       90.614    16741.833    29068.299     8210.851        4.129        2.701      165.090      117.380        0.506      341.609       16.439      871.077
10/05/2013  13:11:00      271.555     -355.995      -49.635       69.114       71.721       37.078     4776.770     5143.918     1374.796       10.711        0.565      447.744       27.896        0.004      341.160       15.676      871.038
10/05/2013  13:12:00      168.766     -161.842       -3.842      108.749      137.638       57.006    11826.285    18944.233     3249.737        4.435        1.701      233.827       71.111        0.092      341.368       16.030      871.030
10/05/2013  13:13:00       97.278      -50.701       51.261       85.685      114.321       77.510     7341.927    13069.340     6007.828        2.053        1.321      109.698       85.497        0.607      341.593       16.413      871.015
10/05/2013  13:14:00       49.169      -45.497       37.580       75.581      104.846       75.940     5712.505    10992.695     5766.815        1.418        1.124       66.989       78.326        1.367      341.724       16.634      870.999
10/05/2013  13:15:00       34.247        3.453       55.218       69.842       60.678       49.936     4877.866     3681.771     2493.563        0.764        0.553       34.420       45.565        1.752      341.860       16.867      871.004
10/05/2013  13:16:00       64.055       18.087       33.234       53.530       44.085       36.962     2865.480     1943.524     1366.222        0.585        0.309       66.560       37.466        0.317      341.328       15.965      871.001
10/05/2013  13:17:00       54.667       30.031       44.630       58.598       47.393       44.129     3433.722     2246.117     1947.382        0.675        0.381       62.373       38.009        0.371      341.182       15.717      870.986
10/05/2013  13:18:00       76.127      -30.245        6.648       91.047       68.870       40.734     8289.616     4743.052     1659.222        1.072        0.735       81.915       42.894        0.274      341.491       16.240      870.965
10/05/2013  13:19:00      116.592       49.919       85.742       94.833      111.024       76.743     8993.307    12326.439     5889.563        2.532        1.360      126.829       74.166        0.342      341.607       16.435      870.945
10/05/2013  13:20:00       81.205       44.922      107.573      100.960      127.592       87.513    10192.982    16279.604     7658.608        2.715        1.707       92.802       85.796        0.855      341.418       16.115      870.899
10/05/2013  13:21:00      144.056       13.032      112.870      126.388      132.744       99.090    15974.001    17620.846     9818.745        3.853        2.171      144.644       92.455        0.409      341.449       16.165      870.881
10/05/2013  13:22:00      202.693     -131.988       42.266      148.525      181.032       91.695    22059.768    32772.439     8407.997        6.175        3.162      241.879      112.964        0.218      341.717       16.620      870.839
10/05/2013  13:23:00      137.402      119.671      141.401      118.601      117.522       91.114    14066.312    13811.515     8301.805        4.468        1.809      182.210       85.243        0.219      341.736       16.652      870.867
10/05/2013  13:24:00      104.245      -27.162       52.309       87.956      127.939       76.114     7736.258    16368.361     5793.274        2.211        1.495      107.726       88.923        0.681      341.673       16.546      870.866
10/05/2013  13:25:00      140.411       12.687       79.768      120.104      107.679       75.800    14425.033    11594.665     5745.570        2.900        1.588      140.983       73.198        0.270      341.667       16.535      870.845
10/05/2013  13:26:00      138.939      134.146      126.925      116.407      101.467       80.497    13550.657    10295.586     6479.780        4.186        1.516      193.130       76.287        0.156      341.626       16.466      870.840
10/05/2013  13:27:00      100.016       81.927       91.371      110.044       95.939       62.469    12109.575     9204.307     3902.404        2.513        1.261      129.287       54.674        0.179      341.547       16.332      870.846
10/05/2013  13:28:00       84.343       65.307       20.846       58.528       49.109       28.477     3425.532     2411.660      810.953        0.923        0.332      106.671       35.704        0.112      341.170       15.696      870.820
10/05/2013  13:29:00      -13.498       37.398       -4.583       18.660       22.081       19.365      348.191      487.587      375.001        0.141        0.061       39.759       14.834        0.139      341.505       16.267      870.776
10/05/2013  13:30:00       11.277        5.670       -6.823       28.155       32.993       20.260      792.711     1088.521      410.479        0.125        0.115       12.622       19.016        2.270      341.661       16.530      870.720
10/05/2013  13:31:00       -6.293      -16.636        8.636       30.446       42.934       38.035      926.975     1843.291     1446.667        0.230        0.211       17.787       34.933        3.857      341.855       16.858      870.681
10/05/2013  13:32:00       40.655       58.733       11.133       37.280       39.710       27.895     1389.800     1576.879      778.117        0.448        0.187       71.431       20.503        0.082      341.786       16.741      870.679
10/05/2013  13:33:00        5.252      129.116       -7.957       76.419       66.024       38.648     5839.932     4359.199     1493.680        1.422        0.585      129.223       43.099        0.111      341.703       16.599      870.666
10/05/2013  13:34:00       94.026      107.961       -1.412       79.634       50.166       44.671     6341.560     2516.587     1995.492        1.567        0.543      143.166       28.232        0.039      341.832       16.817      870.630
10/05/2013  13:35:00      257.082      164.341       45.449      110.725       71.243       75.653    12259.920     5075.542     5723.328        5.911        1.153      305.122       44.724        0.021      341.854       16.853      870.601
10/05/2013  13:36:00      261.189      154.515       41.000      153.496      118.251       94.711    23561.029    13983.395     8970.122        7.014        2.326      303.471       60.111        0.039      341.919       16.963      870.574
10/05/2013  13:37:00       65.633       31.460       10.736       85.988       95.229       61.580     7393.854     9068.626     3792.071        1.283        1.013       72.784       44.649        0.376      341.983       17.073      870.566
10/05/2013  13:38:00       86.635       23.561       42.135      107.294       61.524       44.673    11512.102     3785.199     1995.665        1.356        0.865       89.782       50.213        0.313      341.923       16.972      870.559
10/05/2013  13:39:00       36.183      -90.328       17.333       55.166       65.631       45.247     3043.324     4307.412     2047.307        0.958        0.470       97.305       40.689        0.175      341.834       16.822      870.539
10/05/2013  13:40:00       55.962     -195.679      -15.324       71.045      109.766       50.484     5047.438    12048.517     2548.658        3.065        0.982      203.524       49.889        0.060      341.818       16.793      870.511
10/05/2013  13:41:00       -0.765       -9.255       35.847       29.229       31.167       28.140      854.310      971.360      791.873        0.199        0.131        9.287       16.007        2.971      342.209       17.459      870.485
10/05/2013  13:42:00       27.775        2.486       26.398       56.980       43.815       28.281     3246.704     1919.730      799.830        0.372        0.298       27.886       30.612        1.205      341.995       17.095      870.468
10/05/2013  13:43:00       81.833       -9.353       51.741       68.619       65.362       48.141     4708.581     4272.126     2317.535        1.038        0.565       82.366       42.083        0.261      341.852       16.853      870.456
10/05/2013  13:44:00      120.416     -202.624       -9.867       59.092      109.421       46.681     3491.873    11972.847     2179.085        3.665        0.882      235.704       49.427        0.044      341.976       17.058      870.450
10/05/2013  13:45:00       91.548      -78.510        5.521       67.303      113.594       57.985     4529.680    12903.684     3362.299        1.768        1.040      120.602       64.335        0.285      341.923       16.972      870.434
10/05/2013  13:46:00       25.077       10.352       64.394       64.120       88.764       61.644     4111.371     7879.109     3799.966        1.033        0.790       27.129       64.086        5.580      342.112       17.293      870.420
10/05/2013  13:47:00      162.408       93.231       70.652      109.601       74.369       64.991    12012.304     5530.744     4223.874        3.091        1.088      187.265       45.247        0.058      341.860       16.864      870.424
10/05/2013  13:48:00      166.437      138.650      111.637       96.798       83.517       80.766     9369.847     6975.091     6523.137        4.112        1.143      216.622       67.756        0.098      341.732       16.645      870.412
10/05/2013  13:49:00      127.276       94.532       61.405       99.013       66.495       62.598     9803.628     4421.642     3918.513        2.352        0.907      158.542       46.835        0.087      341.954       17.025      870.398
10/05/2013  13:50:00      106.446       65.865       53.427       66.111       62.420       56.575     4370.661     3896.238     3200.703        1.499        0.573      125.176       38.467        0.094      341.852       16.852      870.382
10/05/2013  13:51:00      141.641       53.062       39.471      100.480       71.007       37.159    10096.259     5042.033     1380.777        2.047        0.826      151.254       26.689        0.031      341.865       16.871      870.359
10/05/2013  13:52:00       35.693       25.203       44.692       63.894       52.053       33.107     4082.442     2709.473     1096.069        0.590        0.394       43.694       22.760        0.271      341.727       16.641      870.337
10/05/2013  13:53:00      100.152       80.036       25.019       33.691       26.647       36.157     1135.103      710.041     1307.294        1.011        0.158      128.204       15.208        0.014      341.451       16.173      870.317
10/05/2013  13:54:00       18.587       -3.010       -8.565       34.682       36.934       20.246     1202.869     1364.102      409.888        0.170        0.149       18.829       10.163        0.291      341.608       16.438      870.280
10/05/2013  13:55:00        3.293       37.205       58.242       39.292       53.681       49.397     1543.838     2881.699     2440.025        0.583        0.343       37.351       43.767        1.373      342.261       17.546      870.250
10/05/2013  13:56:00       69.378      115.798       90.962       60.565       59.977       65.832     3668.073     3597.283     4333.790        1.905        0.580      134.991       53.531        0.157      341.712       16.614      870.255
10/05/2013  13:57:00      140.118       96.542       67.477      122.913       75.747       59.738    15107.676     5737.681     3568.591        2.896        1.221      170.157       67.074        0.155      341.689       16.573      870.262
10/05/2013  13:58:00       95.661       91.593       30.664      108.077       69.328       56.478    11680.746     4806.436     3189.757        1.907        0.984      132.440       43.055        0.106      342.090       17.254      870.233
10/05/2013  13:59:00       56.480       78.112       19.523       50.200       65.403       39.820     2520.061     4277.557     1585.609        0.903        0.419       96.392       35.831        0.138      341.968       17.049      870.207
10/05/2013  14:00:00       36.135       42.759       34.023       79.570       62.743       45.081     6331.406     3936.629     2032.298        0.829        0.615       55.983       34.087        0.371      342.230       17.495      870.197
10/05/2013  14:01:00       57.863      104.222       86.354       86.451       85.660       85.021     7473.702     7337.692     7228.583        2.185        1.102      119.207       68.371        0.329      342.236       17.503      870.177
10/05/2013  14:02:00      114.131       76.889       81.170       81.494       87.630       61.446     6641.341     7678.942     3775.591        2.181        0.905      137.614       52.385        0.145      341.841       16.833      870.162
10/05/2013  14:03:00       72.852      -28.755       -0.030       28.499       23.072       23.465      812.194      532.330      550.610        0.401        0.095       78.322       20.032        0.065      341.571       16.376      870.142
10/05/2013  14:04:00       53.075      -58.539        0.445       67.295       34.870       25.716     4528.611     1215.924      661.294        0.632        0.320       79.017       26.194        0.110      341.568       16.372      870.108
10/05/2013  14:05:00       -4.781      -52.409        2.981       25.188       33.863       22.367      634.440     1146.690      500.301        0.253        0.114       52.626       16.656        0.100      342.041       17.174      870.081
10/05/2013  14:06:00       31.685      -28.920       14.216       59.916       58.921       33.793     3589.934     3471.638     1141.959        0.512        0.410       42.898       23.715        0.306      342.080       17.240      870.065
10/05/2013  14:07:00       73.201       67.658       54.122       51.072       47.331       49.106     2608.315     2240.182     2411.370        1.006        0.363       99.680       30.405        0.093      342.213       17.466      870.064
10/05/2013  14:08:00      146.965      109.287       58.185      117.233       81.452       69.414    13743.521     6634.477     4818.282        3.106        1.260      183.145       54.177        0.088      342.352       17.699      870.054
10/05/2013  14:09:00      147.842       95.587       30.227      107.410       71.337       57.061    11536.937     5088.952     3255.993        2.589        0.994      176.052       20.473        0.014      342.217       17.472      870.040
10/05/2013  14:10:00      153.447       94.401      108.043       91.728       90.132       81.150     8413.953     8123.826     6585.360        3.362        1.156      180.160       59.425        0.109      342.135       17.330      870.049
10/05/2013  14:11:00      182.722      196.787      160.727      126.654      115.672      128.331    16041.186    13380.109    16468.760        7.191        2.295      268.538       99.872        0.138      342.048       17.181      869.998
10/05/2013  14:12:00      103.956     -104.815       41.246      101.760      209.717      112.033    10355.143    43981.258    12551.457        4.518        3.344      147.624      130.038        0.776      342.237       17.504      870.010
10/05/2013  14:13:00       73.954     -128.043        0.305       66.239       72.420       34.762     4387.650     5244.698     1208.425        1.635        0.542      147.865       29.973        0.041      342.222       17.480      870.032
10/05/2013  14:14:00       36.097      -85.283       21.272       54.945       72.157       43.420     3018.914     5206.604     1885.327        0.957        0.506       92.608       48.307        0.272      342.250       17.529      870.003
10/05/2013  14:15:00      108.869       -6.981       55.734       96.237      110.618       64.618     9261.515    12236.365     4175.544        2.034        1.284      109.093       68.365        0.393      342.185       17.417      869.992
10/05/2013  14:16:00       -1.494       29.471       64.683       34.589       78.348       57.251     1196.417     6138.451     3277.679        0.783        0.531       29.508       58.944        3.990      342.344       17.687      870.000
10/05/2013  14:17:00       30.041       -5.613       23.437       49.088       40.504       37.664     2409.603     1640.597     1418.602        0.347        0.273       30.560       34.140        1.248      342.223       17.483      869.994
10/05/2013  14:18:00      222.167      102.880       63.219      173.493      105.997       80.184    30099.766    11235.307     6429.554        5.584        2.388      244.831       54.650        0.050      342.076       17.231      869.956
10/05/2013  14:19:00      130.249       49.951       71.432       67.268       79.266       71.469     4524.972     6283.135     5107.833        2.024        0.796      139.499       58.332        0.175      342.000       17.101      869.949
10/05/2013  14:20:00       67.688       39.998       57.488       64.806       91.137       54.408     4199.860     8305.867     2960.274        1.247        0.773       78.623       52.159        0.440      342.493       17.939      869.946
10/05/2013  14:21:00      101.791       56.571       64.244       87.531       76.279       61.143     7661.648     5818.541     3738.520        1.745        0.861      116.454       48.569        0.174      342.257       17.539      869.934
10/05/2013  14:22:00      108.374       39.505       35.078       77.922       48.043       48.655     6071.901     2308.084     2367.261        1.264        0.537      115.349       18.727        0.026      342.537       18.014      869.926
10/05/2013  14:23:00       77.329       59.596       28.835       74.602       61.555       35.021     5565.411     3788.982     1226.496        1.047        0.529       97.630       29.391        0.091      342.602       18.126      869.920
10/05/2013  14:24:00      142.180       88.467       25.555       85.977       74.493       62.988     7392.002     5549.272     3967.504        2.280        0.845      167.456       37.292        0.050      342.475       17.909      869.898
10/05/2013  14:25:00      209.061      114.125       24.262      111.730       72.539       71.143    12483.680     5261.873     5061.266        4.006        1.140      238.183       53.666        0.051      342.394       17.769      869.871
10/05/2013  14:26:00      191.729      132.011       34.151       82.248       78.544       52.265     6764.686     6169.121     2731.595        3.551        0.783      232.780       40.753        0.031      342.782       18.429      869.847
10/05/2013  14:27:00      296.263      233.017       32.586      129.608       97.106       83.364    16798.136     9429.642     6949.520        8.815        1.659      376.920       52.406        0.019      342.359       17.711      869.845
10/05/2013  14:28:00      159.563      107.798       -4.784      142.245       98.941       64.227    20233.690     9789.289     4125.147        3.562        1.707      192.563       36.987        0.037      342.422       17.817      869.828
10/05/2013  14:29:00       81.983      105.141       97.251       79.637       80.895       75.910     6342.002     6544.073     5762.334        2.294        0.932      133.326       31.433        0.056      342.416       17.808      869.818
10/05/2013  14:30:00      155.220       96.438       37.956       73.401       63.596       54.594     5387.742     4044.480     2980.479        2.362        0.621      182.738       42.866        0.055      342.428       17.828      869.803
10/05/2013  14:31:00       90.969       34.625       65.039       57.919       89.589       79.453     3354.660     8026.225     6312.721        1.570        0.885       97.336       69.452        0.509      342.361       17.716      869.804
10/05/2013  14:32:00      114.296       15.590       32.203       83.723       62.636       49.249     7009.479     3923.227     2425.429        1.385        0.668      115.355       43.941        0.145      342.313       17.635      869.788
10/05/2013  14:33:00      122.271       74.165       35.106      116.107       92.562       49.315    13480.893     8567.635     2432.006        2.308        1.224      143.006       17.699        0.015      342.801       18.464      869.782
10/05/2013  14:34:00       99.529       66.767       44.259      111.475       67.546       50.309    12426.747     4562.443     2530.953        1.792        0.976      119.849       37.380        0.097      342.721       18.328      869.776
10/05/2013  14:35:00       55.373       36.810      -15.469       62.688       35.649       34.637     3929.733     1270.856     1199.687        0.553        0.320       66.491       13.037        0.038      342.475       17.911      869.770
10/05/2013  14:36:00       84.307       69.683       13.695       66.888       86.865       51.479     4474.031     7545.545     2650.138        1.341        0.733      109.377       52.399        0.230      342.509       17.969      869.752
10/05/2013  14:37:00       77.193       43.363       41.039       64.943       66.586       50.929     4217.621     4433.631     2593.750        1.038        0.562       88.539       29.913        0.114      342.387       17.762      869.714
10/05/2013  14:38:00      207.754      126.330      115.237      133.177       91.486       90.354    17736.213     8369.758     8163.879        5.333        1.713      243.148       80.228        0.109      342.558       18.048      869.668
10/05/2013  14:39:00      115.716       60.367      109.077      120.747      138.459      102.278    14579.841    19170.808    10460.699        3.656        2.211      130.516      102.432        0.616      342.475       17.908      869.684
10/05/2013  14:40:00       55.830       -4.013       83.082       94.015      115.423       58.569     8838.772    13322.508     3430.315        1.781        1.280       55.975       64.973        1.347      342.566       18.065      869.696
10/05/2013  14:41:00       35.142      -57.948        5.292       39.637       50.039       33.762     1571.124     2503.947     1139.884        0.492        0.261       67.771       33.077        0.238      342.354       17.704      869.692
10/05/2013  14:42:00       88.165       31.829       28.404       69.133       50.622       50.495     4779.342     2562.619     2549.765        0.974        0.495       93.735       30.524        0.106      342.498       17.950      869.699
10/05/2013  14:43:00      191.118       82.517       24.708      117.112      109.511       56.956    13715.267    11992.595     3243.989        3.644        1.448      208.170       33.845        0.026      342.604       18.127      869.677
10/05/2013  14:44:00      148.592      115.669       55.483      119.328       85.704       75.376    14239.059     7345.228     5681.588        3.290        1.363      188.306       54.540        0.084      342.360       17.713      869.678
10/05/2013  14:45:00      138.724       85.357       48.267      103.790       88.264       61.261    10772.453     7790.521     3752.919        2.558        1.116      162.881       29.896        0.034      342.652       18.209      869.684
10/05/2013  14:46:00      139.018      121.927       93.116      117.519       72.069       64.532    13810.747     5193.903     4164.368        3.301        1.158      184.912       64.452        0.121      342.376       17.741      869.670
10/05/2013  14:47:00      173.090       92.141       32.161       66.760       42.923       50.823     4456.934     1842.415     2583.007        2.418        0.444      196.087       34.124        0.030      342.382       17.749      869.668
10/05/2013  14:48:00      128.590       69.319       48.955       91.776       59.779       58.875     8422.908     3573.565     3466.240        1.960        0.773      146.084       33.340        0.052      342.456       17.877      869.661
10/05/2013  14:49:00      122.677       67.927       47.371       80.479       64.009       57.552     6476.874     4097.177     3312.245        1.789        0.694      140.228       32.087        0.052      342.371       17.734      869.679
10/05/2013  14:50:00      103.062       48.732       55.379       83.173       86.338       61.367     6917.710     7454.209     3765.875        1.710        0.907      114.002       41.193        0.131      342.351       17.698      869.667
10/05/2013  14:51:00      163.557      130.277       67.402      110.929       78.449       68.990    12305.255     6154.218     4759.620        3.574        1.161      209.100       33.624        0.026      342.723       18.329      869.651
10/05/2013  14:52:00      299.179      195.822       25.496      121.936       97.980       88.159    14868.443     9600.094     7772.045        8.037        1.612      357.567       61.821        0.030      342.572       18.071      869.649
10/05/2013  14:53:00      204.888      135.893       14.029      114.805       86.746       74.676    13180.121     7524.873     5576.493        4.346        1.314      245.858       63.235        0.066      342.585       18.095      869.661
10/05/2013  14:54:00      167.826      108.784       23.658       60.273       39.702       38.630     3632.878     1576.260     1492.271        2.363        0.335      199.999       26.838        0.018      342.480       17.917      869.674
10/05/2013  14:55:00      194.052      126.643       45.227       93.442       70.227       40.407     8731.354     4931.857     1632.709        3.551        0.765      231.721       18.874        0.007      342.620       18.157      869.651
10/05/2013  14:56:00      118.564       76.032       34.305       68.537       56.212       57.181     4697.351     3159.842     3269.695        1.607        0.556      140.848       21.599        0.024      342.875       18.590      869.643
10/05/2013  14:57:00      166.414      100.921       60.769      188.864       91.562       66.656    35669.644     8383.530     4443.079        4.502        2.425      194.625       53.036        0.074      342.692       18.278      869.628
10/05/2013  14:58:00      258.201       76.510       36.356      155.143      116.620      103.160    24069.404    13600.248    10641.963        6.107        2.416      269.299       80.648        0.090      342.518       17.981      869.626
10/05/2013  14:59:00       75.617       30.429        9.097      102.658       65.257       41.029    10538.565     4258.427     1683.390        1.160        0.824       81.509       25.673        0.099      342.367       17.727      869.644
10/05/2013  15:00:00       36.912       14.024       21.516       32.562       36.142       25.095     1060.309     1306.227      629.748        0.251        0.150       39.487       22.355        0.321      342.612       18.144      869.618
10/05/2013  15:01:00       45.264       40.896       26.449       66.353       42.357       37.598     4402.668     1794.089     1413.587        0.601        0.381       61.002       11.363        0.035      342.974       18.760      869.617
10/05/2013  15:02:00      114.916       80.419       16.734       76.156       66.151       39.336     5799.704     4375.951     1547.332        1.584        0.586      140.260       14.224        0.010      342.889       18.612      869.603
10/05/2013  15:03:00      174.378       98.140       46.668      105.325       68.501       76.216    11093.303     4692.395     5808.929        3.190        1.080      200.098       61.274        0.094      342.651       18.207      869.590
10/05/2013  15:04:00      225.218      104.236       46.546      122.950       90.422       83.272    15116.696     8176.188     6934.280        4.698        1.511      248.170       55.424        0.050      342.515       17.977      869.584
10/05/2013  15:05:00      193.983       98.186       46.206       78.389       74.702       57.393     6144.857     5580.377     3293.990        3.221        0.751      217.416       35.606        0.027      342.595       18.111      869.585
10/05/2013  15:06:00      208.630      110.942       56.359       89.489       68.180       62.529     8008.266     4648.561     3909.827        3.779        0.828      236.293       35.761        0.023      342.722       18.327      869.584
10/05/2013  15:07:00      113.998      115.289       11.516      103.562       74.831       64.261    10725.048     5599.612     4129.481        2.343        1.023      162.132       53.112        0.107      342.712       18.312      869.573
10/05/2013  15:08:00      174.675      102.057       10.538       66.289       62.510       47.137     4394.216     3907.483     2221.858        2.578        0.526      202.304       36.897        0.033      342.624       18.161      869.557
10/05/2013  15:09:00       63.849       94.052        4.484       78.829       67.420       50.266     6214.024     4545.398     2526.657        1.311        0.664      113.677       29.534        0.067      342.826       18.508      869.552
10/05/2013  15:10:00       70.560       76.448        9.424       60.556       46.459       38.159     3666.995     2158.397     1456.105        0.910        0.364      104.033       27.293        0.069      342.750       18.378      869.545
10/05/2013  15:11:00       55.264       52.151       71.826       95.112       77.187       78.715     9046.331     5957.809     6195.978        1.606        1.060       75.985       43.743        0.331      343.016       18.831      869.514
10/05/2013  15:12:00      121.908      103.589       53.871       62.418       50.483       47.651     3896.004     2548.575     2270.595        1.860        0.436      159.976       14.359        0.008      342.744       18.367      869.525
10/05/2013  15:13:00       98.844      134.438      119.223       97.134      102.734       94.668     9434.958    10554.173     8961.957        3.550        1.448      166.864       80.292        0.232      342.619       18.154      869.500
10/05/2013  15:14:00      186.426      101.375       67.915      155.978       93.163       76.824    24329.247     8679.437     5901.999        4.427        1.946      212.207       77.779        0.134      342.423       17.821      869.506
10/05/2013  15:15:00      166.457      119.393       48.302       70.929       67.924       51.040     5030.919     4613.614     2605.058        2.827        0.612      204.848       35.222        0.030      342.686       18.265      869.510
10/05/2013  15:16:00      175.754       87.652       30.652       85.481       56.698       57.509     7306.928     3214.715     3307.313        2.667        0.691      196.398       37.701        0.037      343.082       18.940      869.511
10/05/2013  15:17:00      172.181       96.687       48.822       82.957       64.865       59.756     6881.831     4207.495     3570.818        2.802        0.733      197.471       41.531        0.044      343.144       19.046      869.517
10/05/2013  15:18:00       66.285       83.964       52.043       48.961       43.384       44.967     2397.149     1882.166     2022.075        1.023        0.315      106.975       23.643        0.049      342.900       18.633      869.519
10/05/2013  15:19:00       66.527       64.595       11.439       50.838       47.738       36.714     2584.548     2278.937     1347.934        0.747        0.311       92.728       22.106        0.057      342.870       18.582      869.498
10/05/2013  15:20:00       79.825       56.577       13.239       50.894       42.794       27.866     2590.203     1831.313      776.515        0.747        0.260       97.842       12.584        0.017      342.806       18.474      869.487
10/05/2013  15:21:00        9.064       67.545        1.742       43.604       40.874       25.482     1901.314     1670.688      649.338        0.443        0.211       68.151       21.329        0.098      343.016       18.830      869.481
10/05/2013  15:22:00       41.716        5.157       -0.787       24.623       22.088       20.947      606.300      487.901      438.762        0.165        0.077       42.033       15.807        0.141      342.857       18.560      869.472
10/05/2013  15:23:00       61.336        5.165       20.317       44.429       61.214       51.074     1973.910     3747.126     2608.505        0.626        0.416       61.553       32.792        0.284      342.494       17.943      869.477
10/05/2013  15:24:00       68.018       66.204       35.927       63.060       82.931       50.682     3976.608     6877.537     2568.630        1.186        0.671       94.918       26.763        0.080      342.867       18.577      869.449
10/05/2013  15:25:00       77.942       56.942       43.460       60.656       54.373       46.593     3679.142     2956.371     2170.919        1.000        0.440       96.526       41.885        0.188      343.044       18.877      869.456
10/05/2013  15:26:00       83.892       49.857       44.671       78.686       75.308       55.175     6191.545     5671.294     3044.243        1.321        0.745       97.589       42.632        0.191      343.173       19.098      869.450
10/05/2013  15:27:00      124.420      124.692      110.030      119.384       83.100       74.327    14252.571     6905.591     5524.536        3.490        1.334      176.149       73.711        0.175      342.666       18.233      869.442
10/05/2013  15:28:00      103.290      104.835       77.888       77.294       47.405       41.701     5974.324     2247.233     1738.938        1.884        0.498      147.171       37.437        0.065      342.596       18.115      869.432
10/05/2013  15:29:00       67.001       34.915       37.870       70.407       86.607       55.416     4957.134     7500.827     3070.882        1.133        0.776       75.552       34.354        0.207      342.973       18.757      869.422
10/05/2013  15:30:00       89.321       73.311       32.710       75.587       56.395       45.058     5713.410     3180.344     2030.190        1.267        0.546      115.554       23.361        0.041      342.989       18.785      869.429
10/05/2013  15:31:00      270.858      176.838       38.608      108.109       82.533       74.185    11687.552     6811.714     5503.440        6.506        1.200      323.475       43.102        0.018      342.835       18.520      869.399
10/05/2013  15:32:00      128.840      110.345       13.571       94.812       67.307       68.784     8989.322     4530.182     4731.271        2.360        0.913      169.635       53.459        0.099      343.030       18.852      869.373
10/05/2013  15:33:00       47.042       95.345        8.982       73.705       71.170       63.204     5432.486     5065.130     3994.805        1.294        0.725      106.318       45.456        0.183      343.034       18.860      869.365
10/05/2013  15:34:00       80.829       16.060       13.173       71.432       57.858       30.806     5102.557     3347.567      949.019        0.818        0.470       82.409       32.770        0.158      342.938       18.697      869.363
10/05/2013  15:35:00       58.165       32.122        0.868       54.534       24.956       25.939     2973.933      622.783      672.839        0.434        0.213       66.445       15.774        0.056      343.132       19.028      869.342
10/05/2013  15:36:00      103.715       55.445       23.263       64.336       51.827       41.831     4139.127     2686.069     1749.866        1.147        0.429      117.605       20.767        0.031      343.107       18.985      869.331
10/05/2013  15:37:00      169.556       59.745       25.733       93.143      106.867       59.980     8675.672    11420.458     3597.543        2.833        1.185      179.774       40.443        0.051      342.763       18.398      869.309
10/05/2013  15:38:00      264.446      172.007       37.332      127.829       85.826       69.365    16340.274     7366.098     4811.445        6.471        1.426      315.465       23.641        0.006      343.142       19.043      869.301
10/05/2013  15:39:00      144.164      136.550       85.961      109.808       93.316       80.297    12057.824     8707.911     6447.671        3.701        1.361      198.568       38.407        0.037      343.112       18.992      869.284
10/05/2013  15:40:00       65.668       92.404       90.302       87.599       67.621       72.787     7673.498     4572.618     5297.914        1.927        0.877      113.362       59.342        0.274      342.854       18.554      869.302
10/05/2013  15:41:00      109.291       82.932       31.262       81.651       53.166       65.117     6666.954     2826.639     4240.251        1.676        0.687      137.194       60.081        0.192      343.088       18.953      869.295
10/05/2013  15:42:00      173.554      109.654       29.423       74.490       62.563       52.800     5548.796     3914.142     2787.877        2.763        0.613      205.292       23.149        0.013      342.941       18.701      869.291
10/05/2013  15:43:00       94.181       51.346       27.351       55.399       42.327       41.085     3069.003     1791.535     1688.007        0.940        0.327      107.268       23.542        0.048      342.982       18.773      869.282
10/05/2013  15:44:00       97.738       76.491       25.078       74.989       59.170       41.490     5623.397     3501.042     1721.447        1.344        0.542      124.111       29.435        0.056      343.105       18.982      869.269
10/05/2013  15:45:00      178.365      114.653       15.810       85.255       62.058       47.241     7268.359     3851.247     2231.699        2.928        0.668      212.037       19.845        0.009      342.884       18.602      869.257
10/05/2013  15:46:00      149.886      115.942       56.183       73.822       56.238       59.190     5449.673     3162.759     3503.409        2.559        0.606      189.495       15.627        0.007      343.040       18.869      869.227
10/05/2013  15:47:00      171.931      113.752       17.677       60.770       63.991       41.029     3692.974     4094.826     1683.384        2.614        0.474      206.155       15.298        0.006      343.027       18.847      869.211
10/05/2013  15:48:00       75.376       78.631       56.978       89.911       73.614       57.889     8083.997     5418.955     3351.192        1.598        0.843      108.924       23.189        0.045      342.873       18.586      869.189
10/05/2013  15:49:00       50.950      151.702       -9.091       82.735      103.292       52.101     6845.156    10669.191     2714.463        2.296        1.011      160.030       51.418        0.103      343.145       19.049      869.190
10/05/2013  15:50:00      121.826       67.192       45.295       66.333       47.360       46.729     4400.004     2242.971     2183.565        1.512        0.441      139.127       21.084        0.023      343.178       19.105      869.175
10/05/2013  15:51:00      210.082      158.540       34.324      109.793      107.279       66.867    12054.465    11508.680     4471.150        4.924        1.402      263.191       58.836        0.050      343.180       19.106      869.174
10/05/2013  15:52:00      189.577      142.980       26.242      102.760       65.724       59.514    10559.606     4319.619     3541.964        3.774        0.921      237.450       44.477        0.035      343.124       19.010      869.171
10/05/2013  15:53:00      264.099      192.016       28.861       82.224       76.459       65.040     6760.764     5846.050     4230.167        6.214        0.842      326.524       28.880        0.008      343.063       18.905      869.166
10/05/2013  15:54:00      215.895      149.448       21.533       94.785       57.713       56.755     8984.259     3330.838     3221.183        4.247        0.777      262.575       39.425        0.023      343.113       18.991      869.167
10/05/2013  15:55:00      174.883      141.299       31.198       72.279       57.540       58.683     5224.304     3310.875     3443.659        3.175        0.599      224.832       26.530        0.014      343.092       18.957      869.169
10/05/2013  15:56:00      156.209       96.917       17.874       42.163       42.801       33.037     1777.753     1831.910     1091.415        1.941        0.235      183.832       19.742        0.012      343.062       18.908      869.165
10/05/2013  15:57:00       74.568       19.543       15.410       49.754       82.927       46.139     2475.431     6876.892     2128.821        0.883        0.574       77.086       42.218        0.300      342.891       18.618      869.165
10/05/2013  15:58:00       99.196       57.442       56.268       72.163       88.980       57.597     5207.554     7917.414     3317.361        1.637        0.822      114.627       42.197        0.136      342.786       18.439      869.162
10/05/2013  15:59:00       80.597       28.314       75.076       90.224       94.341       59.288     8140.429     8900.227     3515.015        1.674        1.028       85.426       48.904        0.328      343.102       18.977      869.148
10/05/2013  16:00:00       27.216      -31.657       25.446       69.787       73.990       51.165     4870.186     5474.453     2617.812        0.767        0.648       41.748       44.759        1.149      343.150       19.057      869.154
10/05/2013  16:01:00       34.362      -50.276        5.950       45.306       77.042       38.751     2052.601     5935.443     1501.615        0.661        0.474       60.897       39.073        0.412      342.994       18.792      869.163
10/05/2013  16:02:00       60.213       -4.499       26.984       41.237       52.640       33.779     1700.453     2770.966     1141.009        0.499        0.281       60.380       24.547        0.165      342.847       18.544      869.167
10/05/2013  16:03:00       37.251       39.940       27.275       44.628       64.302       49.895     1991.672     4134.760     2489.466        0.617        0.431       54.616       33.767        0.382      342.596       18.116      869.164
10/05/2013  16:04:00       63.211       60.138       15.205       55.746       44.530       47.444     3107.630     1982.885     2250.908        0.759        0.367       87.248       16.401        0.035      343.248       19.225      869.166
10/05/2013  16:05:00      131.362       56.838       15.638       74.873       73.727       51.260     5605.910     5435.708     2627.621        1.720        0.683      143.131       32.766        0.052      343.332       19.369      869.165
10/05/2013  16:06:00      132.967       95.816        9.855       68.060       43.772       43.009     4632.162     1915.949     1849.755        1.768        0.420      163.893       27.233        0.028      343.349       19.396      869.166
10/05/2013  16:07:00       98.717      -10.484        5.048       73.546       89.789       47.572     5408.961     8061.988     2263.129        1.280        0.787       99.272       56.806        0.327      343.096       18.968      869.167
10/05/2013  16:08:00       45.290     -112.248       -8.752       29.159       41.659       27.452      850.274     1735.491      753.619        0.903        0.167      121.040       19.350        0.026      343.215       19.170      869.141
10/05/2013  16:09:00      -24.172     -101.090      -11.107       47.483       39.680       31.288     2254.620     1574.474      978.937        0.787        0.240      103.940       28.143        0.073      343.418       19.517      869.128
10/05/2013  16:10:00       57.465       45.348        8.441       48.974       22.552       22.877     2398.480      508.594      523.371        0.443        0.172       73.203        8.356        0.013      343.260       19.247      869.140
10/05/2013  16:11:00      173.647      109.350       12.406       77.114       64.705       45.681     5946.517     4186.786     2086.724        2.724        0.611      205.209       20.577        0.010      343.202       19.145      869.163
10/05/2013  16:12:00       76.598       42.839       24.965       80.553       82.932       40.137     6488.714     6877.745     1610.952        1.165        0.749       87.764       36.542        0.173      343.232       19.197      869.158
10/05/2013  16:13:00       88.773       65.642       52.729      101.192       72.376       55.582    10239.833     5238.274     3089.395        1.676        0.928      110.406       52.799        0.229      342.976       18.761      869.150
10/05/2013  16:14:00      137.860       68.531       71.545      115.829       77.755       66.982    13416.453     6045.767     4486.542        2.638        1.197      153.955       47.505        0.095      343.018       18.833      869.138
10/05/2013  16:15:00       58.328       61.463       88.522       83.437       91.077       69.438     6961.755     8294.995     4821.687        1.754        1.004       84.734       66.235        0.611      343.038       18.867      869.134
10/05/2013  16:16:00       60.825       53.166       59.420       82.720       92.972       70.383     6842.594     8643.711     4953.820        1.524        1.022       80.785       63.705        0.622      342.916       18.661      869.140
10/05/2013  16:17:00      104.613        1.607       32.523       74.525      103.644       53.616     5553.914    10742.165     2874.633        1.558        0.959      104.625       59.857        0.327      342.912       18.653      869.137
10/05/2013  16:18:00       73.245      -66.521       21.462       60.980       38.177       42.295     3718.510     1457.521     1788.900        0.861        0.348       98.944       33.365        0.114      342.425       17.826      869.129
10/05/2013  16:19:00       56.319      -29.132       26.548       38.077       50.366       39.962     1449.875     2536.749     1596.971        0.515        0.279       63.407       35.876        0.320      342.648       18.206      869.129
10/05/2013  16:20:00       38.228       -3.342       11.125       29.999       38.565       32.676      899.948     1487.279     1067.698        0.252        0.173       38.374       28.337        0.545      342.467       17.897      869.128
10/05/2013  16:21:00      132.576       80.649       12.358       73.604       48.559       34.550     5417.493     2357.993     1193.726        1.660        0.448      155.180       25.123        0.026      343.169       19.090      869.123
10/05/2013  16:22:00      122.717       62.977       22.011       87.979       60.420       51.178     7740.335     3650.527     2619.234        1.676        0.701      137.933       24.315        0.031      343.352       19.402      869.110
10/05/2013  16:23:00      219.352      106.220       19.164       72.717       61.421       45.712     5287.701     3772.544     2089.583        3.546        0.557      243.717       19.474        0.006      343.166       19.083      869.111
10/05/2013  16:24:00       36.955       54.127        1.428       48.590       36.016       23.865     2360.986     1297.154      569.557        0.426        0.211       65.539       17.504        0.071      343.301       19.316      869.114
10/05/2013  16:25:00       11.754       42.844       -0.915       26.007       29.155       20.338      676.356      849.994      413.618        0.196        0.097       44.427       13.121        0.087      343.281       19.281      869.109
10/05/2013  16:26:00       -1.025       43.020       -1.192       21.683       38.757       19.229      470.134     1502.122      369.746        0.210        0.117       43.032       18.085        0.177      343.459       19.586      869.095
10/05/2013  16:27:00       89.402       69.602       17.537       77.994       35.001       32.652     6083.105     1225.082     1066.167        1.076        0.419      113.301       32.659        0.083      343.195       19.136      869.103
10/05/2013  16:28:00      214.843      138.970       12.657       47.990       53.122       48.751     2302.993     2821.929     2376.683        3.656        0.375      255.871       18.645        0.005      343.174       19.095      869.096
10/05/2013  16:29:00       54.529       54.393       -6.904       53.008       45.821       32.370     2809.886     2099.530     1047.816        0.597        0.298       77.020       21.637        0.079      343.183       19.114      869.088
10/05/2013  16:30:00      107.725       55.544       13.714       39.539       36.637       29.775     1563.317     1342.306      886.527        0.933        0.190      121.201       21.002        0.030      342.765       18.404      869.070
10/05/2013  16:31:00       80.589       72.947       28.807       58.712       53.544       45.947     3447.156     2867.009     2111.114        1.053        0.421      108.700       30.329        0.078      342.959       18.733      869.060
10/05/2013  16:32:00      165.627      101.197       58.453       96.048       70.095       57.829     9225.313     4913.246     3344.249        2.928        0.874      194.095       34.466        0.032      343.341       19.381      869.065
10/05/2013  16:33:00       58.933       59.056       83.091       76.829       54.045       45.124     5902.631     2920.905     2036.170        1.236        0.543       83.431       35.883        0.185      342.831       18.516      869.059
10/05/2013  16:34:00       46.590       49.729       74.516       52.335       55.101       50.675     2739.001     3036.170     2567.919        0.927        0.417       68.144       39.276        0.332      342.833       18.519      869.050
10/05/2013  16:35:00      172.668      105.833       58.194       96.396       64.529       54.421     9292.128     4164.009     2961.610        3.041        0.821      202.521       45.033        0.049      343.129       19.020      869.050
10/05/2013  16:36:00       95.016      108.378       45.592      101.335       82.991       72.043    10268.772     6887.531     5190.221        2.260        1.117      144.132       40.749        0.080      343.148       19.054      869.035
10/05/2013  16:37:00       97.587      107.602        0.390       76.652       68.829       45.022     5875.575     4737.392     2026.949        1.687        0.632      145.263       41.493        0.082      343.419       19.516      869.023
10/05/2013  16:38:00      135.084      110.534       24.072      135.885       75.070       65.829    18464.767     5635.518     4333.404        2.973        1.422      174.544       49.754        0.081      343.358       19.410      869.012
10/05/2013  16:39:00      107.197      168.901       10.874      107.119      112.035       75.363    11474.378    12551.805     5679.537        3.492        1.485      200.047       68.246        0.116      343.333       19.368      869.005
10/05/2013  16:40:00      203.571      159.779       11.715       93.275       64.417       67.871     8700.220     4149.515     4606.424        4.228        0.873      258.787       39.855        0.024      343.338       19.375      869.009
10/05/2013  16:41:00      174.198      113.687       18.887      112.051       95.226       67.018    12555.460     9067.911     4491.452        3.487        1.306      208.014       41.621        0.040      343.365       19.422      869.009
10/05/2013  16:42:00      170.556      153.339        8.383      141.597       99.417       73.707    20049.634     9883.671     5432.750        4.401        1.768      229.352       48.201        0.044      343.325       19.354      869.005
10/05/2013  16:43:00      172.651      149.320       13.252      103.871       80.247       79.420    10789.172     6439.599     6307.535        3.790        1.177      228.265       46.654        0.042      343.271       19.262      869.010
10/05/2013  16:44:00      177.658      136.791       18.658       91.823       78.090       70.240     8431.420     6097.996     4933.613        3.504        0.973      224.219       46.992        0.044      343.389       19.463      869.006
10/05/2013  16:45:00      118.214      104.440        8.797       77.771       50.563       48.041     6048.402     2556.572     2307.938        1.793        0.546      157.741       27.905        0.031      343.310       19.330      869.017
10/05/2013  16:46:00      104.195      107.496        6.102       98.884       71.955       53.167     9778.067     5177.486     2826.782        2.011        0.889      149.706       43.113        0.083      343.404       19.489      869.015
10/05/2013  16:47:00       53.073       94.574       13.710       65.713       66.826       49.563     4318.238     4465.651     2456.490        1.159        0.562      108.449       36.047        0.110      343.397       19.479      868.998
10/05/2013  16:48:00      161.896       65.958       44.243      107.090       68.604       56.763    11468.293     4706.570     3222.037        2.595        0.970      174.817       37.056        0.045      343.383       19.453      869.005
10/05/2013  16:49:00      134.329      113.697       70.073       72.870       55.702       60.073     5309.977     3102.687     3608.797        2.395        0.601      175.986       31.839        0.033      343.383       19.452      869.015
10/05/2013  16:50:00      128.369       88.019       90.212      105.409       98.187       86.153    11111.039     9640.616     7422.349        3.026        1.409      155.647       61.108        0.154      343.119       19.005      869.010
10/05/2013  16:51:00      135.858      132.492      108.788      118.448      103.261       98.397    14029.995    10662.801     9681.895        4.110        1.719      189.767       85.022        0.201      342.944       18.706      869.011
10/05/2013  16:52:00      169.742      100.407       53.965      124.778       88.303       76.499    15569.513     7797.421     5852.169        3.551        1.461      197.215       61.847        0.098      343.257       19.241      869.029
10/05/2013  16:53:00      173.081      120.053       25.776       98.830       72.647       58.969     9767.392     5277.532     3477.337        3.177        0.926      210.642       43.031        0.042      343.377       19.445      869.044
10/05/2013  16:54:00       91.233       85.573       65.868       74.787       59.162       56.468     5593.112     3500.144     3188.684        1.613        0.614      125.085       33.790        0.073      343.353       19.403      869.050
10/05/2013  16:55:00      108.884       66.816       61.918       86.077       62.093       38.814     7409.174     3855.483     1506.495        1.646        0.639      127.750       32.959        0.067      343.223       19.183      869.051
10/05/2013  16:56:00       78.424       50.332       36.594       87.884       55.057       40.211     7723.619     3031.312     1616.922        1.119        0.619       93.186       40.153        0.186      343.124       19.016      869.046
10/05/2013  16:57:00      193.659      130.999       26.976      121.732       94.485       66.474    14818.701     8927.504     4418.749        4.177        1.408      233.805       29.109        0.016      343.378       19.445      869.051
10/05/2013  16:58:00      276.770      189.221       26.582      124.670       95.614       89.027    15542.575     9142.012     7925.740        7.285        1.631      335.270       58.788        0.031      343.197       19.134      869.042
10/05/2013  16:59:00      180.303      128.390       43.080      176.616       99.897       74.244    31193.372     9979.484     5512.238        4.876        2.334      221.344       71.089        0.103      343.115       18.996      869.029
10/05/2013  17:00:00      234.996      165.164       23.675      136.188       95.536       64.053    18547.099     9127.116     4102.809        5.741        1.589      287.231       33.469        0.014      343.208       19.154      869.030
10/05/2013  17:01:00      114.793      113.994        9.421      100.082       82.004       61.929    10016.451     6724.708     3835.263        2.341        1.029      161.778       45.839        0.080      343.281       19.280      869.039
10/05/2013  17:02:00      139.554       71.408       21.461       84.130       61.836       56.359     7077.925     3823.649     3176.298        1.955        0.704      156.763       27.949        0.032      343.293       19.300      869.042
10/05/2013  17:03:00      186.842       93.015       18.306       96.909       71.048       45.456     9391.378     5047.782     2066.246        3.020        0.825      208.715       23.833        0.013      343.305       19.321      869.042
10/05/2013  17:04:00      144.871       85.274       21.276       87.570       68.338       51.648     7668.470     4670.102     2667.526        2.186        0.750      168.105       40.741        0.059      343.307       19.323      869.032
10/05/2013  17:05:00      225.899      164.215       18.319      115.435       78.131       84.013    13325.177     6104.447     7058.232        5.240        1.324      279.279       50.847        0.033      343.238       19.204      869.016
10/05/2013  17:06:00      238.019      162.285       20.255      139.930       76.827       72.371    19580.409     5902.315     5237.573        5.705        1.536      288.079       33.177        0.013      343.230       19.192      869.010
10/05/2013  17:07:00      193.369      140.647        4.198      110.790       80.355       67.057    12274.442     6456.913     4496.693        4.020        1.161      239.108       44.274        0.034      343.116       18.999      869.006
10/05/2013  17:08:00      128.511       84.957       24.561       86.024       77.232       58.226     7400.130     5964.773     3390.231        2.054        0.838      154.054       27.479        0.032      343.168       19.088      869.001
10/05/2013  17:09:00      150.966      105.067       21.186       74.959       57.774       51.158     5618.897     3337.887     2617.134        2.292        0.579      183.929       31.117        0.029      343.287       19.289      869.013
10/05/2013  17:10:00      177.025      107.074       32.692       66.441       69.763       53.928     4414.374     4866.916     2908.228        2.803        0.609      206.888       36.827        0.032      343.334       19.369      869.007
10/05/2013  17:11:00      239.817      166.875       33.169      106.296       78.598       69.224    11298.778     6177.618     4791.976        5.436        1.113      292.163       47.556        0.026      343.299       19.310      869.006
10/05/2013  17:12:00      257.326      146.808       32.034       87.167       68.060       55.085     7598.015     4632.149     3034.336        5.203        0.763      296.259       31.055        0.011      343.270       19.259      869.004
10/05/2013  17:13:00      164.002      103.510       64.380       63.504       77.420       54.668     4032.790     5993.850     2988.571        2.738        0.651      193.936       19.160        0.010      343.216       19.168      869.003
10/05/2013  17:14:00      209.550      106.766       20.950      165.306      116.020       65.434    27325.973    13460.599     4281.562        5.040        2.253      235.182       40.173        0.029      343.147       19.053      868.991
10/05/2013  17:15:00      149.574      105.744       85.228      125.776       99.543       75.660    15819.511     9908.828     5724.420        3.613        1.573      183.178       52.217        0.081      343.019       18.834      868.962
10/05/2013  17:16:00      172.047       94.061       47.889      115.745       69.741       63.798    13396.834     4863.757     4070.219        3.153        1.117      196.081       38.107        0.038      343.011       18.820      868.965
10/05/2013  17:17:00      160.493       86.293       34.551      101.049       75.591       58.920    10210.827     5714.018     3471.584        2.689        0.970      182.221       36.238        0.040      343.003       18.807      868.973
10/05/2013  17:18:00      309.038      192.149       56.922      112.665      105.458       65.887    12693.407    11121.468     4341.044        8.191        1.408      363.903       48.047        0.017      343.117       19.000      868.963
10/05/2013  17:19:00      254.905      172.585       40.083      132.863      105.709       92.436    17652.503    11174.430     8544.378        6.686        1.869      307.835       56.603        0.034      343.065       18.911      868.970
10/05/2013  17:20:00      115.843      109.781       78.947      112.012       66.018       52.663    12546.687     4358.421     2773.436        2.569        0.984      159.598       40.896        0.066      342.689       18.273      868.957
10/05/2013  17:21:00       82.112       62.190       37.275       58.322       44.884       44.947     3401.489     2014.575     2020.212        0.972        0.372      103.004       20.246        0.039      342.953       18.723      868.974
10/05/2013  17:22:00       95.188       71.733       39.436       67.082       69.931       46.771     4500.031     4890.322     2187.489        1.367        0.579      119.190       18.182        0.023      343.030       18.855      868.965
10/05/2013  17:23:00      176.967      118.255       30.695      114.227       98.169       80.543    13047.837     9637.068     6487.247        3.770        1.459      212.842       56.899        0.071      343.076       18.931      868.954
10/05/2013  17:24:00      183.994      124.076       31.976      160.737       84.534       78.581    25836.541     7145.943     6175.040        4.471        1.958      221.920       46.666        0.044      343.070       18.919      868.942
10/05/2013  17:25:00      233.691      103.578       33.718      144.163       91.194       81.697    20782.873     8316.308     6674.402        5.112        1.789      255.617       55.789        0.048      342.958       18.730      868.929
10/05/2013  17:26:00      305.828      187.375       19.488      112.353       72.758       79.417    12623.099     5293.795     6307.027        7.662        1.211      358.664       30.046        0.007      343.002       18.804      868.937
10/05/2013  17:27:00      137.804       94.785       27.183       87.286       71.102       50.150     7618.909     5055.544     2515.023        2.195        0.759      167.255       32.676        0.038      343.009       18.817      868.934
10/05/2013  17:28:00      190.325      124.732       23.556       93.780       73.491       64.223     8794.773     5400.862     4124.642        3.532        0.916      227.556       42.019        0.034      342.981       18.768      868.938
10/05/2013  17:29:00      134.521       99.706       22.226       93.749       72.540       50.536     8788.802     5262.116     2553.848        2.256        0.830      167.443       35.750        0.046      342.990       18.785      868.945
10/05/2013  17:30:00      209.873      113.459       24.354      100.356       83.606       61.908    10071.379     6990.001     3832.608        3.920        1.045      238.579       27.446        0.013      343.001       18.802      868.940
10/05/2013  17:31:00      222.958      131.308       36.035      136.501       98.164       72.914    18632.635     9636.260     5316.387        5.091        1.679      258.751       38.919        0.023      343.033       18.857      868.948
10/05/2013  17:32:00      312.579      203.309       35.788      115.588       93.958       83.872    13360.569     8828.014     7034.429        8.477        1.461      372.881       48.981        0.017      343.008       18.814      868.937
10/05/2013  17:33:00      224.219      143.799       47.421      111.886       89.138       72.996    12518.431     7945.559     5328.348        4.949        1.290      266.369       52.582        0.039      342.925       18.674      868.949
10/05/2013  17:34:00      169.457      120.608       32.759       62.314       62.322       55.734     3883.032     3884.037     3106.285        2.760        0.544      207.995       28.731        0.019      342.992       18.787      868.967
10/05/2013  17:35:00      164.712      104.264       34.716       66.844       53.133       58.211     4468.149     2823.090     3388.521        2.494        0.534      194.939       15.369        0.006      343.018       18.831      868.974
10/05/2013  17:36:00       87.819       34.924       29.241       69.353       65.191       45.608     4809.792     4249.889     2080.128        1.046        0.557       94.509       36.536        0.149      342.525       17.995      868.976
10/05/2013  17:37:00      210.235      135.233       51.502      121.426       77.887       63.684    14744.298     6066.425     4055.709        4.500        1.243      249.974       60.912        0.059      342.867       18.574      868.981
10/05/2013  17:38:00      145.860      101.290       46.749      106.625       69.952       69.637    11368.935     4893.232     4849.376        2.741        1.056      177.581       36.643        0.043      342.830       18.514      868.966
10/05/2013  17:39:00      168.679      114.739       25.569       88.573       66.592       65.471     7845.211     4434.442     4286.466        2.942        0.828      204.004       38.092        0.035      342.875       18.589      868.987
10/05/2013  17:40:00      240.277      167.963       27.947      131.804       83.888       90.985    17372.166     7037.253     8278.247        5.970        1.634      293.164       65.332        0.050      342.913       18.653      868.986
10/05/2013  17:41:00      286.471      184.983       42.340      115.348       77.624       67.255    13305.200     6025.505     4523.176        7.096        1.193      341.005       44.560        0.017      342.913       18.653      868.978
10/05/2013  17:42:00      166.046       95.444       48.646       95.204       65.486       75.028     9063.856     4288.400     5629.224        2.901        0.949      191.522       44.559        0.054      342.804       18.467      868.983
10/05/2013  17:43:00      210.642      155.321       33.335      162.386       96.521       72.076    26369.088     9316.258     5194.989        5.523        2.044      261.715       44.594        0.029      342.863       18.569      868.976
10/05/2013  17:44:00      187.404      113.595       60.249      133.030       78.922       67.620    17697.031     6228.646     4572.464        4.007        1.425      219.144       56.912        0.067      342.762       18.395      868.975
10/05/2013  17:45:00      231.368      120.553       40.602      147.554      105.064       73.822    21772.318    11038.428     5449.751        5.398        1.913      260.891       63.682        0.060      342.733       18.347      868.954
10/05/2013  17:46:00      325.191      171.693       37.529      119.266       99.168       79.817    14224.471     9834.294     6370.737        8.353        1.521      367.733       35.891        0.010      342.762       18.396      868.949
10/05/2013  17:47:00      304.695      224.029       33.178      147.031      105.368       74.326    21618.158    11102.318     5524.320        9.118        1.912      378.191       51.613        0.019      342.733       18.345      868.946
10/05/2013  17:48:00      220.932      148.786       29.410       92.766       61.810       58.777     8605.565     3820.433     3454.698        4.384        0.794      266.361       31.736        0.014      342.727       18.336      868.942
10/05/2013  17:49:00      236.046      146.486       20.114      130.507      104.989       60.426    17032.007    11022.699     3651.272        5.464        1.585      277.805       30.940        0.012      342.708       18.303      868.946
10/05/2013  17:50:00      203.396      141.605       29.953      110.939       91.259       82.861    12307.498     8328.229     6865.923        4.490        1.375      247.834       53.060        0.046      342.646       18.198      868.944
10/05/2013  17:51:00      197.346      117.978       33.888      114.978       83.853       66.629    13219.829     7031.286     4439.464        3.935        1.235      229.922       34.420        0.022      342.649       18.204      868.936
10/05/2013  17:52:00      246.767      134.474       46.992      144.374      102.241       66.302    20843.767    10453.275     4395.894        5.843        1.785      281.028       34.633        0.015      342.619       18.151      868.949
10/05/2013  17:53:00      214.542      109.097       25.165      111.981       81.712       69.477    12539.783     6676.811     4827.013        4.130        1.202      240.687       49.518        0.042      342.585       18.094      868.955
10/05/2013  17:54:00      289.307      189.557       58.902      131.673       97.538       76.138    17337.770     9513.571     5796.926        7.787        1.632      345.876       42.379        0.015      342.618       18.151      868.946
10/05/2013  17:55:00      170.006       95.532       25.886       99.132       62.453       50.591     9827.184     3900.401     2559.435        2.749        0.814      195.009       35.149        0.032      342.524       17.991      868.961
10/05/2013  17:56:00      213.547      133.583       52.747      128.001      109.185       68.113    16384.162    11921.450     4639.411        4.958        1.647      251.886       31.279        0.015      342.525       17.993      868.962
10/05/2013  17:57:00      338.116      179.056       61.116      111.105      103.016       74.034    12344.319    10612.356     5480.986        8.927        1.422      382.601       34.245        0.008      342.533       18.006      868.947
10/05/2013  17:58:00      211.405       98.607       26.529      115.719       88.333       71.845    13390.790     7802.703     5161.644        4.073        1.318      233.271       60.199        0.067      342.434       17.840      868.954
10/05/2013  17:59:00      262.143      171.208       55.490      107.899       77.060       61.841    11642.143     5938.250     3824.342        6.125        1.070      313.099       18.349        0.003      342.418       17.811      868.959
10/05/2013  18:00:00      255.518      175.060       23.267       87.178       87.316       71.709     7600.032     7624.086     5142.192        5.842        1.018      309.734       24.455        0.006      342.472       17.902      868.957
10/05/2013  18:01:00      204.032      145.427       47.853       98.680       77.369       62.425     9737.717     5985.934     3896.845        4.234        0.981      250.555       46.261        0.034      342.343       17.683      868.957
10/05/2013  18:02:00      236.548      140.233       33.722       97.824       98.046       46.869     9569.484     9613.003     2196.742        4.906        1.069      274.991       40.525        0.022      342.287       17.588      868.955
10/05/2013  18:03:00      223.293      164.529       30.290       83.249       54.256       57.098     6930.314     2943.677     3260.200        4.549        0.657      277.361       26.077        0.009      342.444       17.853      868.966
10/05/2013  18:04:00      165.847      138.828       18.483       98.391       80.795       70.923     9680.823     6527.778     5030.014        3.417        1.062      216.283       39.474        0.033      342.398       17.778      868.974
10/05/2013  18:05:00      180.917      141.931       24.075       91.622       58.984       52.892     8394.592     3479.111     2797.590        3.406        0.734      229.946       27.708        0.015      342.345       17.686      868.978
10/05/2013  18:06:00      172.304      130.161       58.627       96.743       78.454       92.157     9359.304     6155.104     8492.907        3.703        1.200      215.941       49.845        0.053      342.285       17.585      868.988
10/05/2013  18:07:00      140.318       75.038       30.058       83.086       63.393       44.068     6903.324     4018.706     1942.003        1.954        0.643      159.122       22.699        0.020      342.269       17.560      868.986
10/05/2013  18:08:00      302.626      196.218       71.748      101.570       91.013       81.365    10316.423     8283.319     6620.241        8.022        1.261      360.671       45.092        0.016      342.295       17.603      868.972
10/05/2013  18:09:00      334.872      189.631       62.331      171.964      128.687       98.500    29571.537    16560.397     9702.226       10.390        2.792      384.837       78.461        0.042      342.277       17.571      868.975
10/05/2013  18:10:00      217.100      140.537       40.006      175.750      136.603       83.085    30888.091    18660.438     6903.174        6.246        2.823      258.617       44.945        0.030      342.277       17.571      868.968
10/05/2013  18:11:00      254.427      159.202       58.919      135.082      101.952       94.024    18247.048    10394.160     8840.557        6.551        1.874      300.130       51.505        0.029      342.185       17.416      868.960
10/05/2013  18:12:00      256.295      132.098       58.178      130.490       99.032       86.609    17027.537     9807.355     7501.033        6.042        1.717      288.335       58.867        0.042      342.189       17.421      868.954
10/05/2013  18:13:00      249.577      126.877       57.253      141.098       96.912       70.065    19908.662     9391.869     4909.153        5.793        1.710      279.976       43.386        0.024      342.180       17.409      868.962
10/05/2013  18:14:00      209.164      117.712       58.936       95.605       72.670       64.007     9140.341     5280.887     4096.947        3.979        0.926      240.012       49.294        0.042      341.959       17.032      868.961
10/05/2013  18:15:00      193.048      127.900       47.135      107.034       71.938       63.231    11456.318     5175.132     3998.157        3.823        1.031      231.573       45.178        0.038      342.095       17.262      868.963
10/05/2013  18:16:00      186.068      103.677       57.355      104.886       63.956       64.738    11001.099     4090.413     4191.063        3.397        0.964      213.003       40.442        0.036      341.957       17.028      868.978
10/05/2013  18:17:00      109.713       93.763       29.809       80.451       53.445       55.124     6472.291     2856.361     3038.697        1.704        0.618      144.320       44.929        0.097      341.854       16.854      868.991
10/05/2013  18:18:00      233.994      150.213       24.282       78.065       82.521       61.966     6094.144     6809.784     3839.819        4.732        0.837      278.059       24.043        0.007      342.085       17.246      868.976
10/05/2013  18:19:00      229.851      150.549       45.565       92.826       60.744       58.467     8616.589     3689.891     3418.424        4.665        0.786      274.766       32.791        0.014      342.061       17.203      868.968
10/05/2013  18:20:00      243.157      152.356       49.368       97.256       75.760       62.101     9458.769     5739.609     3856.562        5.191        0.953      286.946       48.016        0.028      342.083       17.240      868.988
10/05/2013  18:21:00      105.650       72.943       28.048      106.626       64.000       40.169    11369.164     4096.056     1613.551        1.717        0.854      128.384       17.360        0.018      341.927       16.978      868.991
10/05/2013  18:22:00      104.143       70.879       29.842       64.758       56.378       39.581     4193.587     3178.533     1566.632        1.285        0.447      125.975       20.474        0.026      341.733       16.650      868.998
10/05/2013  18:23:00      230.681      105.844       54.365      128.253       84.852       74.519    16448.836     7199.854     5553.049        4.828        1.460      253.804       45.222        0.032      341.767       16.705      868.992
10/05/2013  18:24:00      207.522      135.227       65.728       99.089       79.526       67.013     9818.540     6324.426     4490.681        4.315        1.032      247.693       46.768        0.036      341.831       16.813      868.992
10/05/2013  18:25:00      145.158       82.507       39.220       93.075       56.809       50.454     8662.949     3227.318     2545.584        2.192        0.722      166.968       24.371        0.021      341.789       16.745      869.001
10/05/2013  18:26:00      168.588       87.503       30.800      118.722       78.347       59.000    14094.806     6138.216     3480.983        3.037        1.186      189.944       39.568        0.043      341.921       16.968      869.004
10/05/2013  18:27:00       91.426       65.928       11.624       77.430       52.142       44.851     5995.462     2718.751     2011.584        1.178        0.536      112.717       33.138        0.086      341.896       16.926      869.014
10/05/2013  18:28:00      141.268       97.665       10.136       69.315       44.985       36.908     4804.553     2023.674     1362.182        1.889        0.410      171.741        8.416        0.002      341.807       16.774      869.020
10/05/2013  18:29:00      109.566       54.159       41.221       47.685       31.098       27.717     2273.864      967.080      768.233        1.032        0.200      122.220       13.176        0.012      341.649       16.508      869.028
10/05/2013  18:30:00       66.227       43.237       18.228       20.343       18.894       21.456      413.822      356.974      460.376        0.391        0.062       79.092        9.151        0.013      341.495       16.247      869.043
10/05/2013  18:31:00       95.753       69.385        9.554       49.068       35.727       34.089     2407.645     1276.424     1162.078        0.946        0.242      118.250       15.703        0.018      341.715       16.620      869.050
10/05/2013  18:32:00       64.188       44.823        2.558       63.145       29.359       26.612     3987.233      861.925      708.218        0.585        0.278       78.289       13.790        0.031      341.631       16.476      869.058
10/05/2013  18:33:00       92.316       70.043       24.625       45.671       37.926       33.523     2085.819     1438.371     1123.802        0.934        0.232      115.880       22.803        0.039      341.675       16.553      869.072
10/05/2013  18:34:00       93.772       66.241       10.661       49.388       39.160       36.082     2439.182     1533.507     1301.940        0.928        0.264      114.809       17.183        0.022      341.686       16.570      869.074
10/05/2013  18:35:00      123.958       80.837       15.360       64.673       42.141       48.008     4182.649     1775.858     2304.757        1.520        0.413      147.987       26.724        0.033      341.736       16.655      869.076
10/05/2013  18:36:00       57.833       57.160       19.283       56.236       40.900       28.136     3162.496     1672.803      791.630        0.630        0.281       81.314       20.426        0.063      341.686       16.571      869.096
10/05/2013  18:37:00       51.660       64.880       13.771       44.626       38.115       32.021     1991.459     1452.730     1025.328        0.577        0.223       82.935       29.750        0.129      341.776       16.724      869.101
10/05/2013  18:38:00       42.139       73.144        0.190       49.382       27.273       31.686     2438.564      743.804     1004.023        0.566        0.209       84.414       29.437        0.122      341.682       16.563      869.109
10/05/2013  18:39:00       40.001       36.312        8.114       32.489       25.775       21.244     1055.531      664.350      451.306        0.258        0.109       54.024       18.141        0.113      341.595       16.417      869.121
10/05/2013  18:40:00       26.846       43.792       -7.928       40.709       27.281       19.402     1657.187      744.268      376.419        0.274        0.139       51.366       17.122        0.111      341.441       16.155      869.130
10/05/2013  18:41:00       45.519       47.024        5.238       43.192       36.641       34.445     1865.507     1342.561     1186.446        0.435        0.220       65.447       24.449        0.140      341.540       16.324      869.129
10/05/2013  18:42:00       40.499       37.935       10.034       36.029       31.737       28.675     1298.095     1007.255      822.241        0.315        0.156       55.491       16.999        0.094      341.526       16.300      869.135
10/05/2013  18:43:00       82.971       71.943       23.163       75.460       36.140       37.039     5694.233     1306.132     1371.894        1.048        0.419      109.818       25.310        0.053      341.640       16.491      869.139
10/05/2013  18:44:00       44.168       67.331        6.130       48.458       42.649       30.472     2348.215     1818.961      928.563        0.581        0.255       80.525       20.386        0.064      341.558       16.353      869.148
10/05/2013  18:45:00       38.779       89.406        6.735       42.724       36.152       31.778     1825.304     1306.970     1009.844        0.684        0.207       97.454       25.057        0.066      341.595       16.416      869.151
10/05/2013  18:46:00       36.473       69.888       -6.071       37.496       55.947       25.136     1405.913     3130.104      631.816        0.571        0.258       78.833       32.151        0.166      341.536       16.317      869.150
10/05/2013  18:47:00       21.345      111.623       -8.249       34.149       40.916       30.293     1166.135     1674.098      917.674        0.837        0.188      113.645       25.414        0.050      341.529       16.304      869.161
10/05/2013  18:48:00       31.002      129.100      -15.991       29.235       34.502       23.296      854.708     1190.393      542.720        1.024        0.129      132.770       15.659        0.014      341.493       16.243      869.167
10/05/2013  18:49:00       22.165       35.172        8.616       32.535       37.092       25.682     1058.525     1375.841      659.545        0.245        0.155       41.573       21.744        0.274      341.418       16.116      869.172
10/05/2013  18:50:00       11.297       84.622       -7.750       19.951       52.482       22.817      398.049     2754.337      520.616        0.551        0.184       85.373       28.220        0.109      341.444       16.161      869.174
10/05/2013  18:51:00       27.674       97.586       -7.209       29.322       61.999       24.677      859.795     3843.869      608.939        0.783        0.266      101.434       28.187        0.077      341.498       16.253      869.177
10/05/2013  18:52:00       59.527       60.312        4.307       52.422       47.343       40.705     2748.026     2241.333     1656.887        0.692        0.332       84.740       36.208        0.183      341.457       16.183      869.188
10/05/2013  18:53:00       35.143      118.885       -7.820       44.793       56.394       31.371     2006.416     3180.300      984.140        1.080        0.309      123.970       31.819        0.066      341.515       16.280      869.198
10/05/2013  18:54:00       24.684       97.567        4.097       45.158       63.740       39.880     2039.240     4062.793     1590.451        0.892        0.385      100.641       34.741        0.119      341.461       16.191      869.188
10/05/2013  18:55:00       20.529      112.498      -10.570       27.761       37.682       26.127      770.671     1419.962      682.621        0.803        0.144      114.356       21.421        0.035      341.456       16.179      869.190
10/05/2013  18:56:00       37.650      112.554       -9.052       35.892       65.674       31.453     1288.232     4313.118      989.318        1.038        0.330      118.684       38.379        0.105      341.457       16.184      869.185
10/05/2013  18:57:00       19.410       89.475       -7.567       33.179       32.614       24.002     1100.864     1063.655      576.102        0.559        0.137       91.556       21.651        0.056      341.445       16.163      869.191
10/05/2013  18:58:00       14.095       89.204       -8.082       20.902       27.288       19.138      436.895      744.614      366.274        0.488        0.077       90.311       13.726        0.023      341.427       16.133      869.197
10/05/2013  18:59:00       27.220      111.989      -15.307       31.949       49.743       28.119     1020.759     2474.393      790.672        0.890        0.214      115.250       25.689        0.050      341.478       16.217      869.198
10/05/2013  19:00:00       21.736       95.722       -5.561       29.495       37.044       28.279      869.953     1372.231      799.727        0.635        0.152       98.159       25.007        0.065      341.498       16.252      869.203
10/05/2013  19:01:00       12.566       86.659       -9.882       21.913       44.932       18.885      480.175     2018.917      356.641        0.531        0.143       87.565       20.527        0.055      341.382       16.055      869.224
10/05/2013  19:02:00       17.549       85.872      -13.082       25.868       42.394       15.933      669.153     1797.274      253.848        0.529        0.136       87.646       18.208        0.043      341.427       16.131      869.236
10/05/2013  19:03:00       19.269      113.600      -14.484       31.474       43.277       23.952      990.582     1872.873      573.700        0.846        0.172      115.222       26.139        0.051      341.402       16.090      869.242
10/05/2013  19:04:00       43.010      113.988      -11.355       46.629       50.825       29.397     2174.239     2583.159      864.166        1.030        0.281      121.832       28.123        0.053      341.346       15.995      869.246
10/05/2013  19:05:00       50.415       99.070      -10.062       38.575       45.707       34.050     1487.992     2089.125     1159.423        0.860        0.237      111.160       28.471        0.066      341.412       16.108      869.256
10/05/2013  19:06:00       17.669       89.785      -11.668       19.937       33.896       18.149      397.467     1148.967      329.371        0.519        0.094       91.507       19.790        0.047      341.384       16.061      869.263
10/05/2013  19:07:00       14.090      122.060      -18.481       43.082       25.989       19.145     1856.024      675.403      366.515        0.917        0.145      122.871       17.173        0.020      341.409       16.100      869.265
10/05/2013  19:08:00        1.686      101.650      -13.408       27.046       22.559       18.155      731.502      508.890      329.620        0.604        0.079      101.664       14.493        0.020      341.407       16.099      869.278
10/05/2013  19:09:00       12.614      105.814      -15.480       21.288       30.015       14.549      453.181      900.892      211.677        0.658        0.078      106.563       10.200        0.009      341.446       16.163      869.293
10/05/2013  19:10:00       11.715       73.536      -10.979       21.179       35.527       13.688      448.562     1262.150      187.361        0.378        0.095       74.463       16.092        0.047      341.430       16.137      869.303
10/05/2013  19:11:00      -21.117      101.371      -18.399       30.999       24.480       13.880      960.921      599.284      192.646        0.641        0.088      103.547        8.613        0.007      341.436       16.147      869.311
10/05/2013  19:12:00      -12.912      129.896      -15.929       26.409       34.328       13.210      697.417     1178.405      174.499        0.967        0.103      130.536        9.645        0.005      341.431       16.139      869.316
10/05/2013  19:13:00      -12.156      143.448      -17.556       31.615       28.637       13.723      999.498      820.071      188.324        1.152        0.100      143.962       14.669        0.010      341.473       16.209      869.318
10/05/2013  19:14:00        6.152      100.081      -11.212       31.371       31.286       17.021      984.164      978.799      289.699        0.622        0.113      100.269       19.622        0.038      341.403       16.091      869.325
10/05/2013  19:15:00      -29.506       89.568      -19.029       24.261       24.935       11.123      588.597      621.767      123.731        0.529        0.067       94.303        6.187        0.004      341.458       16.185      869.324
10/05/2013  19:16:00      -15.713       66.745      -11.654       26.600       18.732       12.465      707.564      350.896      155.376        0.303        0.061       68.569        8.851        0.017      341.417       16.114      869.328
10/05/2013  19:17:00      -11.562       88.285       -8.481       32.502       30.640       14.879     1056.390      938.780      221.371        0.511        0.111       89.039       15.978        0.032      341.340       15.985      869.346
10/05/2013  19:18:00       -3.596      115.679      -13.994       20.553       50.710       17.292      422.430     2571.473      299.017        0.844        0.165      115.735       24.651        0.045      341.362       16.020      869.354
10/05/2013  19:19:00        0.650       96.902       -9.542       22.709       34.577       21.561      515.712     1195.546      464.872        0.583        0.109       96.905       15.731        0.026      341.335       15.975      869.357
10/05/2013  19:20:00      -17.599       62.923      -10.645       28.857       27.477       12.411      832.732      755.009      154.028        0.306        0.087       65.338       11.209        0.029      341.383       16.058      869.365
10/05/2013  19:21:00      -20.626       60.565      -14.190       22.818       17.728       11.365      520.681      314.272      129.164        0.263        0.048       63.981        6.767        0.011      341.322       15.954      869.364
10/05/2013  19:22:00      -25.649       32.112      -14.619       19.888       34.925        9.915      395.527     1219.772       98.304        0.181        0.086       41.098       11.451        0.078      341.271       15.868      869.366
10/05/2013  19:23:00      -25.633       57.984       -8.619       32.070       38.071       11.742     1028.503     1449.387      137.877        0.335        0.131       63.397       10.601        0.028      341.150       15.663      869.364
10/05/2013  19:24:00      -29.992       13.649       -7.056       18.499       20.019       12.205      342.229      400.750      148.964        0.101        0.045       32.952        8.842        0.072      340.891       15.225      869.379
10/05/2013  19:25:00      -44.626        3.632      -14.712       20.063       14.514       13.667      402.538      210.644      186.793        0.151        0.040       44.774        9.351        0.044      340.716       14.930      869.382
10/05/2013  19:26:00      -68.530        1.111      -10.555       13.755       12.009       12.090      189.203      144.225      146.167        0.264        0.024       68.539        8.014        0.014      340.653       14.821      869.385
10/05/2013  19:27:00      -72.374       -6.146      -16.223       15.509       16.531       10.170      240.535      273.278      103.428        0.308        0.031       72.634        4.971        0.005      340.606       14.742      869.389
10/05/2013  19:28:00      -37.038       -5.689      -11.239       28.598       37.210       22.754      817.871     1384.572      517.765        0.212        0.136       37.473       25.826        0.475      340.817       15.101      869.398
10/05/2013  19:29:00      -71.889       -3.457      -12.565       18.768       15.471       12.050      352.223      239.357      145.199        0.304        0.037       71.972       10.326        0.021      340.711       14.920      869.407
10/05/2013  19:30:00      -56.235       -9.987       -6.435       23.960       15.735       12.668      574.104      247.582      160.474        0.214        0.049       57.114        8.015        0.020      340.504       14.571      869.412
10/05/2013  19:31:00      -61.478       -1.576      -16.246       16.352       14.341       11.960      267.397      205.653      143.035        0.233        0.031       61.498        8.005        0.017      340.456       14.489      869.429
10/05/2013  19:32:00      -42.305      -22.480       -4.211       26.561       19.594       15.983      705.509      383.927      255.445        0.183        0.067       47.907       12.722        0.071      340.643       14.806      869.428
10/05/2013  19:33:00      -85.543      -21.241      -13.199       12.249       18.743       11.396      150.030      351.285      129.873        0.429        0.032       88.140        7.613        0.007      340.347       14.306      869.431
10/05/2013  19:34:00      -73.125      -15.465      -11.825       22.282       16.961       11.605      496.468      287.679      134.685        0.332        0.046       74.742        7.155        0.009      340.310       14.241      869.433
10/05/2013  19:35:00      -46.899      -16.878       -9.853       14.901       12.845        7.818      222.027      164.990       61.123        0.151        0.022       49.844        6.325        0.016      340.339       14.292      869.455
10/05/2013  19:36:00      -20.787       70.586      -10.550       64.723       76.709       31.719     4189.019     5884.262     1006.117        0.830        0.554       73.583       21.097        0.082      340.733       14.959      869.452
10/05/2013  19:37:00        4.166       75.454       -4.069       25.830       30.852       17.236      667.173      951.825      297.088        0.382        0.096       75.569       17.389        0.053      340.877       15.201      869.468
10/05/2013  19:38:00      -27.868       68.089      -10.359       20.827       22.797        9.543      433.756      519.700       91.071        0.328        0.052       73.571       10.844        0.022      340.905       15.248      869.458
10/05/2013  19:39:00      -24.682       91.343      -15.452       31.263       27.597       16.342      977.345      761.575      267.054        0.560        0.100       94.619       15.382        0.026      340.938       15.304      869.454
10/05/2013  19:40:00        2.301      126.316      -14.257       17.354       20.097       13.096      301.153      403.907      171.504        0.852        0.044      126.337       11.455        0.008      340.993       15.395      869.444
10/05/2013  19:41:00        5.651      132.600      -17.753       41.373       42.962       18.390     1711.732     1845.765      338.188        1.091        0.195      132.720       21.382        0.026      340.960       15.340      869.444
10/05/2013  19:42:00       23.605      114.709      -16.291       40.230       32.196       22.742     1618.443     1036.574      517.181        0.858        0.159      117.112       17.021        0.021      340.854       15.161      869.444
10/05/2013  19:43:00       17.818       79.201       -5.707       27.335       54.838       20.979      747.217     3007.209      440.132        0.541        0.210       81.181       21.655        0.071      340.771       15.023      869.450
10/05/2013  19:44:00       29.285       39.563        0.773       31.719       29.700       19.094     1006.082      882.094      364.580        0.234        0.113       49.222       17.974        0.133      340.786       15.049      869.464
10/05/2013  19:45:00       10.752       13.860       -2.337       26.127       28.024       15.324      682.594      785.367      234.837        0.101        0.085       17.542        7.938        0.205      340.643       14.805      869.480
10/05/2013  19:46:00        9.798       15.476        1.788       25.341       15.249       15.490      642.157      232.533      239.946        0.073        0.056       18.317       13.868        0.573      340.677       14.863      869.493
10/05/2013  19:47:00        6.422       26.747       -5.100       18.603       17.840       12.231      346.065      318.259      149.588        0.080        0.041       27.507        7.746        0.079      340.696       14.896      869.505
10/05/2013  19:48:00       15.949       59.288       -6.933       14.846       16.876       10.687      220.399      284.814      114.220        0.222        0.031       61.395       10.400        0.029      340.701       14.903      869.508
10/05/2013  19:49:00       16.759       86.275      -14.313       17.036       13.192        7.992      290.210      174.035       63.874        0.423        0.026       87.887        7.621        0.008      340.812       15.091      869.510
10/05/2013  19:50:00       -7.886      117.973      -14.024       18.628       23.129       10.559      347.005      534.959      111.489        0.758        0.050      118.236        8.387        0.005      340.881       15.209      869.499
10/05/2013  19:51:00       -6.891      122.274      -15.491       15.176       17.793        7.699      230.299      316.585       59.279        0.792        0.030      122.468        7.461        0.004      340.815       15.097      869.508
10/05/2013  19:52:00       -3.985      149.981      -20.229       18.525       18.561       13.764      343.166      344.525      189.453        1.190        0.044      150.034       10.239        0.005      340.744       14.976      869.503
10/05/2013  19:53:00        1.183      144.031      -19.984       26.385       22.166       12.567      696.154      491.312      157.940        1.125        0.067      144.036        5.655        0.002      340.706       14.911      869.514
10/05/2013  19:54:00       18.369       91.010      -12.761       23.417       26.391       17.823      548.374      696.509      317.652        0.517        0.078       92.845       13.997        0.023      340.542       14.634      869.513
10/05/2013  19:55:00       15.965      100.418      -13.636       18.750       24.288       15.197      351.559      589.916      230.962        0.585        0.059      101.680       13.442        0.017      340.597       14.727      869.521
10/05/2013  19:56:00       14.890      107.025      -16.133       13.589       17.919        9.875      184.673      321.105       97.525        0.627        0.030      108.056        6.637        0.004      340.552       14.652      869.523
10/05/2013  19:57:00       20.132       74.437      -14.334       16.045       14.008        9.230      257.434      196.216       85.196        0.335        0.027       77.112        8.845        0.013      340.531       14.615      869.538
10/05/2013  19:58:00       17.223       87.972      -17.726       13.015       14.933       11.308      169.383      222.987      127.875        0.443        0.026       89.642        8.037        0.008      340.591       14.716      869.536
10/05/2013  19:59:00       14.061       42.834      -10.503       13.719       25.462       11.170      188.217      648.330      124.776        0.155        0.048       45.083       13.740        0.093      340.472       14.515      869.543
10/05/2013  20:00:00       36.201       55.111       -9.382       17.783       21.052       15.498      316.242      443.206      240.201        0.272        0.050       65.937        8.830        0.018      340.503       14.569      869.541
10/05/2013  20:01:00       31.441       60.434       -7.541       29.874       46.503       18.179      892.447     2162.484      330.464        0.404        0.169       68.123       24.024        0.124      340.497       14.559      869.537
10/05/2013  20:02:00       20.492       49.665        5.225       29.811       27.451       20.612      888.711      753.574      424.844        0.249        0.103       53.726       17.522        0.106      340.440       14.463      869.541
10/05/2013  20:03:00       23.607       63.530       -6.114       20.640       24.489       16.397      425.997      599.716      268.862        0.296        0.065       67.774       16.046        0.056      340.376       14.353      869.538
10/05/2013  20:04:00       20.178       72.134       -7.260       21.542       37.086       17.052      464.052     1375.390      290.774        0.390        0.107       74.903       19.480        0.068      340.395       14.386      869.549
10/05/2013  20:05:00       22.770      104.367      -16.547       15.296       14.445       11.050      233.963      208.656      122.105        0.612        0.028      106.822        1.839        0.000      340.474       14.519      869.549
10/05/2013  20:06:00       25.469      105.721      -16.216       21.702       23.693       16.236      470.964      561.337      263.616        0.669        0.065      108.746       11.007        0.010      340.498       14.559      869.559
10/05/2013  20:07:00       19.216      117.690      -19.677       19.664       27.448       19.889      386.654      753.376      395.566        0.807        0.077      119.249       14.420        0.015      340.517       14.592      869.571
10/05/2013  20:08:00       22.969      104.105      -13.721       19.601       23.531       20.451      384.192      553.694      418.254        0.645        0.068      106.609        8.429        0.006      340.429       14.444      869.577
10/05/2013  20:09:00        7.678      125.264      -20.493       18.141       17.429       10.697      329.097      303.771      114.424        0.846        0.037      125.499       10.133        0.007      340.522       14.602      869.576
10/05/2013  20:10:00       27.259      137.443      -15.323       32.073       32.094       21.057     1028.663     1030.045      443.377        1.118        0.125      140.120       12.305        0.008      340.559       14.664      869.570
10/05/2013  20:11:00       22.216      109.428      -16.068       24.811       27.893       18.657      615.574      778.036      348.093        0.723        0.087      111.661       13.947        0.016      340.456       14.490      869.576
10/05/2013  20:12:00        7.866       82.522       -6.031       21.767       35.446       19.888      473.809     1256.422      395.536        0.452        0.106       82.896       20.009        0.058      340.312       14.246      869.582
10/05/2013  20:13:00       13.566      118.446       -9.095       23.736       36.164       23.745      563.419     1307.799      563.848        0.837        0.122      119.221       21.382        0.032      340.304       14.231      869.589
10/05/2013  20:14:00       14.564       68.301       -7.925       27.668       31.773       21.499      765.525     1009.515      462.200        0.359        0.112       69.837       15.604        0.050      340.220       14.090      869.605
10/05/2013  20:15:00       21.542       88.848      -10.857       25.750       31.517       19.017      663.073      993.328      361.637        0.525        0.101       91.422       19.791        0.047      340.261       14.159      869.607
10/05/2013  20:16:00       17.281       73.988       -1.076       24.541       40.980       21.489      602.268     1679.328      461.783        0.426        0.137       75.979       15.270        0.040      340.209       14.071      869.616
10/05/2013  20:17:00       18.116       97.685      -18.694       21.767       48.747       14.894      473.785     2376.301      221.836        0.665        0.154       99.350       19.105        0.037      340.325       14.269      869.632
10/05/2013  20:18:00       19.673      131.878      -23.536       16.448       18.235       11.570      270.521      332.519      133.855        0.953        0.037      133.337        8.978        0.005      340.392       14.382      869.632
10/05/2013  20:19:00       18.943      128.970      -18.764       22.776       23.731       13.529      518.762      563.167      183.030        0.930        0.063      130.354        6.276        0.002      340.381       14.363      869.641
10/05/2013  20:20:00        5.659      138.519      -17.552       22.814       26.402       13.060      520.471      697.083      170.555        1.046        0.069      138.635       13.138        0.009      340.327       14.270      869.645
10/05/2013  20:21:00        7.589      141.658      -23.459       18.044       20.779        9.784      325.591      431.775       95.719        1.076        0.043      141.861        7.152        0.003      340.264       14.164      869.661
10/05/2013  20:22:00        5.859      138.840      -18.994       19.078       26.222       11.909      363.978      687.614      141.826        1.043        0.060      138.964        8.525        0.004      340.230       14.108      869.678
10/05/2013  20:23:00        2.832      138.882      -19.548       24.166       22.654       10.116      583.974      513.192      102.327        1.044        0.060      138.911        9.447        0.005      340.267       14.169      869.687
10/05/2013  20:24:00       23.460       96.911      -13.784       18.997       27.108       20.758      360.896      734.863      430.914        0.583        0.076       99.710       15.468        0.024      340.139       13.953      869.698
10/05/2013  20:25:00       29.755      110.731      -15.141       26.143       30.350       21.993      683.477      921.095      483.702        0.773        0.104      114.659       19.912        0.030      340.107       13.899      869.694
10/05/2013  20:26:00       24.178      114.358      -10.451       29.591       40.384       23.529      875.619     1630.859      553.634        0.842        0.153      116.886       23.222        0.039      340.095       13.878      869.691
10/05/2013  20:27:00       26.020      163.437      -15.664       35.860       33.966       19.336     1285.926     1153.656      373.869        1.522        0.141      165.495       15.079        0.008      340.170       14.006      869.694
10/05/2013  20:28:00       33.424      160.742      -21.992       35.180       35.608       25.004     1237.619     1267.948      625.216        1.528        0.157      164.180       20.991        0.016      340.129       13.936      869.690
10/05/2013  20:29:00       25.412      142.109      -21.085       29.471       31.854       24.237      868.536     1014.698      587.445        1.188        0.124      144.364       20.610        0.020      340.104       13.894      869.691
10/05/2013  20:30:00       18.853      152.099      -20.409       29.097       49.238       20.446      846.611     2424.335      418.055        1.380        0.184      153.263       22.872        0.022      340.086       13.863      869.685
10/05/2013  20:31:00       17.731      185.082      -27.451       27.434       28.415       18.318      752.630      807.407      335.532        1.861        0.095      185.930       13.881        0.006      340.310       14.242      869.677
10/05/2013  20:32:00        3.170      147.577      -18.905       25.043       28.778       13.463      627.157      828.180      181.248        1.189        0.082      147.611       13.368        0.008      340.182       14.024      869.690
10/05/2013  20:33:00        2.719      132.539      -20.550       29.883       20.872       17.815      892.999      435.641      317.368        0.982        0.082      132.566       14.492        0.012      340.181       14.024      869.683
10/05/2013  20:34:00        4.669      141.650      -20.804       27.693       30.007       13.367      766.893      900.411      178.680        1.118        0.092      141.727       13.379        0.009      340.281       14.193      869.687
10/05/2013  20:35:00      -22.669      102.393      -10.966       28.010       32.552       16.921      784.569     1059.643      286.323        0.662        0.107      104.872       11.776        0.013      340.194       14.048      869.693
10/05/2013  20:36:00       -4.873       97.487      -13.900       26.340       23.128       14.086      693.807      534.888      198.425        0.557        0.071       97.609        5.872        0.004      340.266       14.168      869.700
10/05/2013  20:37:00       23.599      101.306      -16.974       20.255       23.406       12.306      410.255      547.859      151.444        0.611        0.055      104.019        6.831        0.004      340.234       14.115      869.718
10/05/2013  20:38:00        1.553      107.508      -17.832       17.372       17.919       11.254      301.777      321.095      126.663        0.631        0.037      107.519        5.437        0.003      340.301       14.227      869.721
10/05/2013  20:39:00       17.037      144.379      -25.810       30.469       20.758       12.257      928.335      430.909      150.240        1.166        0.075      145.380       11.448        0.006      340.272       14.179      869.718
10/05/2013  20:40:00       -1.879      147.680      -22.266       27.000       29.610       13.513      729.012      876.743      182.607        1.205        0.089      147.692       11.019        0.006      340.245       14.133      869.730
10/05/2013  20:41:00       15.496      146.845      -16.633       34.422       34.840       19.120     1184.888     1213.808      365.564        1.242        0.138      147.660       16.720        0.013      340.305       14.234      869.730
10/05/2013  20:42:00        4.865      123.854      -14.272       26.453       49.493       18.291      699.773     2449.572      334.555        0.952        0.174      123.950       21.936        0.031      340.085       13.862      869.727
10/05/2013  20:43:00        1.792      160.486      -20.631       23.400       23.802       13.108      547.559      566.515      171.824        1.373        0.064      160.496       10.704        0.004      340.197       14.052      869.733
10/05/2013  20:44:00       -1.419      174.406      -22.050       22.202       28.887       14.461      492.949      834.449      209.130        1.622        0.077      174.412       13.400        0.006      340.163       13.994      869.731
10/05/2013  20:45:00       15.459      173.704      -20.093       30.967       46.000       24.318      958.974     2115.989      591.379        1.724        0.183      174.390       19.005        0.012      340.103       13.893      869.751
10/05/2013  20:46:00       28.485      166.506      -30.515       25.700       33.202       19.322      660.467     1102.378      373.350        1.580        0.107      168.925       18.627        0.012      340.122       13.924      869.761
10/05/2013  20:47:00       -8.689      123.130      -13.317       33.980       42.064       16.951     1154.661     1769.419      287.348        0.931        0.161      123.436       19.042        0.024      339.969       13.668      869.780
10/05/2013  20:48:00      -22.205       97.542      -11.192       26.260       56.228       24.273      689.571     3161.604      589.161        0.729        0.222      100.037       25.282        0.064      339.854       13.475      869.795
10/05/2013  20:49:00       -7.262      102.283      -11.188       28.163       30.575       19.898      793.147      934.806      395.940        0.638        0.106      102.540       17.456        0.029      339.917       13.578      869.801
10/05/2013  20:50:00      -42.392       62.665      -12.822       39.898       39.166       22.807     1591.860     1533.939      520.175        0.477        0.182       75.657       11.423        0.023      339.615       13.070      869.816
10/05/2013  20:51:00      -49.012      -19.161       -7.403       30.285       18.589       17.679      917.155      345.567      312.547        0.220        0.079       52.624       17.432        0.110      339.158       12.299      869.827
10/05/2013  20:52:00      -74.010      -10.534      -15.635       21.216       15.138       14.235      450.108      229.151      202.625        0.336        0.044       74.755        8.102        0.012      338.958       11.963      869.825
10/05/2013  20:53:00      -37.689      -29.138       -9.535       35.358       20.880       20.156     1250.173      435.963      406.247        0.223        0.105       47.639       16.138        0.115      339.100       12.203      869.838
10/05/2013  20:54:00      -68.097      -14.035      -15.501       13.425       18.404        9.440      180.224      338.716       89.123        0.284        0.030       69.528        6.363        0.008      339.065       12.144      869.835
10/05/2013  20:55:00      -72.922       -1.339      -15.125       44.135       23.948       17.982     1947.911      573.518      323.367        0.420        0.142       72.934       15.717        0.046      339.129       12.251      869.832
10/05/2013  20:56:00      -41.855      -16.344       -6.974       37.878       21.890       18.976     1434.772      479.151      360.077        0.217        0.114       44.933       11.531        0.066      339.627       13.091      869.832
10/05/2013  20:57:00      -81.145      -10.250      -16.099       14.773       14.157       10.277      218.233      200.433      105.611        0.374        0.026       81.790        7.632        0.009      339.048       12.114      869.838
10/05/2013  20:58:00      -75.956      -14.800      -15.369       10.638       14.273        8.985      113.175      203.709       80.728        0.331        0.020       77.384        4.790        0.004      338.984       12.007      869.835
10/05/2013  20:59:00      -69.998      -20.117      -16.004       16.659       20.125       13.238      277.529      405.016      175.254        0.321        0.043       72.831        8.235        0.013      338.927       11.912      869.847
10/05/2013  21:00:00      -74.122      -24.833      -16.386       24.662       26.857       13.472      608.219      721.305      181.482        0.394        0.076       78.171        8.497        0.012      338.933       11.920      869.854
10/05/2013  21:01:00      -92.845      -30.453      -18.386       17.974       27.474       12.666      323.052      754.832      160.436        0.556        0.062       97.712       12.297        0.016      338.944       11.940      869.860
10/05/2013  21:02:00      -80.043      -26.603      -15.220       21.128       20.876       16.067      446.379      435.824      258.133        0.424        0.057       84.348       10.744        0.016      338.863       11.803      869.878
10/05/2013  21:03:00      -83.608      -18.391       -9.733       18.380       25.407       13.911      337.830      645.492      193.518        0.430        0.059       85.607        9.498        0.012      338.901       11.868      869.874
10/05/2013  21:04:00     -100.389      -11.563      -14.666       16.909       24.086       14.204      285.908      580.124      201.755        0.575        0.053      101.053        3.985        0.002      338.869       11.815      869.875
10/05/2013  21:05:00      -85.249      -16.100      -17.505       20.505       25.422       12.918      420.459      646.293      166.876        0.453        0.062       86.756        7.821        0.008      338.887       11.845      869.877
10/05/2013  21:06:00      -94.354      -13.965      -18.834       15.093       17.172       12.831      227.805      294.865      164.641        0.507        0.034       95.382       11.859        0.015      338.808       11.711      869.868
10/05/2013  21:07:00     -105.111      -16.827      -21.365       12.729       18.196       11.478      162.023      331.105      131.746        0.621        0.031      106.449        8.859        0.007      338.882       11.834      869.867
10/05/2013  21:08:00      -97.180       -5.087      -25.338       27.585       29.096       17.222      760.941      846.572      296.594        0.601        0.095       97.314       13.633        0.020      338.770       11.648      869.864
10/05/2013  21:09:00     -100.416       -2.034      -18.765       21.294       23.363       15.857      453.436      545.847      251.443        0.584        0.063      100.437       13.268        0.017      338.851       11.783      869.870
10/05/2013  21:10:00      -98.259       -6.683      -25.234       12.290       13.211       11.173      151.052      174.525      124.844        0.539        0.023       98.486        4.092        0.002      338.803       11.703      869.869
10/05/2013  21:11:00      -84.482      -25.913      -16.538       13.504       17.744       13.022      182.363      314.842      169.576        0.437        0.033       88.367        9.701        0.012      338.792       11.685      869.858
10/05/2013  21:12:00      -84.350       -9.082      -19.468       22.522       20.458       18.031      507.223      418.511      325.113        0.441        0.063       84.838       16.569        0.038      338.768       11.643      869.864
10/05/2013  21:13:00      -71.934       -5.703      -17.756       15.657       19.715       11.102      245.126      388.665      123.262        0.314        0.038       72.160        8.780        0.015      338.777       11.659      869.850
10/05/2013  21:14:00      -92.576       -5.653      -18.034       22.192       19.170       11.733      492.466      367.501      137.675        0.496        0.050       92.749       12.681        0.019      338.721       11.565      869.849
10/05/2013  21:15:00      -73.634      -24.600      -12.059       12.371       13.703       11.459      153.039      187.769      131.309        0.332        0.024       77.634        6.831        0.008      338.719       11.561      869.839
10/05/2013  21:16:00      -64.665      -15.135      -14.925       24.526       14.041       10.593      601.538      197.158      112.215        0.277        0.046       66.413        7.037        0.011      338.818       11.726      869.846
10/05/2013  21:17:00      -48.162        1.877       -7.582       23.938       23.817       13.289      573.006      567.257      176.597        0.185        0.066       48.199       10.575        0.048      339.025       12.076      869.835
10/05/2013  21:18:00      -41.251       89.731      -15.260       26.428       53.361       17.096      698.420     2847.374      292.289        0.691        0.192       98.759       18.655        0.036      339.780       13.348      869.833
10/05/2013  21:19:00      -31.407      115.703      -12.137       27.615       37.411       19.697      762.603     1399.561      387.989        0.854        0.128      119.890       16.153        0.018      339.832       13.436      869.822
10/05/2013  21:20:00      -39.565       92.485      -12.903       38.280       57.366       14.846     1465.390     3290.816      220.414        0.763        0.249      100.593       14.175        0.020      339.630       13.095      869.817
10/05/2013  21:21:00       -9.758      152.233      -20.483       30.656       28.089       16.080      939.805      788.968      258.566        1.284        0.099      152.546       14.901        0.010      340.027       13.765      869.818
10/05/2013  21:22:00      -26.213      108.693      -13.994       29.553       47.982       19.101      873.374     2302.312      364.840        0.812        0.177      111.809       21.546        0.037      339.782       13.351      869.813
10/05/2013  21:23:00      -48.564       57.362       -9.634       31.481       36.586       21.781      991.073     1338.508      474.432        0.427        0.140       75.159       18.796        0.063      339.443       12.779      869.815
10/05/2013  21:24:00      -37.613       45.323      -11.515       26.040       44.768       16.691      678.098     2004.185      278.594        0.328        0.148       58.898       19.725        0.112      339.382       12.676      869.812
10/05/2013  21:25:00      -31.659      124.843      -17.904       26.365       36.516       15.011      695.136     1333.442      225.322        0.958        0.113      128.794        6.950        0.003      339.861       13.485      869.817
10/05/2013  21:26:00      -16.167      153.853      -20.030       32.816       27.141       15.912     1076.882      736.645      253.203        1.320        0.103      154.700        8.595        0.003      339.956       13.644      869.807
10/05/2013  21:27:00        5.269      171.140      -23.515       25.148       20.639       12.473      632.411      425.982      155.568        1.554        0.061      171.221        9.632        0.003      340.008       13.732      869.799
10/05/2013  21:28:00       -4.472      158.548      -20.926       29.406       21.966       13.438      864.706      482.521      180.569        1.356        0.076      158.611       11.943        0.006      339.937       13.612      869.799
10/05/2013  21:29:00        9.146      168.353      -25.136       29.160       24.970       17.586      850.313      623.521      309.267        1.542        0.089      168.601       16.774        0.010      339.912       13.570      869.788
10/05/2013  21:30:00       -3.486      154.178      -20.213       25.096       25.413       14.021      629.825      645.796      196.591        1.283        0.074      154.218       14.297        0.009      339.758       13.312      869.791
10/05/2013  21:31:00       -1.012      178.610      -23.007       18.090       22.794       11.287      327.256      519.566      127.407        1.670        0.049      178.612        7.620        0.002      339.902       13.554      869.800
10/05/2013  21:32:00       -3.641      171.632      -23.336       27.896       21.327       14.520      778.196      454.856      210.831        1.573        0.072      171.671        8.771        0.003      339.867       13.495      869.801
10/05/2013  21:33:00       -2.782      152.895      -20.724       24.096       23.247       12.434      580.634      540.427      154.601        1.254        0.064      152.920       12.757        0.007      339.832       13.436      869.797
10/05/2013  21:34:00        1.247      171.489      -23.407       29.427       24.883       17.085      865.973      619.167      291.913        1.587        0.089      171.493       10.950        0.004      339.896       13.544      869.800
10/05/2013  21:35:00       12.593      184.625      -24.292       22.738       25.823       12.496      517.020      666.843      156.153        1.809        0.067      185.054       10.328        0.003      339.889       13.531      869.818
10/05/2013  21:36:00       15.927      169.354      -21.996       30.936       38.413       15.917      957.058     1475.555      253.355        1.605        0.134      170.102        8.728        0.003      339.820       13.417      869.824
10/05/2013  21:37:00        7.199      159.926      -17.705       18.678       21.146       12.384      348.858      447.154      153.373        1.345        0.047      160.088        8.422        0.003      339.822       13.418      869.819
10/05/2013  21:38:00       18.189      163.259      -26.255       35.330       30.227       15.910     1248.235      913.664      253.123        1.504        0.121      164.269       13.764        0.007      339.786       13.359      869.833
10/05/2013  21:39:00       17.129      131.527      -21.601       30.501       26.862       17.989      930.296      721.542      323.594        1.002        0.099      132.638       11.389        0.007      339.696       13.207      869.833
10/05/2013  21:40:00       -3.051      109.637      -14.854       29.424       24.502       13.999      865.746      600.341      195.973        0.696        0.083      109.680       12.825        0.014      339.733       13.269      869.831
10/05/2013  21:41:00        0.141      112.641      -12.611       25.737       26.669       15.285      662.409      711.212      233.621        0.723        0.080      112.641       15.729        0.019      339.764       13.322      869.835
10/05/2013  21:42:00       -9.427       95.191      -19.686       30.106       36.456       17.903      906.382     1329.059      320.531        0.605        0.128       95.657       10.638        0.012      339.710       13.229      869.841
10/05/2013  21:43:00      -29.008        4.427       -6.868       22.326       27.447       14.610      498.445      753.360      213.453        0.119        0.073       29.344       12.136        0.171      339.259       12.470      869.845
10/05/2013  21:44:00      -51.858      -11.410      -10.622       21.141       14.617        9.660      446.963      213.643       93.308        0.184        0.038       53.098        7.998        0.023      339.121       12.238      869.845
10/05/2013  21:45:00      -67.344      -20.710      -12.518       10.461       11.811        9.913      109.437      139.510       98.272        0.273        0.017       70.456        8.137        0.013      338.961       11.970      869.849
10/05/2013  21:46:00      -65.811      -29.218      -13.662        8.341       14.616        6.339       69.577      213.635       40.179        0.285        0.016       72.005        6.517        0.008      338.863       11.804      869.861
10/05/2013  21:47:00      -68.919      -32.021      -10.303        9.418       17.098        6.895       88.699      292.330       47.540        0.315        0.021       75.994        6.829        0.008      338.792       11.684      869.882
10/05/2013  21:48:00      -65.408      -30.188      -14.184        6.859        6.469        6.748       47.045       41.844       45.541        0.276        0.007       72.038        1.828        0.001      338.892       11.852      869.897
10/05/2013  21:49:00      -64.743      -30.322      -10.613        9.050        7.421        6.945       81.902       55.076       48.232        0.270        0.009       71.492        4.946        0.005      338.608       11.373      869.907
10/05/2013  21:50:00      -88.422      -57.362      -14.489       25.632       29.862       13.127      657.013      891.736      172.306        0.652        0.086      105.399        5.929        0.003      338.416       11.053      869.905
10/05/2013  21:51:00     -136.383      -82.777      -16.349       22.581       22.779       17.703      509.883      518.891      313.406        1.353        0.067      159.538        9.963        0.004      338.393       11.014      869.904
10/05/2013  21:52:00      -66.669      -45.720        1.264       34.463       21.904       17.062     1187.713      479.792      291.123        0.425        0.098       80.840       12.585        0.024      338.257       10.785      869.910
10/05/2013  21:53:00      -84.300      -51.933       -7.801       20.856       16.647       14.251      434.978      277.122      203.080        0.539        0.046       99.013        8.918        0.008      338.305       10.867      869.905
10/05/2013  21:54:00      -96.967      -34.282      -19.854        6.815       12.733        6.456       46.450      162.125       41.679        0.561        0.013      102.849        3.336        0.001      338.380       10.992      869.896
10/05/2013  21:55:00      -85.168      -20.887      -19.561        9.308        9.918        6.432       86.645       98.371       41.370        0.415        0.011       87.692        2.656        0.001      338.347       10.938      869.885
10/05/2013  21:56:00      -79.903      -32.505      -19.548        9.542       11.669        8.009       91.057      136.165       64.148        0.406        0.015       86.262        5.227        0.004      338.326       10.901      869.887
10/05/2013  21:57:00      -88.635      -30.792      -20.557        7.570        7.736        6.055       57.298       59.846       36.666        0.469        0.008       93.831        3.655        0.002      338.293       10.847      869.875
10/05/2013  21:58:00      -90.260      -27.189      -15.556        7.197        7.386        7.328       51.799       54.548       53.696        0.464        0.008       94.266        4.378        0.002      338.205       10.697      869.875
10/05/2013  21:59:00      -74.637      -25.447      -12.416        7.385        7.121        7.546       54.540       50.715       56.942        0.327        0.008       78.856        3.399        0.002      338.169       10.637      869.883
10/05/2013  22:00:00      -87.610      -25.302      -13.576        9.842        7.820        8.893       96.873       61.145       79.084        0.437        0.012       91.190        1.291        0.000      338.187       10.668      869.888
10/05/2013  22:01:00      -71.664      -32.705      -10.001       12.376       10.603        9.318      153.157      112.431       86.819        0.333        0.018       78.774        5.118        0.004      338.186       10.666      869.884
10/05/2013  22:02:00      -81.290      -33.342      -16.736       11.126        9.798        7.928      123.793       96.005       62.853        0.414        0.014       87.863        3.652        0.002      338.134       10.578      869.889
10/05/2013  22:03:00      -96.203      -36.590      -15.256       12.319       10.275        9.824      151.751      105.583       96.503        0.559        0.018      102.926        7.603        0.005      338.076       10.483      869.881
10/05/2013  22:04:00      -99.543      -30.401      -13.704        9.833       11.289       10.166       96.691      127.437      103.348        0.567        0.016      104.082        2.513        0.001      338.068       10.467      869.872
10/05/2013  22:05:00     -104.157      -37.230      -12.557        8.298       12.577        9.553       68.852      158.193       91.257        0.636        0.016      110.611        8.335        0.006      338.098       10.519      869.870
10/05/2013  22:06:00     -103.146      -36.691      -13.977       11.223       12.210        9.643      125.954      149.090       92.987        0.627        0.018      109.477        2.002        0.000      338.067       10.467      869.860
10/05/2013  22:07:00      -87.850      -32.812      -13.201       11.597       11.762        7.491      134.502      138.333       56.113        0.465        0.016       93.778        6.571        0.005      338.057       10.449      869.864
10/05/2013  22:08:00      -92.184      -24.676      -13.773        6.899       10.530        7.768       47.600      110.882       60.334        0.476        0.011       95.430        5.204        0.003      338.107       10.533      869.866
10/05/2013  22:09:00      -98.410       -6.334      -13.328        6.091        6.224        6.370       37.097       38.739       40.580        0.501        0.006       98.614        2.256        0.001      338.129       10.571      869.859
10/05/2013  22:10:00      -93.650       -4.556      -18.185        8.628        9.766        8.180       74.444       95.368       66.915        0.468        0.012       93.761        2.217        0.001      338.091       10.507      869.860
10/05/2013  22:11:00      -95.128      -25.770      -15.559       11.638       15.737        7.360      135.443      247.668       54.171        0.520        0.022       98.557        5.444        0.003      338.001       10.356      869.863
10/05/2013  22:12:00     -121.467      -30.047      -22.743       10.546       15.499        8.311      111.214      240.227       69.076        0.830        0.021      125.128        4.486        0.001      337.964       10.293      869.854
10/05/2013  22:13:00     -104.057      -26.140      -15.906       10.469        9.035        6.227      109.609       81.623       38.774        0.600        0.012      107.290        2.252        0.000      337.880       10.152      869.854
10/05/2013  22:14:00      -99.896      -16.515      -19.195        7.844       11.201        7.411       61.523      125.464       54.916        0.543        0.012      101.252        6.090        0.004      337.874       10.144      869.839
10/05/2013  22:15:00      -90.430      -31.774      -19.339       12.670       15.687       10.106      160.539      246.082      102.127        0.503        0.025       95.850        8.124        0.007      337.822       10.055      869.837
10/05/2013  22:16:00      -99.808      -49.387      -14.899       21.098       17.547       13.065      445.128      307.892      170.696        0.677        0.046      111.358        7.863        0.005      337.675        9.809      869.842
10/05/2013  22:17:00     -112.516      -34.541      -18.809       16.456       15.916       11.946      270.806      253.305      142.696        0.744        0.033      117.698        5.524        0.002      337.667        9.795      869.847
10/05/2013  22:18:00     -113.810      -31.611      -18.821       21.637       16.209       12.982      468.142      262.726      168.528        0.760        0.045      118.118        9.607        0.007      337.636        9.745      869.841
10/05/2013  22:19:00     -132.761       -2.527      -22.098       18.421       17.645       12.311      339.349      311.354      151.555        0.946        0.040      132.785        9.942        0.006      337.637        9.746      869.835
10/05/2013  22:20:00      -90.902      -23.649      -14.841       21.194       20.798       15.284      449.168      432.575      233.604        0.508        0.056       93.928       10.406        0.012      337.647        9.764      869.839
10/05/2013  22:21:00     -102.721       -7.929      -21.663       20.037       14.406        9.707      401.495      207.526       94.219        0.589        0.035      103.027        8.442        0.007      337.693        9.839      869.841
10/05/2013  22:22:00     -105.842       -5.891      -18.054       18.059       21.820       11.205      326.118      476.132      125.547        0.625        0.046      106.006       10.206        0.009      337.771        9.970      869.848
10/05/2013  22:23:00      -81.777      -18.767      -18.794       15.334       15.670       10.885      235.140      245.542      118.490        0.400        0.030       83.903        8.519        0.010      337.748        9.932      869.843
10/05/2013  22:24:00      -94.803      -42.117      -19.676       15.632       18.202       13.347      244.347      331.315      178.144        0.595        0.038      103.737        7.419        0.005      337.721        9.886      869.841
10/05/2013  22:25:00     -108.552      -54.880      -12.567       20.715       21.043       14.757      429.093      442.803      217.756        0.802        0.054      121.636        9.792        0.006      337.701        9.852      869.829
10/05/2013  22:26:00     -129.098      -51.775      -21.320       16.294       22.846       14.652      265.493      521.941      214.693        1.040        0.050      139.093        6.662        0.002      337.703        9.856      869.827
10/05/2013  22:27:00     -139.771      -54.496      -14.028       11.237       12.571        8.009      126.268      158.019       64.140        1.153        0.017      150.019        4.136        0.001      337.612        9.703      869.814
10/05/2013  22:28:00     -133.245      -44.274      -11.843       14.885       16.219       11.953      221.558      263.061      142.884        1.024        0.031      140.408        9.032        0.004      337.584        9.657      869.816
10/05/2013  22:29:00     -138.585      -35.715      -19.684       21.353       13.353       13.515      455.958      178.310      182.661        1.084        0.041      143.113       11.767        0.007      337.566        9.628      869.802
10/05/2013  22:30:00     -128.437      -31.912      -20.231        9.407        9.620        9.277       88.492       92.545       86.065        0.910        0.013      132.343        3.153        0.001      337.534        9.573      869.803
10/05/2013  22:31:00     -125.561      -37.119      -18.306       12.572       10.631        6.900      158.059      113.008       47.606        0.890        0.016      130.933        3.982        0.001      337.522        9.551      869.805
10/05/2013  22:32:00     -117.598      -34.461      -20.862       17.481       15.651       11.672      305.581      244.966      136.225        0.807        0.034      122.543        9.810        0.006      337.515        9.540      869.798
10/05/2013  22:33:00      -83.048      -28.122       -9.871       21.104       26.935       18.190      445.363      725.498      330.859        0.464        0.075       87.680       12.465        0.020      337.481        9.483      869.785
10/05/2013  22:34:00      -90.567      -18.856      -17.125       26.578       21.650       15.318      706.396      468.721      234.649        0.513        0.070       92.509       12.524        0.018      337.456        9.442      869.780
10/05/2013  22:35:00      -84.113      -12.914      -14.282       24.454       28.037       14.956      598.003      786.063      223.677        0.453        0.080       85.098       13.455        0.025      337.523        9.555      869.779
10/05/2013  22:36:00      -93.790      -12.708      -21.801       19.388       19.185       15.445      375.903      368.071      238.544        0.521        0.049       94.647       11.104        0.014      337.534        9.573      869.764
10/05/2013  22:37:00      -83.145      -22.519      -10.288       16.582       18.590       12.542      274.963      345.571      157.298        0.415        0.039       86.141        9.400        0.012      337.530        9.564      869.764
10/05/2013  22:38:00      -77.836      -34.749      -20.492       13.506       19.643       16.413      182.416      385.837      269.391        0.426        0.042       85.241        8.303        0.009      337.601        9.686      869.745
10/05/2013  22:39:00      -69.832      -51.723      -14.754       21.816       20.792       15.461      475.924      432.304      239.043        0.446        0.057       86.901       13.424        0.024      337.544        9.589      869.740
10/05/2013  22:40:00      -81.206      -39.503      -11.828       22.465       23.942       20.133      504.655      573.197      405.335        0.489        0.074       90.304       11.194        0.015      337.512        9.537      869.734
10/05/2013  22:41:00      -96.076      -52.447      -24.344       16.698       21.792       14.320      278.829      474.872      205.076        0.677        0.048      109.459        7.462        0.005      337.501        9.518      869.729
10/05/2013  22:42:00      -84.883      -33.676      -21.777       23.457       30.264       21.025      550.241      915.894      442.043        0.536        0.095       91.319       13.071        0.020      337.387        9.327      869.727
10/05/2013  22:43:00      -57.975      -45.134      -11.293       23.354       22.487       22.872      545.394      505.672      523.124        0.355        0.079       73.473       17.386        0.056      337.444        9.422      869.724
10/05/2013  22:44:00      -88.097      -33.948      -28.154       16.531       16.816       14.553      273.267      282.766      211.800        0.524        0.038       94.411        4.354        0.002      337.487        9.494      869.726
10/05/2013  22:45:00      -92.268      -38.241      -27.548       15.725       19.585       14.667      247.283      383.574      215.129        0.579        0.042       99.879       12.560        0.016      337.423        9.389      869.716
10/05/2013  22:46:00      -82.472      -49.334      -20.030       18.927       23.894       14.223      358.226      570.942      202.307        0.538        0.057       96.101       11.740        0.015      337.424        9.388      869.707
10/05/2013  22:47:00     -100.559      -43.308      -19.870       15.567       19.365       13.848      242.342      374.991      191.765        0.660        0.040      109.489       13.417        0.015      337.446        9.425      869.700
10/05/2013  22:48:00     -115.183      -17.225      -25.832       16.109       19.432       11.939      259.497      377.586      142.549        0.751        0.039      116.464        9.167        0.006      337.449        9.429      869.684
10/05/2013  22:49:00     -116.967       -1.142      -18.664       17.637       15.029       12.565      311.062      225.877      157.891        0.736        0.035      116.973        7.839        0.004      337.553        9.604      869.676
10/05/2013  22:50:00      -97.893      -15.971      -20.481       20.814       21.839       12.508      433.225      476.961      156.460        0.566        0.053       99.187       12.494        0.016      337.529        9.565      869.662
10/05/2013  22:51:00      -68.784      -53.784      -11.964       19.120       20.629       14.601      365.565      425.561      213.201        0.439        0.050       87.316        7.466        0.007      337.443        9.420      869.646
10/05/2013  22:52:00      -73.937      -37.904      -17.398       17.520       19.449       15.597      306.959      378.257      243.268        0.407        0.046       83.086        9.092        0.012      337.498        9.512      869.640
10/05/2013  22:53:00      -50.720      -37.018       -5.812       30.524       25.509       22.272      931.742      650.710      496.048        0.303        0.104       62.792       17.423        0.077      337.437        9.410      869.622
10/05/2013  22:54:00      -82.454      -50.328      -24.718       32.230       24.265       18.268     1038.752      588.801      333.716        0.595        0.098       96.600        5.689        0.003      337.429        9.396      869.618
10/05/2013  22:55:00      -95.999      -60.317      -18.143       17.277       21.488       10.957      298.510      461.737      120.062        0.703        0.044      113.375        6.140        0.003      337.369        9.296      869.619
10/05/2013  22:56:00     -125.854      -35.983      -16.562       13.846       17.463        7.924      191.723      304.947       62.783        0.898        0.028      130.897        2.978        0.001      337.302        9.185      869.604
10/05/2013  22:57:00      -94.848      -36.814      -17.806       11.501       10.729        8.849      132.266      115.116       78.308        0.550        0.016      101.742        7.043        0.005      337.295        9.172      869.608
10/05/2013  22:58:00      -94.315      -34.761      -17.742        8.859       11.075        8.683       78.478      122.651       75.397        0.535        0.014      100.517        2.978        0.001      337.363        9.285      869.607
10/05/2013  22:59:00      -89.196      -40.423      -17.667       11.705       10.757       11.578      137.007      115.708      134.050        0.514        0.019       97.928        6.539        0.004      337.427        9.395      869.606
10/05/2013  23:00:00      -99.429      -37.395      -15.044        9.694       12.033       10.831       93.975      144.798      117.316        0.593        0.018      106.228        5.702        0.003      337.392        9.336      869.620
10/05/2013  23:01:00     -107.802      -56.357      -17.411       15.278       15.447        9.316      233.418      238.602       86.792        0.783        0.028      121.645        5.711        0.002      337.354        9.273      869.626
10/05/2013  23:02:00     -117.998      -69.763      -13.336       13.815       16.443       11.343      190.847      270.363      128.669        0.978        0.029      137.079        4.853        0.001      337.313        9.203      869.629
10/05/2013  23:03:00     -102.641      -66.888       -8.027       16.721       16.013       14.008      279.608      256.429      196.221        0.790        0.037      122.512        8.133        0.004      337.355        9.272      869.641
10/05/2013  23:04:00     -111.144      -47.072      -14.987        9.862       11.978        8.161       97.257      143.472       66.599        0.755        0.015      120.701        5.132        0.002      337.415        9.374      869.651
10/05/2013  23:05:00     -111.239      -59.686      -16.135       11.260       15.408       11.447      126.781      237.414      131.026        0.835        0.025      126.240        5.607        0.002      337.367        9.292      869.652
10/05/2013  23:06:00      -91.925      -63.408      -12.764       31.793       18.931       15.510     1010.782      358.390      240.554        0.712        0.080      111.672       13.590        0.015      337.242        9.084      869.653
10/05/2013  23:07:00     -104.617      -66.090      -14.058       27.619       19.972       15.963      762.794      398.879      254.806        0.846        0.071      123.744        8.143        0.004      337.164        8.954      869.671
10/05/2013  23:08:00      -69.499      -61.473       -2.383       40.339       29.963       21.516     1627.213      897.757      462.956        0.580        0.149       92.785       22.083        0.057      337.149        8.929      869.665
10/05/2013  23:09:00      -90.085      -53.882       -5.796       19.317       15.381       16.626      373.157      236.580      276.422        0.597        0.044      104.970       12.742        0.015      337.144        8.920      869.660
10/05/2013  23:10:00      -89.730      -49.330       -2.837       18.536       11.228       10.743      343.586      126.059      115.423        0.554        0.029      102.395        7.837        0.006      337.102        8.849      869.658
10/05/2013  23:11:00      -79.503      -45.007      -10.946       21.038       17.205       15.285      442.584      296.011      233.637        0.472        0.049       91.359        9.708        0.011      337.120        8.880      869.658
10/05/2013  23:12:00     -102.111      -55.104       -9.505       16.262       15.448       11.229      264.469      238.651      126.093        0.709        0.031      116.030        6.316        0.003      337.138        8.910      869.653
10/05/2013  23:13:00      -96.040      -57.767      -12.178       14.933       17.568       15.008      223.007      308.620      225.245        0.673        0.038      112.074        5.030        0.002      337.127        8.890      869.658
10/05/2013  23:14:00      -66.370      -61.788        1.312       36.064       23.106       22.766     1300.632      533.898      518.287        0.529        0.118       90.680       18.733        0.043      337.051        8.764      869.670
10/05/2013  23:15:00      -62.605      -49.092       -5.013       31.942       27.760       20.225     1020.306      770.629      409.059        0.428        0.110       79.558       16.467        0.043      337.138        8.911      869.680
10/05/2013  23:16:00      -80.219      -58.146        1.559       46.086       24.995       22.736     2123.955      624.733      516.907        0.654        0.163       99.075       23.086        0.054      337.123        8.884      869.685
10/05/2013  23:17:00     -127.070      -78.306       -9.237       26.138       35.339       22.836      683.180     1248.822      521.491        1.241        0.123      149.260       14.184        0.009      337.205        9.021      869.676
10/05/2013  23:18:00     -109.420      -62.576       -6.345       34.206       38.810       17.589     1170.029     1506.219      309.376        0.946        0.149      126.050       13.911        0.012      337.080        8.812      869.671
10/05/2013  23:19:00     -109.225      -62.079       -7.353       33.759       29.521       20.485     1139.638      871.488      419.617        0.913        0.122      125.634       20.870        0.028      337.089        8.827      869.666
10/05/2013  23:20:00     -116.268      -47.339      -12.269       22.115       22.568       14.374      489.054      509.336      206.624        0.856        0.060      125.536        9.467        0.006      337.029        8.727      869.657
10/05/2013  23:21:00     -116.566      -64.645      -17.038       24.971       20.241       15.559      623.562      409.685      242.067        0.967        0.064      133.292       10.433        0.006      336.999        8.675      869.666
10/05/2013  23:22:00     -108.123      -69.674      -10.705       19.668       18.096       14.513      386.827      327.481      210.613        0.879        0.046      128.627        6.771        0.003      336.950        8.596      869.676
10/05/2013  23:23:00     -113.947      -75.815       -6.925       23.305       16.098       13.619      543.108      259.136      185.474        0.988        0.049      136.864        8.881        0.004      336.961        8.613      869.677
10/05/2013  23:24:00     -118.136      -70.297      -12.656       13.928       15.212       10.978      193.982      231.404      120.506        0.980        0.027      137.469        5.509        0.002      336.944        8.584      869.680
10/05/2013  23:25:00     -125.363      -66.626      -13.304       15.882       14.451       15.181      252.230      208.829      230.469        1.051        0.035      141.968        9.070        0.004      336.977        8.640      869.680
10/05/2013  23:26:00     -110.698      -58.844      -17.087       14.057       13.581       10.776      197.612      184.434      116.113        0.825        0.025      125.366        5.661        0.002      336.894        8.502      869.680
10/05/2013  23:27:00     -110.504      -42.759      -12.746       11.644       15.059       14.211      135.591      226.772      201.965        0.738        0.028      118.488       11.444        0.009      336.922        8.547      869.677
10/05/2013  23:28:00     -111.227      -53.907      -11.467       11.356       11.551        8.245      128.949      133.426       67.987        0.787        0.017      123.602        4.324        0.001      336.822        8.382      869.670
10/05/2013  23:29:00     -106.886      -59.962      -14.754       10.140       10.248        9.291      102.816      105.013       86.316        0.777        0.015      122.556        2.862        0.001      336.816        8.372      869.676
10/05/2013  23:30:00      -92.645      -55.626       -9.691       14.854       16.875       14.796      220.637      284.775      218.922        0.625        0.036      108.062        8.507        0.006      336.902        8.515      869.676
10/05/2013  23:31:00      -87.773      -50.125      -11.560       15.886       15.280       12.142      252.376      233.475      147.431        0.549        0.032      101.077        7.814        0.006      336.867        8.457      869.673
10/05/2013  23:32:00      -93.879      -54.494      -13.399       18.474       16.468       12.801      341.282      271.201      163.867        0.637        0.039      108.549        9.759        0.008      336.897        8.507      869.684
10/05/2013  23:33:00     -108.481      -55.746      -16.377       16.217       12.018        9.733      262.999      144.438       94.734        0.782        0.025      121.967        5.518        0.002      336.835        8.403      869.683
10/05/2013  23:34:00     -108.156      -51.657      -15.883       10.290       11.536        8.548      105.885      133.075       73.073        0.747        0.016      119.859        2.184        0.000      336.779        8.312      869.681
10/05/2013  23:35:00     -101.836      -55.093      -11.574       12.931       17.687        9.793      167.211      312.823       95.898        0.706        0.029      115.784        7.000        0.004      336.824        8.386      869.681
10/05/2013  23:36:00      -92.774      -56.778       -5.833       14.469       12.174       11.656      209.361      148.200      135.873        0.618        0.025      108.769        9.123        0.007      336.786        8.323      869.694
10/05/2013  23:37:00     -106.753      -50.608      -18.363       16.898       10.687        9.645      285.557      114.221       93.034        0.739        0.025      118.141        7.004        0.004      336.867        8.457      869.696
10/05/2013  23:38:00     -100.059      -49.914      -14.584       11.270       13.523       11.859      127.024      182.858      140.644        0.658        0.023      111.818        6.020        0.003      336.846        8.422      869.691
10/05/2013  23:39:00      -91.100      -60.293      -13.881       17.865       12.618       13.276      319.143      159.211      176.260        0.639        0.033      109.245       10.558        0.009      336.844        8.419      869.694
10/05/2013  23:40:00     -102.232      -72.902      -10.805       19.064       14.077       11.860      363.426      198.172      140.651        0.829        0.035      125.563        8.011        0.004      336.884        8.484      869.700
10/05/2013  23:41:00     -109.942      -67.723      -12.071       17.955       16.779       14.160      322.368      281.548      200.493        0.881        0.040      129.126        8.641        0.004      336.883        8.484      869.693
10/05/2013  23:42:00     -112.457      -67.783      -18.939       12.190       15.471       10.206      148.602      239.365      104.153        0.905        0.025      131.305        2.559        0.000      336.851        8.429      869.686
10/05/2013  23:43:00     -114.460      -69.908      -17.731       15.177       13.696       11.826      230.348      187.572      139.858        0.943        0.028      134.120        6.013        0.002      336.836        8.405      869.677
10/05/2013  23:44:00     -104.115      -59.297      -13.760       22.045       14.913       10.438      485.973      222.389      108.952        0.768        0.041      119.817        8.403        0.005      336.799        8.344      869.674
10/05/2013  23:45:00     -108.322      -54.423      -16.514        9.126       18.707        9.913       83.289      349.961       98.273        0.775        0.027      121.225        6.514        0.003      336.695        8.171      869.662
10/05/2013  23:46:00     -109.711      -34.697      -15.817       13.866       15.147       11.942      192.268      229.444      142.618        0.703        0.028      115.067        6.797        0.003      336.690        8.162      869.650
10/05/2013  23:47:00     -121.399      -36.699      -16.651        8.773       10.663        9.040       76.968      113.699       81.726        0.832        0.014      126.825        4.234        0.001      336.785        8.320      869.640
10/05/2013  23:48:00     -130.810      -52.708      -18.038       14.285       21.121       14.008      204.071      446.113      196.237        1.053        0.042      141.030       10.229        0.005      336.828        8.391      869.643
10/05/2013  23:49:00      -94.165      -72.769       -3.516       20.491       23.924       18.277      419.881      572.338      334.062        0.775        0.066      119.005       10.440        0.008      336.770        8.296      869.645
10/05/2013  23:50:00     -117.052      -58.547      -19.064       18.968       15.029       13.237      359.771      225.877      175.225        0.913        0.038      130.877        8.595        0.004      336.765        8.287      869.645
10/05/2013  23:51:00     -131.696      -43.228      -17.069       16.983       16.712       13.732      288.410      279.281      188.564        1.013        0.038      138.609        5.599        0.002      336.748        8.258      869.663
10/05/2013  23:52:00     -116.782      -40.824      -23.866       18.266       16.331       13.207      333.640      266.696      174.428        0.832        0.039      123.712        9.228        0.006      336.660        8.113      869.667
10/05/2013  23:53:00     -108.840      -60.032       -9.037       20.783       17.985       14.573      431.945      323.475      212.374        0.825        0.048      124.298       11.224        0.008      336.670        8.130      869.666
10/05/2013  23:54:00     -127.056      -51.430      -13.904       20.938       21.379       11.417      438.387      457.045      130.358        1.000        0.051      137.070        6.168        0.002      336.658        8.108      869.674
10/05/2013  23:55:00     -129.091      -49.237       -8.512       18.747       20.745       12.101      351.466      430.357      146.436        1.004        0.046      138.162        9.408        0.005      336.617        8.041      869.674
10/05/2013  23:56:00     -142.435      -45.716      -13.489       15.300       12.011        8.877      234.103      144.261       78.803        1.151        0.023      149.592        6.399        0.002      336.658        8.108      869.671
10/05/2013  23:57:00     -133.105      -43.652      -18.219       12.936       17.338       12.657      167.333      300.590      160.194        1.029        0.031      140.080        6.664        0.002      336.638        8.075      869.663
10/05/2013  23:58:00     -141.759      -58.315      -16.496       20.763       18.612       12.782      431.119      346.405      163.371        1.235        0.047      153.285       11.128        0.005      336.633        8.068      869.670
10/05/2013  23:59:00     -148.655      -54.205      -16.782       20.357       19.111       15.649      414.423      365.248      244.883        1.317        0.051      158.229       12.839        0.007      336.614        8.035      869.665
